GFSGBSN_850_thetae_000.txt.gz
Theta_e
317 315 315 313 313 307 304 303 304 306 306 306 305 306 307 305 307 307 307 307 308 309 309 309 310 311 312 312 312 313 317 315 314 313 323 327 325 325 323 322 323 323 323 324 325 325 324
317 315 316 313 312 311 306 304 304 307 306 306 306 307 306 305 305 305 306 306 307 309 309 307 308 310 311 312 310 311 314 315 317 316 319 326 325 325 324 323 323 324 325 325 325 325 322
316 316 313 312 311 312 306 304 304 306 308 306 309 310 310 309 307 305 306 305 305 308 309 308 308 310 311 310 309 309 310 311 315 317 317 325 325 325 325 324 325 325 324 321 320 321 320
317 316 314 312 308 311 308 304 303 304 309 309 307 309 310 311 310 309 307 308 307 305 307 308 309 308 309 310 309 309 312 311 313 317 315 326 326 325 325 324 321 320 319 322 320 318 319
316 316 316 312 311 309 312 310 303 304 305 307 306 307 308 310 312 312 309 308 308 307 305 308 309 309 310 310 309 309 311 314 316 316 317 325 326 326 325 323 322 319 323 319 318 316 317
315 315 316 315 310 310 309 310 304 304 305 306 308 306 307 310 312 313 311 310 309 307 307 307 309 308 308 311 310 309 309 315 317 316 320 326 326 325 324 324 331 324 322 320 319 318 316
314 315 315 316 311 311 305 308 304 304 305 305 305 308 309 311 312 313 313 311 307 306 307 308 309 308 311 310 311 309 309 314 317 316 323 326 328 329 325 326 323 320 319 321 317 315 315
314 314 314 314 315 308 306 304 304 304 304 304 305 308 310 312 313 314 312 310 306 307 309 306 310 310 309 311 313 311 310 315 317 314 321 327 327 326 322 323 325 320 320 318 317 316 315
314 314 314 314 315 313 307 305 304 304 304 304 305 307 311 313 313 314 314 310 306 308 310 309 308 310 311 310 313 312 311 315 317 313 321 326 327 325 325 322 323 320 320 321 321 316 315
314 314 314 314 314 315 313 307 305 304 304 305 306 306 312 313 312 313 312 311 308 308 310 311 309 310 310 312 313 313 312 316 317 314 321 326 324 326 326 326 324 327 317 319 318 318 319
314 314 315 314 314 314 315 313 307 305 305 305 307 307 310 313 310 313 312 310 309 308 311 310 310 310 310 312 314 315 309 315 318 317 322 326 325 327 328 327 323 327 318 318 318 316 315
314 315 315 314 314 314 314 315 310 307 305 305 306 307 309 312 311 312 313 310 309 313 314 311 312 312 312 312 315 315 316 317 319 319 320 321 323 324 326 324 321 318 317 315 313 313 318
313 314 314 314 315 315 314 315 315 311 308 308 308 308 307 310 313 311 312 311 312 315 311 313 313 313 314 314 315 316 316 317 320 321 323 319 324 318 321 319 315 317 319 323 322 320 320
314 314 314 314 314 314 315 315 315 316 309 309 309 308 308 310 314 310 310 310 317 315 312 314 314 313 315 315 317 316 320 322 320 317 322 323 326 316 313 322 320 318 317 318 324 321 319
314 314 314 314 315 314 315 315 315 316 313 311 309 309 311 311 314 310 309 314 317 318 316 317 315 314 316 315 319 321 319 321 321 317 321 323 323 312 312 312 319 315 318 315 317 315 319
314 314 314 314 315 314 315 315 315 316 315 309 310 312 314 314 314 310 311 315 319 319 316 315 316 316 320 317 321 319 321 321 322 318 314 315 315 314 312 312 311 313 312 318 315 324 324
314 314 313 314 314 314 315 314 316 316 312 310 316 315 316 317 313 313 315 314 320 317 316 318 319 318 319 318 320 319 319 320 319 316 314 312 313 316 312 313 313 312 313 311 314 314 319
314 313 313 313 313 314 314 314 316 316 312 310 315 314 315 313 317 318 318 322 319 320 321 321 319 319 319 317 320 321 322 319 318 318 319 316 312 315 315 314 311 311 311 312 317 316 311
314 313 313 313 313 314 313 314 315 316 314 308 314 316 315 315 321 321 321 320 320 321 322 322 318 318 316 316 322 321 322 318 319 319 319 316 316 319 321 318 315 315 312 310 310 310 311
313 313 313 313 313 313 313 314 315 315 315 308 314 316 315 315 316 317 321 321 323 320 321 320 318 317 318 320 318 319 320 318 319 319 320 318 316 316 321 319 315 317 314 311 313 314 313
313 313 313 313 313 313 313 314 315 315 315 308 314 314 315 315 315 314 317 321 322 322 319 319 321 318 319 320 319 319 317 316 316 317 315 316 318 315 312 315 316 315 315 311 313 314 317
313 313 313 313 313 312 313 314 314 315 314 309 314 312 312 310 311 313 313 317 317 316 318 321 320 318 318 320 319 319 317 317 317 315 315 313 314 312 311 311 311 315 315 311 313 312 313
314 313 313 313 312 312 314 314 314 315 313 312 312 313 313 309 309 312 315 315 315 314 313 315 316 317 313 312 311 314 313 311 314 315 313 311 310 312 315 312 312 312 310 313 312 311 312
314 314 313 313 312 312 314 314 314 315 314 310 312 314 311 311 310 311 312 312 313 311 313 309 312 315 310 311 312 312 311 310 309 308 308 309 309 308 309 312 311 311 311 308 310 310 310
313 314 313 312 312 313 314 314 314 315 314 309 312 314 311 308 307 308 309 307 306 307 307 307 308 310 310 309 312 318 314 313 311 307 307 307 309 311 313 311 312 315 310 312 314 314 312
313 314 314 311 312 313 312 313 314 315 316 309 313 314 312 307 308 309 307 307 307 305 305 305 307 308 308 310 312 318 320 318 313 312 307 308 308 311 308 314 316 314 312 311 312 316 310
313 314 314 312 312 312 312 312 313 315 316 313 314 316 315 309 310 308 307 308 307 305 304 305 307 308 309 310 313 314 314 311 313 312 311 310 309 312 314 315 313 311 311 312 316 314 310
314 314 314 312 312 311 312 311 313 315 316 316 316 317 318 312 311 312 311 309 309 309 307 306 309 309 307 313 313 311 312 310 312 310 309 310 310 311 310 314 316 310 312 314 309 309 309
314 314 313 312 313 310 311 312 313 315 315 316 317 318 317 313 312 311 312 312 313 314 310 306 310 307 309 308 308 307 310 306 310 315 307 313 310 311 311 312 309 310 311 311 310 310 309

GFSGBSN_850_thetae_003.txt.gz
Theta_e
317 317 316 314 315 313 312 307 304 304 305 307 307 306 305 307 305 308 307 307 307 308 309 309 309 311 314 314 313 315 316 314 315 318 315 322 327 326 327 324 322 321 323 324 324 325 325
317 317 316 314 314 312 313 312 305 304 304 306 307 308 309 309 307 307 306 306 306 307 309 309 309 310 312 313 311 312 313 315 315 318 316 319 326 326 326 324 326 324 324 325 324 325 324
316 317 316 315 313 310 313 311 306 304 303 306 306 309 311 311 311 309 306 305 306 306 308 310 309 308 311 312 310 309 310 312 313 316 317 319 326 324 326 324 325 325 326 323 323 324 323
315 315 316 316 314 313 310 311 310 303 303 305 309 310 310 310 311 311 310 308 309 306 307 309 309 309 310 310 310 309 310 310 311 312 315 318 325 325 324 325 323 326 322 329 324 319 320
315 315 315 316 316 313 312 309 313 308 303 304 305 307 306 306 307 310 312 311 308 309 308 307 308 309 310 309 308 308 309 312 312 312 315 317 324 326 325 323 323 322 329 325 324 319 320
314 314 315 315 315 315 311 308 310 308 303 305 306 309 308 308 309 309 312 313 309 310 309 307 308 309 309 311 310 310 309 310 315 317 318 319 325 326 326 327 332 323 326 321 321 319 316
313 314 315 314 314 315 311 309 306 307 303 304 305 307 307 309 311 311 312 313 310 309 308 307 308 307 310 310 310 310 309 310 313 317 317 320 326 329 327 326 324 320 323 324 321 316 316
314 314 314 314 314 314 314 308 305 303 303 303 304 304 307 308 312 312 312 313 310 308 308 307 308 309 309 311 312 311 309 310 313 316 316 322 327 326 323 324 322 320 322 321 319 316 316
313 314 314 314 314 314 314 314 308 304 303 304 304 305 307 307 312 313 313 314 310 308 308 309 307 309 310 309 311 311 310 311 316 314 316 322 325 324 325 325 327 322 322 321 323 318 315
313 313 314 314 314 314 314 314 314 308 304 304 304 306 308 309 311 314 313 313 308 307 309 310 309 307 309 310 311 311 311 312 316 313 315 322 323 325 326 325 325 328 319 321 320 322 325
313 313 314 315 314 314 314 314 315 314 308 305 305 305 307 309 310 310 311 310 308 305 313 310 309 309 309 310 311 312 311 312 316 314 317 323 324 325 327 326 323 326 321 322 320 319 315
312 313 313 314 315 314 315 314 315 316 314 308 306 305 307 308 311 311 311 311 307 310 312 312 310 311 311 311 312 313 312 313 316 315 315 322 322 326 326 323 323 314 318 318 314 315 320
312 312 313 313 314 314 314 315 315 316 315 315 308 307 308 308 312 311 311 307 310 313 310 312 312 311 311 311 312 313 313 314 318 317 317 321 325 322 324 321 317 318 324 328 325 321 323
312 313 314 315 314 314 314 315 315 315 315 315 312 310 310 309 309 311 308 309 314 314 310 311 311 311 312 311 313 314 314 313 317 317 317 324 327 320 320 322 321 323 324 325 327 323 320
313 313 314 314 314 314 315 315 315 314 315 316 313 309 310 310 310 309 307 312 314 314 310 313 311 311 312 313 314 315 314 314 316 317 318 320 323 314 317 315 320 318 324 317 317 314 320
313 314 315 314 313 314 314 314 316 314 315 315 309 312 313 313 312 309 307 313 314 312 314 311 311 311 311 313 314 315 316 315 318 317 314 318 317 315 311 314 311 318 315 322 317 324 324
312 314 315 313 313 313 313 314 315 314 315 313 311 312 314 312 311 310 312 311 314 316 313 313 315 315 314 314 313 316 315 320 320 318 314 311 314 315 311 314 313 315 318 315 315 316 322
312 313 314 313 313 313 313 313 313 314 314 310 312 313 315 313 313 313 315 313 316 316 316 315 315 318 316 313 313 317 319 319 320 319 315 312 313 315 314 313 312 312 315 315 318 316 312
313 313 314 313 313 313 312 313 313 314 314 310 312 314 314 314 318 317 317 317 318 319 320 319 317 317 314 316 321 320 321 318 319 319 317 315 315 319 320 317 314 314 311 311 311 311 313
313 313 313 313 313 313 312 312 313 314 313 311 312 317 315 313 315 318 321 320 321 320 321 321 316 316 316 317 317 319 321 318 318 319 318 316 315 317 321 318 314 315 312 310 314 315 313
313 313 313 313 312 313 312 312 313 314 313 312 311 311 316 315 316 316 318 319 321 322 320 320 319 315 318 319 318 319 319 316 317 319 316 317 318 315 312 315 315 315 315 311 313 315 318
310 313 313 313 312 312 311 311 312 314 313 312 312 309 311 310 310 316 316 321 320 318 319 321 320 315 317 320 319 318 317 318 319 314 316 313 316 312 312 312 313 316 314 313 312 311 312
304 314 314 313 312 312 312 311 311 313 313 310 311 312 312 310 309 313 315 317 318 315 315 312 316 316 318 315 314 316 318 316 316 313 311 314 311 313 316 311 311 314 311 312 313 310 313
304 311 314 315 312 312 311 310 311 312 313 312 310 311 310 312 310 312 311 313 315 313 317 309 312 314 310 312 313 312 311 310 314 308 309 312 312 310 310 311 313 313 310 310 312 309 308
304 309 313 315 313 311 311 310 311 313 313 314 308 311 311 308 308 309 309 308 307 309 306 307 307 310 309 310 316 317 316 314 311 307 308 307 310 312 313 311 311 314 309 310 312 312 309
304 306 314 315 313 312 311 310 311 312 312 314 308 311 311 306 307 308 306 307 308 308 307 305 309 308 312 310 314 320 322 316 313 311 307 308 308 314 309 313 314 313 311 311 311 315 310
303 305 314 314 313 312 311 310 311 311 313 314 310 311 313 308 309 307 306 308 307 305 306 305 307 308 310 312 313 314 314 311 314 313 312 311 309 312 314 314 313 311 311 311 316 314 309
301 304 313 315 313 312 310 310 310 311 313 314 313 313 315 310 310 310 309 308 308 307 307 305 309 308 308 314 315 312 313 310 310 309 309 311 311 311 311 314 315 310 311 313 310 308 309
300 303 310 313 313 312 311 310 310 312 313 314 315 315 316 310 311 310 310 311 312 312 308 305 309 306 308 308 307 306 309 307 310 314 307 312 309 311 311 311 308 309 310 310 311 309 309

GFSGBSN_850_thetae_006.txt.gz
Theta_e
316 316 317 316 315 316 313 314 312 306 304 305 308 308 306 306 308 306 306 307 306 309 311 310 308 310 313 315 315 315 316 315 314 318 320 317 323 325 330 328 327 327 326 325 325 325 325
315 316 316 316 315 315 312 314 313 311 304 304 307 308 309 310 310 310 307 306 307 307 308 309 309 309 312 314 313 313 313 313 313 317 320 317 322 324 324 327 328 326 326 326 325 326 326
314 315 315 316 316 315 313 311 313 310 304 303 306 307 308 311 311 311 310 308 305 306 307 309 310 310 312 311 310 309 310 311 312 314 318 318 319 325 324 328 327 327 328 327 327 326 327
314 315 315 316 316 315 315 312 309 312 311 303 304 310 309 310 310 310 311 311 309 306 306 309 310 310 310 310 309 310 310 310 311 312 315 318 318 322 327 326 327 329 329 330 327 327 327
314 315 315 315 315 315 315 313 312 310 313 306 304 308 307 309 308 307 309 312 312 308 308 308 309 310 310 309 309 309 310 311 312 312 313 316 318 322 325 326 329 330 332 329 327 326 327
313 314 314 314 315 315 315 315 311 307 311 307 303 305 310 309 309 309 310 310 313 310 310 308 308 309 309 310 310 310 309 309 311 314 316 317 317 324 327 328 333 329 330 328 329 326 322
312 313 313 314 314 314 314 314 312 306 308 306 303 305 307 307 309 309 311 310 311 310 310 309 309 309 310 309 310 310 310 310 311 315 317 316 318 324 326 327 327 325 328 329 327 324 323
312 312 314 314 314 314 314 314 314 309 304 303 303 304 305 307 309 308 311 312 310 310 310 309 308 308 310 310 311 311 311 310 311 314 317 317 320 322 325 326 327 327 327 327 326 322 322
313 312 313 314 314 314 314 314 314 314 308 304 303 304 304 308 307 308 312 313 311 310 308 309 308 309 309 309 311 312 311 310 312 313 316 317 320 322 326 327 327 327 326 326 327 324 322
313 313 313 313 314 315 314 313 314 314 313 307 304 304 307 309 308 311 313 313 312 310 308 309 309 308 309 310 310 310 311 310 313 313 316 315 318 324 326 327 327 328 326 326 326 329 332
312 312 313 313 314 315 315 314 314 315 316 313 307 304 308 307 311 311 311 311 309 308 315 310 309 308 309 309 310 310 312 310 314 315 313 316 321 321 327 327 326 327 325 327 327 328 328
312 312 312 313 314 315 315 314 315 315 316 316 314 308 305 307 308 311 312 309 307 309 313 312 310 310 310 310 311 312 312 311 313 315 314 316 320 320 325 324 325 322 324 323 322 325 331
313 312 312 312 313 313 315 314 314 315 315 316 316 314 308 307 309 311 311 308 311 314 310 313 312 311 310 310 310 312 313 313 314 319 317 314 314 324 325 326 320 325 327 331 333 330 331
313 313 312 312 313 314 314 314 314 315 315 315 315 314 311 309 308 311 309 309 315 313 312 310 312 311 311 311 311 312 313 312 313 316 316 318 326 326 325 325 323 325 327 328 330 330 328
313 313 313 313 314 314 314 314 315 315 315 314 315 313 312 310 309 310 307 312 314 315 310 312 311 312 312 311 311 313 313 312 314 313 317 319 321 321 324 321 323 324 327 322 323 321 325
306 313 312 313 314 314 313 314 314 314 314 314 314 311 310 311 309 308 307 314 313 312 310 312 311 311 312 312 315 315 312 311 313 314 317 317 322 320 317 322 316 324 324 325 323 328 328
305 311 312 313 314 314 313 313 313 314 314 315 313 310 312 311 310 307 311 312 313 313 311 310 311 311 312 312 314 315 313 315 313 316 317 319 321 317 320 321 324 324 324 325 323 322 327
304 307 313 313 314 314 313 313 313 315 313 314 311 316 314 311 311 310 312 311 313 316 313 310 311 311 311 313 312 315 315 317 312 317 319 319 320 323 320 315 319 323 324 323 328 323 321
303 305 311 313 315 314 313 312 313 314 314 312 311 314 313 311 315 313 314 314 313 317 315 312 315 314 312 313 314 315 316 314 315 318 321 319 321 323 322 319 315 321 321 325 322 318 322
304 303 307 313 314 313 312 312 312 313 314 313 311 317 314 313 314 316 317 316 318 317 316 318 318 317 315 314 314 316 318 319 319 317 318 316 320 321 323 323 321 322 320 323 324 325 323
305 304 304 313 314 314 312 312 312 312 313 313 309 316 316 316 314 315 316 318 317 321 319 320 319 319 316 318 319 319 319 320 319 320 320 320 321 321 319 319 320 320 321 319 321 323 323
303 304 304 312 315 314 312 312 312 312 313 313 311 312 312 316 315 317 316 319 317 320 318 318 321 319 318 319 320 322 321 321 322 320 321 319 321 316 318 317 319 319 319 321 321 322 321
301 302 303 310 314 314 312 312 311 312 312 313 311 309 311 314 313 317 317 319 318 317 317 317 319 319 319 319 319 319 320 320 320 321 321 320 320 320 321 315 316 320 319 319 319 319 319
300 301 303 306 314 314 313 312 310 311 312 313 310 310 311 314 314 313 315 317 317 318 319 312 313 319 315 315 315 317 317 316 318 316 320 321 318 317 318 314 322 320 313 318 319 319 318
300 301 303 304 313 314 313 311 310 310 312 312 313 309 310 313 312 311 313 314 310 309 309 310 307 310 313 311 319 319 317 319 314 310 312 319 319 321 319 321 318 315 313 314 317 320 315
299 300 301 303 311 313 313 311 310 311 311 312 313 311 310 309 312 308 309 312 315 313 309 307 307 308 310 314 322 323 325 323 319 314 309 313 318 321 316 319 321 316 313 312 314 317 313
298 299 300 303 308 312 312 311 310 310 311 312 313 311 310 309 308 307 310 313 311 309 309 308 309 311 316 316 319 322 323 316 320 320 318 315 315 321 320 323 318 314 313 313 318 319 312
298 299 300 302 306 313 312 311 310 310 311 312 313 311 310 310 309 308 308 307 308 311 314 308 313 312 313 319 319 316 318 314 315 315 318 319 318 318 319 322 323 312 311 317 314 312 311
298 298 300 302 304 313 312 312 310 309 311 312 313 313 312 314 310 310 309 309 310 309 312 309 314 311 315 315 314 313 314 312 315 317 310 316 317 318 317 318 311 309 311 310 311 311 309

GFSGBSN_850_thetae_009.txt.gz
Theta_e
316 316 316 317 317 316 316 317 313 313 311 305 305 308 308 306 307 307 306 306 307 306 308 313 311 309 312 315 316 316 316 314 316 320 321 321 318 320 327 327 328 328 327 326 326 326 326
315 315 316 316 317 316 315 314 311 314 314 307 304 307 308 309 309 310 310 307 307 307 306 310 309 309 313 314 314 316 316 316 315 318 320 321 319 319 321 324 327 327 327 326 326 326 326
314 314 313 316 316 316 316 315 313 312 313 309 304 304 307 308 311 311 311 310 307 305 307 306 310 311 313 312 312 313 313 313 314 314 318 320 320 320 321 324 323 326 328 327 327 326 326
312 314 313 314 315 316 316 316 315 312 309 312 308 303 308 310 311 310 310 311 310 308 306 307 309 312 313 312 312 312 312 312 312 313 314 317 319 318 321 324 325 325 328 331 327 327 326
312 312 313 315 315 315 316 315 315 314 312 310 312 305 304 310 309 310 307 308 311 312 308 307 309 312 312 311 311 311 312 311 312 313 313 314 318 318 320 325 328 328 331 330 329 327 327
312 312 314 315 315 315 315 315 315 315 311 309 313 307 304 308 309 309 308 311 310 312 310 310 310 311 311 311 311 311 311 311 311 312 313 314 317 319 321 324 329 330 330 328 330 327 328
312 310 313 313 314 314 314 315 315 315 313 307 310 307 304 306 309 311 310 310 310 312 310 310 310 310 311 310 311 312 311 311 311 312 315 314 318 320 320 322 324 327 329 329 329 327 328
314 311 312 312 313 314 314 314 314 314 314 309 306 304 303 306 307 309 310 309 311 311 312 310 311 310 310 311 312 311 311 311 311 313 313 316 318 317 318 321 324 327 328 329 327 326 326
315 311 312 312 313 314 314 314 314 314 314 314 305 303 303 305 307 309 311 308 311 311 310 308 310 310 310 310 311 312 311 311 312 312 313 316 317 316 317 318 326 328 329 328 328 327 325
315 312 312 313 313 314 314 314 314 314 314 314 309 304 304 306 308 308 310 311 312 312 309 311 310 310 309 309 310 310 312 312 311 312 312 314 314 317 318 320 324 329 327 326 327 328 330
314 314 312 313 313 313 314 315 315 314 314 315 314 307 304 307 311 311 311 311 311 310 317 312 310 309 310 309 310 309 310 312 312 312 311 312 315 317 319 322 323 328 327 326 327 329 331
307 311 313 312 312 312 314 315 315 314 315 315 316 314 307 308 308 310 309 311 309 310 316 313 310 310 310 310 310 311 310 311 311 311 313 312 315 317 318 321 324 326 327 328 328 328 330
306 306 308 313 312 312 313 314 315 315 315 315 316 316 314 308 310 310 309 308 310 315 311 313 312 311 311 312 312 312 312 312 314 313 315 314 312 314 319 321 322 327 328 333 331 331 329
302 304 305 313 313 312 312 313 314 314 314 315 316 316 314 310 310 310 309 308 314 314 312 311 311 311 312 311 311 312 312 313 312 312 315 319 319 315 315 323 324 327 328 328 330 329 328
302 304 302 307 313 312 312 314 315 314 314 316 315 315 312 312 309 309 308 311 315 315 312 312 313 314 313 311 310 310 312 314 312 311 318 318 320 317 318 324 323 325 330 323 327 326 328
301 304 302 305 313 313 313 314 314 314 315 315 314 314 312 312 310 309 309 312 314 313 310 311 313 313 313 313 312 312 313 314 313 311 311 316 320 316 322 323 321 325 325 328 326 328 329
302 303 303 304 309 313 314 315 313 313 314 315 314 311 312 311 310 309 310 311 313 312 310 313 313 311 312 312 312 313 314 313 312 312 312 316 315 317 319 325 324 326 327 327 326 326 328
302 302 304 303 307 313 314 314 313 313 314 314 312 314 313 310 310 309 311 309 310 313 312 314 311 311 312 311 313 314 314 313 311 313 316 317 318 319 321 317 323 325 326 326 328 326 325
301 303 304 304 304 313 314 314 313 313 314 314 312 313 312 310 313 311 310 311 311 312 315 314 312 312 311 312 313 315 315 313 313 313 320 320 321 326 325 320 321 324 324 326 326 325 326
299 301 305 304 305 312 314 313 312 313 314 313 312 316 311 311 312 315 313 314 314 313 315 313 313 312 313 314 313 315 316 316 316 314 318 319 321 324 325 324 324 326 325 325 325 326 325
299 301 302 303 304 309 314 313 312 312 313 314 311 315 314 313 313 313 315 316 315 318 316 314 318 315 315 313 314 317 315 318 316 316 318 320 323 321 321 322 323 324 325 324 326 326 326
299 300 301 303 303 307 310 313 312 312 313 313 311 312 314 317 314 316 315 316 316 315 318 318 320 318 316 316 314 314 317 319 320 319 318 319 323 321 322 321 322 323 323 324 324 325 325
298 300 301 302 304 305 310 313 312 312 312 312 313 311 312 316 318 317 318 317 317 316 318 318 319 320 319 317 316 319 317 319 320 320 322 320 323 322 323 320 321 323 322 322 322 322 323
297 299 300 300 302 304 312 313 312 312 312 312 313 312 312 313 314 316 315 317 317 316 316 317 317 318 319 317 318 320 319 314 320 321 320 321 322 321 323 319 324 321 317 320 321 322 322
297 299 299 300 301 303 308 312 312 312 311 312 312 310 312 314 314 315 313 318 311 313 315 312 313 316 315 317 320 321 320 318 314 311 320 321 321 323 324 325 324 323 316 318 321 321 320
297 298 299 300 300 303 306 312 312 311 311 311 312 312 311 313 314 311 315 316 314 313 309 309 307 309 311 316 321 324 324 322 319 316 312 319 321 324 323 322 325 318 316 314 318 321 320
297 298 299 299 300 302 306 312 311 310 311 311 312 312 311 311 311 309 313 316 314 312 314 309 311 312 315 317 322 326 324 322 323 322 317 320 321 323 323 325 323 317 315 314 318 321 314
296 297 298 299 299 301 305 311 310 310 310 311 311 312 311 312 313 309 309 309 311 312 316 310 315 315 317 321 322 321 322 321 322 322 319 320 319 322 321 324 326 315 314 318 317 314 314
296 297 298 299 300 301 304 311 311 310 310 311 311 312 310 310 313 310 309 308 312 313 311 310 314 315 319 319 319 317 319 316 319 321 315 323 321 321 321 322 314 314 314 313 314 314 314

GFSGBSN_850_thetae_012.txt.gz
Theta_e
313 313 316 316 316 317 317 317 316 316 313 313 310 305 307 310 307 307 308 308 306 307 306 309 312 310 309 314 315 316 315 315 317 317 321 321 321 319 323 325 326 327 328 327 326 326 326
312 312 314 316 315 316 316 316 316 314 313 314 313 306 305 309 309 310 310 311 309 307 307 308 311 311 311 314 313 314 316 315 316 318 320 321 322 320 319 321 324 327 327 328 327 326 326
314 311 310 315 314 316 316 316 316 315 315 313 313 309 304 306 308 311 311 311 310 308 307 307 308 310 313 312 312 313 314 316 315 315 316 319 319 321 319 319 322 324 324 327 327 327 326
316 313 310 311 313 314 315 316 316 315 315 314 310 311 307 304 309 310 310 310 311 311 308 307 307 312 312 313 312 312 312 313 313 313 314 315 317 319 320 319 322 326 324 327 327 327 326
317 316 313 310 313 314 315 315 316 316 316 315 313 310 312 304 309 311 311 308 310 310 312 309 307 311 311 312 312 312 312 312 312 312 313 313 314 317 319 320 323 325 327 327 328 326 326
319 316 315 312 312 313 315 315 315 315 315 316 313 310 313 306 308 310 309 309 310 312 311 311 311 310 310 311 312 312 312 312 312 312 312 313 314 317 319 320 323 324 328 325 328 326 326
314 317 316 314 311 314 314 314 314 315 315 315 314 308 311 306 307 310 311 311 310 311 311 311 311 310 312 312 311 311 312 312 312 312 313 313 316 318 318 318 319 322 324 328 325 327 326
312 314 317 315 311 313 313 313 314 314 314 314 314 309 310 305 307 309 310 310 310 311 311 312 311 311 311 311 311 311 311 312 312 313 312 314 315 314 315 317 319 320 324 327 326 326 326
306 311 316 315 312 312 312 314 314 314 314 314 314 312 305 304 307 308 309 310 311 310 310 311 312 311 312 311 311 312 312 311 312 312 312 314 314 314 314 316 318 319 322 326 328 326 326
305 305 311 312 314 312 312 313 314 314 314 314 314 313 304 305 306 307 310 311 310 311 311 310 310 311 311 310 310 311 312 312 312 312 312 313 313 313 315 315 317 319 321 324 327 330 331
303 304 303 309 312 312 313 313 314 314 315 314 314 314 306 304 311 310 311 312 311 310 316 311 311 310 311 310 310 310 311 312 313 312 312 313 313 313 315 317 316 319 321 322 327 330 329
301 304 303 304 308 312 313 313 313 314 315 315 315 316 309 307 309 310 310 310 310 311 314 313 310 311 311 310 310 310 310 311 311 312 312 312 312 313 313 314 315 317 319 323 327 329 333
301 302 303 303 306 305 312 313 313 314 316 315 315 315 314 310 309 309 309 310 311 314 312 314 312 311 310 312 311 310 311 311 312 313 312 313 312 312 311 317 315 319 323 329 331 333 333
300 302 303 304 306 305 309 312 313 313 315 315 315 315 315 309 311 311 308 309 313 313 313 311 311 311 313 312 312 311 312 311 311 312 313 314 313 314 311 315 319 321 322 325 332 333 326
300 302 303 303 304 303 308 312 312 313 314 314 315 316 316 310 310 310 308 310 313 314 313 312 312 313 312 312 313 312 312 312 311 311 314 316 315 313 316 313 319 319 318 319 328 324 325
299 300 302 303 305 301 304 312 312 313 315 314 315 315 315 313 311 310 310 312 312 312 311 311 316 312 312 312 311 311 312 311 312 312 311 312 318 317 316 318 320 321 322 327 326 328 328
300 300 301 303 304 302 304 313 313 315 314 315 313 313 313 313 310 309 311 311 310 311 310 312 313 313 312 312 311 311 310 311 312 313 310 310 312 317 315 323 322 323 326 327 327 327 327
299 299 300 302 303 303 304 310 314 314 314 314 314 313 312 312 311 310 311 311 310 312 311 312 312 313 311 312 311 312 312 313 313 312 313 311 314 319 318 317 321 323 325 326 327 327 325
298 299 300 302 303 304 306 308 314 314 314 314 312 312 312 311 312 311 310 311 310 311 314 313 314 312 311 312 311 311 314 314 312 313 314 311 316 321 320 322 323 326 326 325 324 324 326
297 298 299 301 303 304 304 308 315 313 313 313 312 315 311 310 311 312 312 313 312 311 312 313 314 312 312 311 311 314 314 315 313 313 314 319 321 318 326 325 323 326 325 324 325 326 325
297 298 299 301 302 302 304 307 314 313 313 314 311 314 312 312 311 312 313 313 314 313 314 314 313 312 312 313 313 313 314 316 316 312 315 314 323 322 323 324 324 325 325 324 325 325 324
296 298 299 300 301 301 303 307 311 313 313 314 311 311 312 315 311 312 312 314 315 313 316 317 315 318 316 314 313 313 314 315 316 316 314 315 321 322 321 320 322 325 324 324 323 323 322
295 297 298 300 301 301 303 305 312 312 312 313 312 312 312 316 317 315 316 315 316 315 313 314 316 314 319 315 314 313 314 315 317 318 319 318 321 322 320 320 321 321 321 323 323 322 323
295 296 298 299 300 300 302 304 309 312 312 313 313 312 312 313 312 316 317 317 317 316 316 316 317 316 319 318 318 319 317 315 314 317 318 319 321 321 320 319 322 320 316 318 320 320 319
295 296 298 299 299 300 301 303 307 311 312 312 313 313 312 314 313 313 313 316 313 313 316 315 317 317 317 317 320 321 320 320 316 312 314 318 321 323 323 323 322 322 316 317 319 320 318
295 296 298 298 299 300 301 303 309 312 312 311 312 312 311 311 312 311 311 317 316 312 311 310 311 314 317 315 321 321 322 321 320 317 314 320 319 323 318 322 324 317 315 314 317 319 314
295 296 298 298 299 300 301 303 306 312 311 311 311 311 312 311 312 311 311 313 315 312 312 309 309 311 314 318 321 321 325 319 322 321 319 321 321 323 322 322 320 316 313 314 319 319 313
294 296 297 298 299 299 301 302 306 311 311 310 310 311 311 311 312 312 311 309 314 312 313 310 313 314 316 319 321 321 320 321 320 318 320 321 322 322 321 323 323 314 313 317 315 314 315
294 295 297 298 299 299 300 302 306 311 310 310 310 311 311 311 313 313 312 310 308 314 312 310 314 316 318 319 319 317 318 315 319 323 318 321 319 321 320 320 315 314 313 314 315 314 314

GFSGBSN_850_thetae_015.txt.gz
Theta_e
317 316 313 307 314 316 315 317 317 316 316 314 313 312 306 305 310 307 308 309 308 307 307 306 310 312 310 312 315 316 315 315 316 317 320 320 321 321 318 321 322 324 325 327 327 327 326
318 318 316 313 308 314 314 316 316 316 316 316 313 314 311 305 308 309 310 311 310 309 306 307 308 312 311 313 309 311 314 315 316 317 319 319 321 321 321 318 319 321 323 325 326 327 326
319 320 318 316 313 308 313 314 316 316 315 316 315 313 311 306 305 308 310 311 311 310 309 307 307 308 311 311 312 313 313 315 315 315 315 319 319 320 321 319 319 321 323 323 324 326 326
315 316 319 318 316 312 312 313 315 315 315 315 315 314 310 310 304 308 310 311 311 310 311 308 307 307 309 310 310 312 313 315 314 315 314 314 315 315 319 320 319 321 324 325 323 323 326
309 312 315 318 317 315 310 313 314 315 315 315 315 315 311 312 306 309 310 311 309 310 309 312 308 307 309 309 311 312 312 313 313 312 312 312 313 314 318 320 320 320 323 324 324 323 325
306 307 312 314 316 316 313 312 313 315 314 315 314 315 311 311 310 307 311 310 310 309 311 311 309 310 310 310 311 311 312 312 312 312 312 313 313 314 315 319 320 319 321 322 324 323 324
305 305 307 310 314 317 315 311 313 314 314 315 315 316 311 311 311 306 310 310 311 311 310 312 312 309 311 311 311 312 312 312 312 312 312 313 313 314 314 316 317 316 318 322 323 322 324
303 304 305 307 311 314 316 313 312 313 314 314 314 315 312 310 309 306 310 310 311 311 311 312 312 311 311 311 312 311 311 312 312 312 310 311 314 312 313 314 317 317 318 319 319 322 324
302 304 304 305 306 309 313 315 312 313 314 314 314 314 313 309 306 307 309 310 310 310 309 311 311 311 312 312 311 312 312 312 311 312 311 312 313 312 313 314 316 317 318 318 319 321 323
302 302 303 304 304 304 309 310 312 313 313 314 314 314 313 307 305 307 308 307 309 310 311 311 310 312 311 311 311 312 311 311 312 311 311 311 310 311 313 314 314 316 315 317 318 321 327
300 301 302 303 305 304 305 308 313 313 314 314 314 314 314 304 307 306 308 309 310 311 313 309 311 310 311 311 311 311 311 312 312 312 312 311 312 312 312 313 313 314 314 316 317 320 323
300 300 300 303 303 303 305 307 310 313 314 314 315 314 314 306 311 309 310 311 311 311 310 312 310 311 311 311 311 311 311 311 312 313 312 311 311 312 312 311 312 314 315 316 318 321 326
299 300 302 302 302 303 304 307 310 312 313 314 315 315 315 306 309 311 310 309 309 312 310 313 311 311 310 311 311 311 311 312 313 313 313 313 312 311 312 314 313 313 315 318 321 323 324
298 299 301 301 301 303 305 306 307 311 313 314 315 315 315 310 308 309 309 309 310 310 311 311 311 309 313 310 312 312 311 312 312 310 311 310 307 311 311 312 313 314 314 319 319 323 325
298 299 300 300 301 302 304 305 306 311 313 314 315 315 314 310 310 309 308 310 308 311 313 312 311 312 313 311 310 312 311 311 309 309 308 310 312 312 311 311 313 314 315 314 321 324 326
298 298 299 300 299 301 304 304 306 311 313 315 315 315 313 312 310 310 309 310 309 311 312 312 315 313 313 311 310 312 311 311 311 309 309 311 313 311 311 311 312 315 315 318 318 328 330
297 297 299 299 300 303 303 304 303 311 313 314 315 314 313 312 310 309 310 310 310 311 311 312 314 315 312 311 310 310 310 311 311 310 309 311 312 313 309 316 314 316 320 318 320 322 329
297 297 298 299 299 302 303 304 303 309 313 315 313 314 311 310 311 309 311 310 310 311 311 311 311 313 313 310 310 309 310 310 312 311 312 311 313 315 314 315 316 315 319 319 322 326 325
296 297 298 299 298 302 303 303 306 309 313 314 313 312 311 310 311 311 310 311 311 311 312 312 313 312 312 312 313 310 312 312 311 312 312 311 314 315 318 319 320 319 321 320 321 322 326
297 297 297 298 299 301 302 303 304 309 313 314 312 313 311 311 311 311 312 312 312 310 311 312 314 313 312 311 311 312 311 314 312 312 312 310 315 318 323 324 323 323 320 321 321 324 324
296 296 297 298 299 301 301 302 303 309 313 313 313 313 311 312 311 312 312 312 314 312 310 312 314 313 312 310 310 312 312 313 313 313 312 310 316 316 315 316 321 323 323 319 319 324 324
296 295 297 298 299 301 301 302 303 308 313 313 311 312 311 311 310 311 312 314 314 313 312 316 315 314 312 312 310 312 314 313 315 313 311 312 317 319 324 322 323 325 324 324 323 324 323
296 295 296 298 299 300 301 301 302 309 313 313 311 312 313 314 312 312 313 313 314 314 313 312 314 314 314 314 314 316 313 313 314 314 313 315 318 323 320 324 323 325 324 323 322 322 321
296 295 296 298 298 300 301 300 303 307 309 313 312 312 311 315 313 314 314 313 313 315 315 314 312 313 316 316 316 317 317 313 316 318 314 315 318 321 320 316 320 317 315 320 322 321 320
296 295 296 298 298 299 300 300 303 307 310 312 313 312 312 314 313 313 312 311 314 315 316 316 316 313 315 317 318 320 319 319 315 313 316 316 318 322 321 320 318 318 315 316 318 319 317
295 295 295 297 299 299 300 300 303 308 311 313 313 313 312 312 313 312 310 314 314 314 311 314 314 314 317 315 319 321 320 320 320 319 314 317 317 320 312 316 322 317 314 313 314 318 313
295 295 295 297 298 299 300 300 303 308 311 312 312 312 311 311 312 312 309 309 314 312 313 309 309 313 316 317 321 320 321 316 322 320 321 321 321 317 319 320 317 316 313 313 319 317 312
295 295 295 297 297 298 299 300 303 306 311 312 311 311 311 311 312 312 311 310 312 312 313 310 313 313 316 318 320 321 319 318 317 317 320 321 322 322 321 322 320 313 313 315 313 313 312
295 294 294 296 297 298 299 300 302 305 311 311 311 311 310 311 312 313 312 312 311 310 311 311 313 314 316 318 316 318 317 314 316 321 316 321 319 320 319 320 314 312 313 314 314 313 311

GFSGBSN_850_thetae_018.txt.gz
Theta_e
317 319 320 319 318 314 310 313 315 316 317 316 316 313 313 307 305 310 307 309 310 309 307 307 308 311 309 311 313 316 315 315 316 320 321 320 319 320 318 318 320 320 322 324 326 327 327
312 315 316 318 320 318 314 310 314 314 316 316 315 315 313 313 305 309 309 310 311 310 308 307 307 310 311 311 310 312 315 315 316 318 318 320 320 319 320 318 317 318 319 321 323 325 326
308 309 311 314 316 319 317 314 311 314 315 315 315 316 314 312 309 305 309 310 311 311 310 307 307 307 311 311 311 311 310 312 314 315 314 318 318 321 321 319 319 319 320 320 320 322 324
305 306 307 310 312 316 318 316 312 313 314 314 314 315 315 312 310 304 308 311 311 311 311 310 307 308 307 307 309 311 313 313 314 315 315 314 315 318 317 319 318 319 319 322 321 321 322
305 305 305 306 306 311 315 317 316 311 313 314 314 315 315 314 311 306 309 310 311 308 310 311 310 307 307 308 309 309 312 313 314 314 314 314 313 314 315 320 319 317 318 319 322 321 322
303 303 304 305 305 306 310 314 318 315 312 314 314 314 314 314 311 308 310 311 311 310 309 311 311 311 311 310 310 310 312 312 312 312 312 312 312 312 314 319 321 319 318 317 319 321 321
302 303 303 303 304 305 307 310 315 316 312 312 314 315 314 314 311 310 309 311 310 310 310 312 312 311 310 312 311 311 312 312 312 312 311 311 312 313 312 314 315 316 315 316 317 319 320
300 301 301 303 304 304 304 306 310 315 313 313 314 314 315 315 311 311 307 310 310 310 310 311 311 311 312 311 311 311 311 312 312 312 310 312 313 311 310 311 314 315 317 317 316 316 319
299 299 301 302 302 303 304 304 306 311 314 313 313 313 314 314 311 310 306 309 310 310 310 310 311 312 311 312 312 312 312 311 311 312 313 312 311 310 312 313 314 314 315 315 316 316 316
299 299 299 301 302 303 303 305 305 307 311 313 313 313 314 312 310 308 308 309 309 309 309 310 310 312 311 312 312 312 311 311 311 312 311 311 310 311 312 313 313 315 314 315 316 316 317
299 298 299 301 301 301 302 304 305 305 307 312 312 314 315 314 308 305 306 308 308 310 302 308 310 310 311 312 311 311 312 312 313 311 311 311 310 311 311 311 312 313 313 314 315 317 316
298 298 298 299 300 302 301 302 304 305 306 309 313 314 315 311 306 306 307 308 310 305 304 312 310 310 310 311 312 311 311 311 312 312 312 310 311 311 310 310 312 313 313 314 314 317 319
298 298 298 299 300 301 301 301 303 304 305 308 313 314 314 312 307 307 310 311 307 302 308 313 311 310 310 312 312 311 312 312 314 314 311 311 312 311 312 313 311 312 313 313 313 315 315
298 297 298 299 300 300 301 301 302 304 305 308 312 315 314 312 309 309 311 309 304 307 310 311 310 310 311 310 311 312 312 312 310 311 313 313 313 310 311 313 314 313 313 313 312 312 313
298 298 298 298 299 299 300 300 304 305 305 309 312 315 314 310 309 311 309 311 309 308 311 311 310 311 311 311 311 312 311 311 309 311 312 312 311 310 310 311 312 312 314 312 314 316 321
298 297 298 298 299 298 299 302 304 305 306 309 312 314 312 312 308 310 309 311 309 312 311 311 312 311 312 310 311 311 309 308 310 309 308 309 308 310 311 310 311 311 311 313 312 317 318
298 297 298 298 298 298 300 302 305 304 305 308 309 313 312 312 307 309 309 310 310 312 311 312 312 314 312 310 309 309 309 309 309 309 308 309 309 311 309 311 312 312 313 313 312 314 326
298 297 297 297 297 298 300 302 302 304 305 307 312 308 311 311 310 308 310 310 310 311 311 311 311 313 313 311 309 308 309 309 310 309 309 309 311 311 311 311 311 311 312 312 315 316 316
297 297 297 297 297 299 300 301 301 303 303 310 312 311 310 311 309 309 310 310 310 311 311 312 312 312 311 311 311 309 309 309 311 311 311 311 314 314 314 312 312 315 313 315 315 316 322
297 297 297 296 297 299 300 302 301 303 306 310 309 312 310 310 309 311 311 312 312 311 311 311 312 312 313 312 309 311 310 312 311 312 312 310 313 315 316 321 318 318 314 316 316 317 318
296 297 296 296 298 300 300 301 301 303 309 311 310 311 310 310 311 311 311 313 312 313 311 311 311 313 314 312 310 310 310 312 312 313 312 310 314 313 314 314 316 319 316 319 320 319 320
296 296 296 296 297 299 300 301 301 304 308 309 312 311 310 310 310 312 312 313 314 313 313 313 312 314 312 312 309 310 312 312 313 313 313 310 313 313 319 319 318 322 320 321 320 316 315
296 296 296 296 298 298 299 300 301 303 305 311 311 311 312 311 311 312 313 312 313 313 312 312 313 314 314 313 312 311 313 311 313 314 313 313 314 317 323 322 322 326 322 320 319 316 315
296 296 296 296 297 298 299 300 301 303 306 307 312 312 313 314 312 312 313 312 312 312 313 313 312 314 313 315 316 316 316 313 312 313 313 315 315 319 322 321 320 317 320 320 319 318 318
296 296 296 296 296 298 299 300 301 303 309 311 312 312 312 314 313 313 313 313 311 312 312 314 314 313 313 313 316 317 316 318 315 314 316 314 317 318 319 318 318 317 314 318 321 321 317
295 296 295 296 296 298 299 300 301 303 306 311 311 311 312 313 313 313 313 310 313 313 312 312 313 313 313 316 319 320 321 318 319 318 313 313 315 318 311 317 322 317 313 312 313 317 313
296 295 295 295 295 297 298 299 300 301 306 310 311 313 313 312 312 312 311 310 313 312 312 310 310 313 316 318 319 319 318 316 319 318 321 320 318 317 316 319 316 314 313 312 319 316 312
295 295 295 295 295 296 298 299 300 302 306 310 312 312 313 311 312 312 312 310 311 312 313 311 313 313 316 317 319 320 320 314 317 316 318 319 320 321 319 319 316 312 312 315 311 312 311
295 295 295 295 295 296 297 299 300 302 306 310 311 310 312 311 311 312 312 312 312 311 312 311 312 313 315 317 315 317 319 314 315 320 314 320 317 319 317 317 313 312 313 314 313 312 310

GFSGBSN_850_thetae_021.txt.gz
Theta_e
308 311 313 314 314 317 318 318 312 312 314 316 316 316 315 313 311 312 309 308 309 308 307 307 307 308 308 310 314 315 315 315 318 321 321 321 319 319 317 317 319 318 320 322 322 324 326
307 307 308 309 311 311 315 317 318 312 313 314 316 317 315 315 313 309 312 308 310 310 308 307 307 310 310 309 308 313 315 316 317 321 322 321 320 318 319 317 317 317 317 318 319 320 322
305 305 306 307 307 307 310 314 317 317 312 313 314 315 314 315 314 311 311 309 310 310 310 308 307 307 311 310 311 309 315 315 316 317 318 318 319 320 320 320 319 318 318 317 318 319 320
304 304 304 305 305 306 306 308 313 315 316 311 314 314 315 316 314 311 306 308 311 312 311 310 308 308 308 308 308 312 310 311 313 315 315 315 318 318 319 318 318 318 317 320 317 318 320
302 302 303 303 303 304 305 305 309 312 315 316 313 312 313 314 315 311 307 307 311 310 308 310 311 309 309 309 308 309 312 312 313 313 315 315 314 313 314 318 320 318 319 318 318 319 321
301 300 300 302 303 303 303 304 304 308 312 315 313 312 314 314 315 311 307 309 311 311 308 310 311 310 310 311 310 309 310 312 312 313 313 312 312 314 315 318 318 317 317 316 317 320 319
301 300 301 300 302 302 303 303 303 304 308 313 314 313 314 314 314 312 307 313 311 309 309 311 312 312 310 311 310 311 310 311 312 311 310 311 313 314 314 312 314 314 316 317 314 315 316
299 300 300 300 300 301 303 303 304 303 306 309 313 313 314 314 315 313 308 311 310 309 310 310 311 312 311 311 311 311 311 312 312 311 309 311 312 310 309 310 312 313 316 316 314 314 315
299 299 299 300 299 300 301 302 303 303 304 305 310 313 314 314 315 312 311 308 310 310 309 309 310 311 311 311 312 312 311 312 310 311 310 311 310 310 310 310 312 312 313 313 314 313 313
299 299 300 299 299 300 300 300 302 303 303 305 307 312 314 314 314 312 311 308 308 309 302 307 310 310 311 311 312 311 311 311 311 312 311 312 311 310 310 311 311 312 311 313 313 314 314
300 299 299 299 298 299 300 301 302 302 303 304 306 310 314 314 313 312 311 307 308 309 301 307 311 310 312 311 312 311 312 311 312 311 310 311 310 310 311 311 311 312 311 313 314 314 313
299 299 299 299 298 299 300 300 300 301 302 302 307 307 312 315 312 312 310 306 309 304 303 310 309 310 312 311 312 311 311 312 312 313 311 310 310 310 310 310 310 312 312 312 313 314 315
299 299 298 298 298 299 300 300 300 301 301 302 306 305 310 313 312 307 306 308 308 304 307 311 309 309 309 311 311 312 312 313 313 314 312 312 312 310 311 311 310 311 314 315 316 315 313
299 299 298 298 298 299 299 298 300 301 304 302 304 307 310 312 312 306 308 308 301 306 308 310 310 310 310 309 311 312 312 311 312 312 313 312 312 312 310 311 312 311 313 314 314 311 310
298 298 298 298 298 299 299 298 300 303 304 305 305 305 308 312 311 307 309 310 306 306 309 310 310 311 311 311 311 311 312 310 310 310 311 311 310 310 310 310 312 313 313 311 313 313 316
298 298 298 298 298 298 299 299 301 303 305 305 304 306 310 312 308 309 309 306 307 310 309 309 310 310 311 311 311 310 309 308 310 308 309 310 307 309 310 310 311 311 311 314 314 314 312
298 297 298 298 298 297 299 299 301 301 304 304 304 305 308 310 309 309 310 310 308 311 311 310 310 312 311 310 310 309 308 307 308 308 309 310 310 308 310 312 312 312 312 312 311 311 313
297 297 297 298 296 297 299 300 301 302 304 304 303 305 309 310 311 308 310 309 309 310 311 310 311 312 313 311 310 307 308 308 308 308 310 309 310 311 310 310 310 310 310 311 313 309 310
297 297 297 297 296 296 299 300 301 302 303 304 308 308 309 310 307 309 310 310 310 311 311 311 312 311 311 313 312 308 308 308 308 308 309 310 312 312 314 310 310 312 311 310 310 312 312
297 296 296 297 296 297 299 300 301 302 304 305 307 306 309 308 308 309 311 311 311 310 311 311 312 311 312 311 310 310 309 310 308 309 310 310 312 313 314 315 312 312 312 311 312 313 313
296 296 296 296 296 298 299 300 301 303 306 309 306 308 306 309 309 309 310 312 312 313 311 311 312 312 314 314 311 311 310 310 311 312 312 310 312 312 312 312 312 314 313 313 312 312 312
296 296 296 296 296 297 299 300 301 303 307 310 310 310 310 309 309 310 311 312 313 312 312 312 313 312 312 314 310 308 309 309 313 313 313 310 310 311 313 315 314 316 314 313 312 312 312
296 296 296 296 296 296 298 300 301 302 303 307 310 310 310 311 311 312 312 313 312 313 312 312 311 312 314 313 312 311 310 310 311 314 314 310 311 315 321 319 317 319 318 314 314 314 316
296 296 296 296 296 296 298 299 301 301 304 306 309 311 311 311 311 312 312 311 312 312 313 313 312 313 313 313 313 312 312 312 310 312 312 314 314 316 320 319 324 320 319 316 315 317 316
296 296 296 296 296 296 298 299 300 302 304 308 311 311 312 313 311 311 311 312 312 311 311 311 313 313 313 313 314 316 314 314 312 311 312 313 316 319 321 319 319 315 320 320 320 319 317
296 295 296 295 295 295 297 298 300 302 304 309 312 312 312 312 313 313 312 313 312 312 312 312 313 312 313 314 316 317 317 316 316 317 311 312 313 318 318 319 321 315 311 317 317 322 316
296 296 295 295 295 295 297 298 299 301 303 307 311 312 312 312 312 312 309 309 313 310 310 310 310 311 312 315 318 318 316 314 317 317 318 316 318 320 317 319 314 313 312 313 318 315 311
296 295 295 295 295 295 296 296 299 300 303 306 309 312 312 312 312 312 312 312 312 311 313 310 311 313 315 317 317 318 317 315 315 314 318 318 319 319 318 318 314 310 312 314 310 311 311
296 296 295 295 295 295 295 296 298 299 302 307 310 310 311 311 312 312 311 311 311 312 311 311 312 312 315 315 315 315 319 313 313 315 312 317 315 316 315 314 311 312 312 313 312 311 310

GFSGBSN_850_thetae_024.txt.gz
Theta_e
306 306 305 305 307 308 309 312 314 316 318 311 313 314 317 316 314 313 308 309 308 308 308 307 307 310 308 312 315 315 315 316 317 321 322 321 319 318 317 316 317 319 318 321 321 320 321
304 305 305 306 306 306 307 308 308 312 316 317 314 313 315 317 315 314 311 311 308 309 309 308 307 310 310 307 308 309 315 316 318 321 321 322 320 319 318 317 316 316 317 316 317 318 318
303 303 303 303 304 305 305 306 306 307 313 316 315 314 313 316 316 314 313 309 309 310 310 308 307 308 310 309 310 310 315 316 318 321 321 321 321 319 319 318 318 318 317 316 316 317 317
302 302 302 303 303 302 303 304 305 305 307 311 314 313 313 314 315 314 313 309 309 311 311 310 310 309 308 309 308 311 312 315 315 317 315 314 318 318 319 318 317 318 317 318 315 316 317
302 301 302 301 302 302 301 302 303 303 304 307 310 314 313 314 314 316 313 308 308 311 311 309 311 310 309 310 309 308 311 311 313 313 315 315 313 313 315 316 317 318 318 318 316 315 317
301 300 301 300 301 301 301 301 302 302 302 304 306 312 313 313 314 314 313 307 309 312 309 310 311 311 311 311 309 308 309 311 312 313 314 314 313 313 313 315 315 316 318 317 317 316 314
301 300 300 300 300 300 300 300 301 302 302 303 303 308 313 313 314 315 312 309 311 310 309 309 311 311 310 311 310 310 310 310 311 311 311 311 313 315 314 312 313 314 316 317 316 315 315
301 301 300 300 300 300 300 300 301 301 301 303 303 306 310 313 314 315 312 310 311 309 309 309 310 312 311 311 311 311 310 311 311 311 309 310 311 311 310 311 313 313 314 314 312 312 313
301 300 301 300 300 299 299 300 300 301 302 302 303 304 308 313 315 315 313 308 310 310 308 308 309 310 312 311 312 311 311 311 310 309 309 310 310 309 310 310 311 312 311 310 310 310 311
300 300 300 300 299 299 299 299 299 300 301 301 303 303 306 311 313 314 311 309 309 309 299 304 309 310 310 311 311 312 311 311 310 310 309 311 310 310 309 310 309 311 309 311 312 312 312
300 300 300 299 299 299 299 299 300 301 301 301 301 302 304 307 309 313 311 309 308 307 301 307 310 311 311 310 311 311 311 311 312 312 311 312 310 310 312 310 309 311 310 311 312 312 312
300 300 299 298 299 299 299 300 299 299 300 301 302 301 302 304 312 314 312 309 307 300 304 310 309 311 312 311 312 311 312 311 312 312 311 310 309 309 309 309 309 310 310 311 312 313 315
300 299 299 298 299 299 299 299 300 300 300 300 303 301 302 304 310 313 311 308 306 304 306 310 310 309 310 311 311 312 312 313 314 314 312 312 312 311 310 310 310 311 314 315 315 315 313
301 300 298 298 298 299 299 299 300 300 300 303 304 302 302 303 306 311 307 304 304 306 307 309 308 309 309 309 311 311 312 312 312 313 313 310 309 311 310 310 310 311 312 314 315 310 308
298 298 298 298 298 299 298 299 301 301 303 304 304 303 305 303 306 308 307 308 306 305 309 310 309 309 310 310 311 311 312 311 310 311 313 313 309 309 310 309 310 313 313 311 314 314 316
299 298 298 298 298 298 297 300 301 301 302 305 304 305 304 304 308 308 307 307 307 308 308 308 310 309 311 311 311 312 310 306 309 309 307 308 311 307 309 310 310 312 310 313 313 315 315
298 297 297 297 297 297 297 300 301 302 303 304 304 305 307 308 305 308 309 307 307 310 309 309 309 310 310 311 311 310 307 306 307 307 307 309 310 308 310 311 311 313 314 313 312 313 310
297 297 297 297 297 297 298 299 301 301 302 305 304 305 309 308 307 308 310 308 309 310 310 310 310 311 310 310 310 309 307 307 307 307 309 309 310 311 308 309 309 310 311 311 312 308 309
297 297 297 296 297 297 298 299 301 301 302 304 306 306 309 306 307 309 309 309 310 311 310 310 310 311 311 312 312 309 307 307 307 308 308 309 311 312 311 310 310 311 311 310 310 310 308
296 296 296 297 297 296 297 299 301 302 302 306 305 306 308 307 307 309 309 310 310 310 311 310 312 311 311 313 311 311 308 308 307 308 309 309 312 312 313 313 310 312 311 311 311 312 310
296 296 297 297 297 297 297 299 300 301 304 307 307 304 305 306 308 309 308 309 310 312 310 310 312 312 312 315 312 312 308 309 309 309 310 310 312 311 312 312 310 312 312 312 312 310 310
296 296 296 296 297 296 297 298 300 301 305 308 308 309 308 307 308 308 310 310 310 312 311 312 312 311 312 314 311 310 309 308 309 312 312 311 311 312 312 312 313 313 314 313 311 311 311
296 296 297 296 296 296 296 298 300 301 303 304 306 310 310 309 309 310 310 310 311 311 311 312 311 312 313 313 311 312 310 309 310 312 313 312 311 314 316 314 314 318 314 313 312 311 311
296 296 296 296 296 296 296 298 299 301 303 304 306 310 310 311 310 310 311 311 311 312 313 312 312 312 312 312 313 312 311 309 309 310 311 314 312 314 317 318 324 319 318 313 313 313 311
296 296 296 296 295 296 296 298 298 301 302 305 309 311 311 310 311 311 310 310 311 311 312 312 312 312 313 313 314 313 314 312 311 311 311 312 315 318 321 320 319 317 319 316 315 315 312
296 297 296 295 295 295 295 296 298 300 302 307 311 311 312 310 309 310 310 312 313 312 312 312 312 312 313 314 315 315 314 313 315 315 309 311 312 316 317 320 321 314 310 316 316 322 316
294 295 296 295 295 296 296 295 297 299 302 306 310 311 311 311 311 312 311 312 312 311 311 310 310 310 311 314 317 313 316 314 317 316 317 316 316 318 320 318 314 312 310 316 321 317 309
295 295 297 295 295 295 295 295 297 298 301 305 310 312 312 312 312 312 311 311 312 310 310 309 311 311 312 316 317 316 315 312 314 312 315 314 316 318 317 317 314 310 312 313 310 310 311
295 295 296 295 295 295 295 294 297 298 301 304 308 311 311 311 311 312 312 312 311 312 311 310 312 312 312 316 314 316 319 313 312 314 311 315 313 314 313 312 309 312 311 313 311 310 309

GFSGBSN_850_thetae_027.txt.gz
Theta_e
304 304 304 304 304 303 305 306 306 307 307 311 314 314 314 314 317 315 314 312 308 308 308 308 307 308 307 311 315 314 315 315 318 322 322 321 319 317 317 316 317 319 318 319 320 319 319
304 304 303 303 303 304 303 304 305 305 305 307 311 314 315 314 314 317 314 313 308 308 309 309 307 309 309 306 308 311 315 315 317 321 321 321 320 318 317 316 316 316 316 316 317 317 317
303 303 302 302 303 302 303 303 303 303 304 304 306 310 313 315 313 316 314 313 311 309 310 309 307 307 309 310 309 310 311 315 319 321 320 320 320 319 318 318 318 318 318 317 316 317 317
302 302 302 302 302 302 301 302 302 302 304 303 304 307 310 313 313 315 316 313 311 309 310 310 311 310 309 309 308 309 312 316 319 320 319 318 319 319 319 318 316 318 317 318 315 316 316
301 301 302 301 302 302 302 302 301 300 302 303 303 302 306 311 313 314 316 314 309 309 312 311 311 310 310 310 310 308 310 314 314 316 314 314 315 315 316 317 316 317 317 318 317 315 317
302 301 301 301 301 301 301 301 301 301 302 301 302 303 303 308 313 314 316 313 308 311 311 309 310 310 310 310 309 308 310 311 312 311 313 314 313 313 313 316 315 315 317 316 316 315 314
302 302 301 301 301 301 300 300 300 301 301 301 302 303 302 305 311 314 315 311 309 310 309 309 309 310 310 310 310 310 308 311 312 312 312 311 313 313 314 312 313 314 315 315 315 315 313
302 302 302 301 301 301 301 300 300 300 300 300 302 302 303 304 308 313 315 310 309 309 309 310 309 311 310 311 311 311 309 311 311 311 308 311 312 311 312 313 313 314 315 315 313 312 312
302 302 302 301 300 300 300 300 299 299 299 300 301 302 302 303 306 311 314 313 311 310 307 307 309 309 311 311 311 311 310 311 310 309 309 311 310 309 311 311 312 312 314 313 312 311 310
301 301 301 301 300 300 300 299 299 299 300 300 301 301 302 302 304 311 312 312 311 311 299 304 308 309 309 311 310 311 310 310 310 311 309 310 310 310 309 311 311 312 310 311 311 311 311
301 302 301 300 299 300 299 299 300 300 301 300 301 301 303 302 304 307 311 309 310 308 299 306 309 310 310 310 310 311 311 311 311 311 310 311 310 310 311 310 308 311 309 310 311 312 311
300 301 301 300 299 299 299 300 299 299 301 300 301 301 302 302 302 305 309 309 309 305 301 311 309 311 312 310 311 310 311 311 311 312 311 309 309 309 309 309 309 310 310 311 312 313 315
300 300 300 299 299 299 299 300 299 300 300 301 302 303 302 303 303 305 309 307 306 303 306 310 310 311 311 311 312 312 312 313 313 314 312 311 313 311 309 310 309 310 313 315 316 316 314
299 299 299 298 298 298 299 299 299 301 301 301 303 304 304 303 302 308 308 306 304 306 307 308 309 310 310 311 311 311 312 313 312 312 314 313 309 311 311 311 311 311 312 315 314 313 311
299 299 298 298 298 298 298 298 300 300 303 303 304 304 304 302 303 304 306 309 306 306 309 309 309 309 309 309 309 311 311 311 311 312 314 311 310 308 309 309 310 312 312 311 313 312 315
298 298 298 298 297 298 297 298 299 301 301 304 303 303 303 304 304 303 304 308 306 307 308 308 310 308 309 310 310 311 310 307 310 309 310 309 309 306 308 309 310 312 310 313 312 314 314
298 298 298 297 297 297 297 298 299 301 302 304 304 304 305 304 304 304 308 307 308 308 308 308 309 309 309 311 310 311 308 306 306 307 308 308 308 307 309 310 310 312 313 313 311 313 313
297 297 297 296 297 297 296 298 299 301 302 302 302 306 305 306 304 303 309 307 310 309 309 309 309 309 309 309 310 310 308 306 306 306 309 308 309 308 307 308 309 309 311 311 314 313 312
297 297 297 297 297 297 297 297 299 301 301 303 303 306 306 307 307 308 308 309 310 310 309 310 310 310 310 309 310 308 307 306 307 307 308 308 310 309 309 309 309 311 311 311 311 312 313
297 297 296 297 296 296 297 297 299 300 302 306 305 307 305 306 306 308 309 309 310 310 310 310 311 310 310 312 310 310 308 308 306 307 309 308 310 310 312 313 312 312 312 311 311 313 312
297 296 297 296 296 297 296 296 299 301 304 307 306 304 304 306 307 308 308 309 310 310 310 310 311 311 311 313 311 311 308 308 307 308 309 309 312 311 311 311 311 311 312 311 312 311 312
297 296 297 297 296 297 296 297 298 300 304 306 308 308 307 306 308 308 309 308 309 311 310 311 311 311 311 314 311 309 309 308 309 307 309 310 312 312 312 312 313 313 315 313 311 311 311
296 296 297 297 297 296 296 296 298 300 302 303 304 308 309 307 308 309 308 308 308 310 310 311 311 311 312 311 311 311 312 309 309 311 311 313 312 314 316 315 316 318 317 314 312 311 311
297 297 297 297 297 297 296 296 297 298 301 302 304 305 309 311 309 309 309 311 311 310 312 312 311 312 312 312 312 312 312 311 308 309 309 312 313 313 315 318 324 320 316 316 313 313 312
297 296 296 297 296 296 296 296 294 297 301 303 305 307 310 310 310 309 310 310 310 311 312 312 312 312 312 313 313 312 312 312 309 309 309 310 313 317 319 319 318 315 313 316 314 316 312
296 296 295 296 296 295 296 295 290 296 301 303 309 309 311 308 309 310 309 310 311 310 311 311 311 311 313 314 314 316 309 311 312 313 308 311 312 316 316 320 320 315 311 315 315 320 314
296 296 294 296 296 295 296 294 293 297 301 304 310 310 311 310 309 310 309 311 312 311 312 311 311 310 312 313 314 314 312 311 314 314 313 315 315 315 317 321 314 311 309 315 317 315 308
295 295 295 295 295 295 296 291 295 298 300 303 308 310 311 311 311 311 310 311 311 311 311 309 311 311 312 313 315 313 311 311 313 311 312 312 314 319 317 317 314 310 314 316 310 310 309
295 295 295 295 295 295 294 290 295 297 299 301 306 310 311 311 311 312 311 311 312 312 311 310 311 311 311 314 314 314 315 311 310 314 310 314 311 313 313 312 309 311 310 312 310 309 309

GFSGBSN_850_thetae_030.txt.gz
Theta_e
304 304 303 304 303 303 303 303 303 304 304 306 306 307 312 313 314 314 317 314 313 307 308 308 308 308 307 314 316 315 314 315 317 323 323 321 320 320 320 319 320 320 319 319 320 321 320
304 304 303 303 303 303 303 303 303 302 303 303 305 305 308 311 313 314 315 315 313 310 308 309 308 308 310 309 309 313 314 315 318 322 323 322 321 319 319 319 319 318 319 319 319 319 319
302 303 303 303 303 303 302 302 303 302 302 301 303 304 304 307 311 314 314 316 313 312 308 310 308 308 310 312 309 309 310 314 317 322 321 321 320 319 320 320 319 319 320 319 319 318 319
303 303 303 303 303 302 302 302 302 302 302 302 302 302 303 304 308 313 314 316 313 311 309 310 310 310 311 309 309 310 310 316 318 319 321 320 320 320 319 319 318 319 319 321 319 318 318
303 304 303 302 302 302 302 302 301 302 301 302 302 302 302 304 304 310 313 315 314 310 310 311 310 310 312 310 309 308 311 315 318 317 317 318 319 317 318 320 319 319 321 320 320 317 318
304 303 302 302 303 302 301 302 300 301 301 301 301 300 302 301 302 308 313 314 314 310 312 311 310 310 310 311 309 309 310 313 314 315 314 314 314 315 315 318 321 319 319 318 318 317 317
303 302 303 303 303 302 301 301 301 301 300 300 300 300 301 303 303 306 312 316 311 312 310 311 311 310 310 310 309 309 311 311 313 314 316 314 316 316 315 314 316 316 317 318 316 316 316
302 303 303 302 302 301 301 301 300 300 300 300 300 300 301 301 303 303 308 311 310 311 311 310 311 310 311 311 311 311 311 312 313 315 314 314 314 314 313 314 314 314 316 316 315 314 314
302 303 302 302 302 301 300 300 300 300 301 299 300 300 301 301 302 302 303 311 311 310 311 310 310 310 311 311 312 312 310 311 313 314 314 315 313 311 313 313 313 313 313 314 315 314 313
301 301 301 301 301 300 299 300 300 301 300 299 301 301 302 302 302 304 306 309 309 311 312 309 310 310 310 311 312 312 311 312 312 313 313 314 312 311 312 313 313 315 312 312 313 313 315
300 301 300 300 299 299 299 299 300 301 300 300 301 300 301 302 303 303 307 308 309 310 317 308 309 310 310 310 311 311 311 311 313 312 312 313 312 313 312 312 312 313 311 311 312 313 313
300 300 299 299 299 298 299 299 300 300 300 301 301 302 303 301 302 302 305 309 309 310 313 310 309 311 311 310 311 311 311 311 311 312 312 312 311 311 312 311 311 311 312 312 312 313 316
299 299 299 298 298 298 299 299 299 299 301 301 301 303 302 304 302 302 304 305 309 316 308 310 310 312 311 310 312 312 313 313 314 314 314 312 313 311 310 312 311 311 314 314 316 316 315
299 298 298 298 298 298 298 298 298 300 301 301 304 303 303 303 302 301 305 306 314 309 310 309 310 312 312 310 311 312 313 314 312 312 314 315 316 313 312 312 312 312 312 315 315 315 314
299 299 298 297 298 298 298 298 299 300 300 301 302 303 304 304 305 305 305 310 313 309 309 310 310 311 311 310 311 311 312 312 312 312 313 315 313 310 311 311 311 312 314 313 314 314 315
298 298 297 297 298 297 297 297 299 299 300 301 303 303 303 304 303 304 305 311 308 309 309 310 311 310 310 310 312 311 311 310 311 311 311 312 313 309 310 311 311 312 311 313 314 313 313
298 298 297 297 297 296 296 298 298 299 300 301 302 302 303 303 303 303 310 309 310 309 309 310 311 311 311 311 311 311 312 309 310 310 311 311 310 310 310 311 312 311 313 314 312 313 313
298 298 298 297 297 296 297 297 298 300 301 302 302 304 303 303 305 305 310 310 309 310 310 310 310 311 311 311 311 312 311 309 308 309 311 310 310 310 311 310 310 310 311 311 314 314 313
297 297 298 297 297 297 298 297 298 300 301 305 302 305 304 304 309 310 308 311 310 311 310 311 312 312 310 312 313 311 310 308 307 309 311 310 311 312 314 313 311 311 311 311 312 313 314
298 297 297 298 297 297 297 296 298 300 304 305 304 306 305 304 307 309 311 311 311 310 311 311 311 311 312 312 311 311 310 309 308 309 309 309 311 312 314 316 315 314 313 312 312 314 314
298 297 297 297 297 297 297 296 298 299 305 307 306 305 305 308 308 309 310 311 311 312 311 311 312 312 312 313 312 312 310 310 309 308 309 310 312 312 312 312 313 313 313 313 313 312 314
298 297 297 297 297 297 297 296 297 299 303 305 306 308 306 307 307 309 310 311 312 311 312 312 313 312 312 313 311 312 311 311 311 310 311 311 312 312 313 313 314 315 315 316 315 314 313
298 298 297 297 297 297 296 296 295 297 301 302 303 307 308 308 309 310 310 310 311 311 311 311 311 312 312 312 311 312 310 310 309 311 311 312 312 313 315 314 315 320 319 317 315 313 314
297 297 297 296 296 296 296 296 291 297 301 302 303 305 309 309 310 309 310 310 310 310 311 312 312 312 312 312 311 312 312 312 312 312 311 313 313 312 314 315 322 320 316 315 318 315 315
297 297 297 296 296 296 295 296 290 297 300 302 304 305 309 310 309 310 310 312 311 311 311 311 312 312 312 312 313 313 313 312 313 312 313 312 313 315 316 320 317 317 317 317 315 318 315
296 296 296 296 296 295 296 296 290 298 300 304 307 307 309 310 310 309 311 310 311 311 312 311 311 311 311 313 314 316 315 313 315 315 310 312 312 314 314 319 320 317 314 314 316 321 312
295 295 295 295 296 295 296 294 291 297 299 303 308 308 310 311 309 309 311 311 311 311 313 312 311 311 312 313 314 316 315 313 317 317 314 315 314 315 315 318 319 315 312 315 319 317 312
295 295 294 294 295 295 294 290 291 296 298 302 306 306 308 310 310 310 310 311 311 311 313 311 311 311 312 313 314 315 315 315 316 315 316 316 317 317 316 319 320 313 315 319 315 312 311
295 293 294 294 293 293 293 291 293 293 295 301 305 308 311 310 310 311 310 310 311 311 311 311 312 311 312 312 313 314 315 314 316 317 313 318 316 317 318 319 315 312 314 312 310 310 309

GFSGBSN_850_thetae_033.txt.gz
Theta_e
304 304 304 304 304 304 304 304 304 303 303 303 303 303 305 307 310 313 314 314 316 314 310 308 309 308 308 316 317 317 316 317 320 323 324 322 321 320 321 320 320 321 322 320 321 322 322
304 304 304 304 304 304 304 304 304 303 303 303 303 303 304 305 306 311 313 314 315 314 311 308 309 308 313 312 313 316 315 316 320 323 324 323 323 321 321 321 321 320 320 320 320 320 320
304 304 305 304 304 303 304 303 303 303 303 303 303 303 303 302 304 307 312 314 314 314 312 308 309 309 313 314 311 311 314 317 321 322 323 323 322 321 321 321 320 320 322 321 321 320 320
305 305 304 303 304 303 303 302 303 302 302 303 303 302 303 302 303 304 308 313 314 315 312 308 310 312 312 312 312 310 312 316 318 322 323 323 321 320 320 320 320 320 321 323 321 320 320
305 304 304 303 304 304 304 303 302 302 302 302 302 302 302 301 302 303 305 311 314 316 312 309 310 313 314 311 310 310 312 316 317 319 321 322 321 320 320 321 321 321 323 323 322 320 320
304 304 304 304 303 303 303 303 302 302 302 301 301 300 300 300 302 302 303 308 313 315 311 311 312 312 311 312 312 311 312 316 316 318 319 319 319 318 318 322 324 323 323 322 321 320 319
303 304 304 303 303 303 303 303 301 301 301 301 300 300 300 300 302 302 304 307 312 314 313 313 313 312 312 312 311 311 312 316 315 316 316 315 317 318 319 320 320 318 319 320 319 318 318
303 303 303 302 302 301 301 300 300 300 301 301 301 300 300 300 301 301 304 303 309 310 311 312 312 312 312 312 312 311 312 314 315 316 315 316 318 317 316 316 316 317 318 318 317 316 316
302 301 301 301 301 301 299 299 299 300 300 301 300 300 301 301 301 301 304 304 307 310 313 312 312 312 312 312 313 311 312 313 315 315 315 317 316 313 315 315 316 316 316 315 315 315 315
301 301 301 300 299 299 300 300 300 300 300 300 300 301 302 301 301 304 305 304 306 310 312 312 312 311 312 312 313 313 312 313 313 314 314 315 314 313 314 315 315 316 315 314 314 315 318
300 301 300 300 299 299 299 299 299 299 300 300 301 301 302 301 301 303 305 306 306 308 319 312 311 311 311 312 312 313 312 312 313 314 314 315 314 314 314 314 313 314 313 313 314 314 314
301 301 300 299 298 299 299 298 299 299 300 300 301 301 304 303 302 302 304 306 305 308 319 311 310 311 312 311 312 312 312 312 312 313 313 314 312 313 314 313 313 312 312 312 313 313 316
300 300 299 299 299 298 298 298 299 299 300 300 301 303 303 304 303 303 303 305 309 314 310 312 311 311 312 311 312 313 313 313 314 315 315 313 313 312 312 313 312 312 314 316 317 317 316
300 299 298 298 298 299 298 298 298 299 300 300 302 303 305 303 304 303 305 305 314 313 312 310 312 311 312 310 312 312 312 313 312 313 314 314 318 314 312 312 313 312 313 316 316 317 316
300 299 298 298 298 298 298 298 298 299 300 301 301 303 304 305 304 302 305 309 315 312 310 311 312 313 313 311 312 313 313 313 313 312 315 316 315 312 313 312 312 313 314 312 314 313 314
300 299 298 298 298 298 298 298 298 299 300 302 302 303 303 303 303 302 307 307 311 310 310 312 312 311 312 311 313 312 312 312 312 312 312 314 315 312 312 312 311 312 313 314 314 315 315
299 298 298 299 298 298 298 297 298 300 301 304 303 304 303 304 304 304 310 311 311 310 310 312 312 311 310 311 313 312 313 312 312 312 312 311 312 312 310 312 313 312 313 313 313 315 316
299 298 298 298 298 298 298 297 299 300 302 304 302 304 304 304 306 307 311 311 310 310 311 311 312 312 312 312 314 314 314 312 310 311 312 311 310 312 312 311 311 312 312 312 315 314 315
299 298 298 298 297 298 298 297 298 302 304 304 303 303 303 305 310 311 309 311 310 311 312 312 313 312 312 313 314 314 313 310 309 311 311 311 311 313 315 313 312 312 312 311 313 314 316
298 299 298 297 298 297 297 297 296 304 305 305 305 305 303 305 308 310 312 312 312 312 313 312 313 312 313 313 313 313 312 311 309 309 309 311 311 312 316 319 316 314 313 313 313 316 315
298 298 298 297 298 297 297 297 294 302 305 307 307 306 306 310 311 311 311 312 312 313 312 313 313 313 314 314 314 313 312 311 310 310 310 311 313 311 312 312 313 314 314 315 314 314 315
298 298 298 297 298 297 297 297 292 301 304 305 305 308 307 308 309 311 311 311 312 313 313 313 314 313 313 314 313 313 311 311 312 311 311 311 313 313 313 312 314 316 315 317 317 317 317
297 297 297 297 297 297 297 297 291 299 302 302 304 306 308 308 310 311 311 312 312 312 312 312 312 313 313 313 312 312 311 311 311 312 311 312 313 313 314 314 315 321 319 318 317 317 317
297 297 297 296 297 296 296 296 291 299 301 302 303 305 308 310 310 310 311 311 311 311 312 312 312 313 313 312 312 312 312 312 312 311 310 312 313 313 314 315 322 319 317 317 317 317 315
296 296 296 296 295 296 296 296 291 297 300 304 305 305 308 310 310 309 310 311 311 311 312 313 312 312 312 313 314 314 315 313 313 313 313 311 312 313 316 315 316 318 318 318 318 319 315
296 294 294 295 295 296 296 294 291 294 298 304 307 306 307 311 311 310 311 311 313 313 313 312 311 311 311 313 314 317 317 314 316 314 312 312 313 313 314 317 318 318 316 314 317 322 315
295 295 293 292 294 291 293 291 291 292 295 303 305 305 308 311 312 310 311 312 311 312 313 312 312 312 311 314 315 315 315 313 316 316 316 315 315 315 315 316 316 317 315 317 321 319 315
296 295 294 291 294 293 294 294 295 295 293 301 304 305 307 309 312 311 311 312 312 312 313 312 312 311 312 314 315 315 315 315 315 315 317 316 316 316 315 318 319 316 317 319 318 315 314
295 295 294 293 294 293 294 294 295 295 294 299 304 306 308 308 312 310 310 311 312 313 313 312 314 312 312 312 313 314 316 314 315 316 316 318 317 318 318 318 318 317 316 315 314 313 312

GFSGBSN_850_thetae_036.txt.gz
Theta_e
305 305 305 306 307 306 305 305 304 304 304 304 304 305 304 303 304 307 308 312 314 315 315 312 307 309 306 316 318 319 317 321 322 323 322 324 320 320 320 319 321 321 321 321 322 322 321
306 306 306 306 305 304 305 305 304 304 304 304 304 304 304 304 303 304 305 308 313 315 316 312 308 308 309 313 314 316 315 316 318 322 323 323 321 320 321 320 319 320 320 320 320 320 320
306 306 305 305 305 305 305 305 304 303 304 303 303 303 303 303 303 303 303 306 311 314 316 313 308 309 313 314 312 312 314 316 320 321 323 324 323 321 321 321 321 320 320 320 320 320 320
306 305 305 304 305 305 304 303 303 303 303 302 303 302 303 302 302 303 302 304 308 315 317 314 308 310 313 313 314 313 312 315 318 322 322 323 322 321 321 320 320 321 321 322 320 320 320
305 304 305 305 305 304 304 304 303 303 302 301 301 301 302 302 301 302 303 302 306 313 315 314 309 312 313 313 313 313 312 315 317 321 321 323 321 320 321 321 322 320 321 321 321 320 320
304 305 305 303 303 303 303 302 301 301 301 301 301 301 300 301 300 300 302 303 304 310 312 311 312 312 312 313 312 311 313 317 317 318 321 322 319 320 320 322 322 321 321 320 321 320 319
304 304 302 303 302 301 301 302 301 300 300 301 300 301 300 301 300 301 302 304 307 311 314 312 312 312 312 313 312 311 314 316 317 318 320 320 320 321 319 319 319 322 320 318 317 318 317
303 302 302 302 301 301 301 301 300 300 300 300 300 301 301 301 301 301 301 304 305 307 312 312 314 313 313 312 312 312 314 316 316 319 316 316 316 317 317 319 319 317 317 316 316 316 314
302 302 302 301 301 300 300 300 300 300 299 299 300 300 301 301 301 301 302 303 303 304 311 311 313 313 312 313 313 312 314 314 316 316 316 316 315 316 316 316 316 315 316 315 315 314 313
302 302 302 301 300 299 300 299 299 299 299 300 300 301 301 301 302 303 304 304 304 303 309 314 313 313 313 313 313 313 314 314 314 316 315 315 314 314 314 315 315 316 314 315 315 314 315
301 301 301 300 300 300 300 299 299 299 299 300 300 301 302 303 302 302 304 304 305 304 315 312 312 312 313 313 313 312 313 313 314 314 314 315 314 315 314 314 314 314 313 313 314 313 312
301 301 300 300 299 299 299 299 299 299 299 300 301 301 303 303 304 303 302 303 304 308 314 313 311 312 313 313 313 312 312 312 313 313 313 314 313 313 313 313 313 312 312 312 312 313 313
301 301 299 299 299 299 299 299 298 299 299 300 300 302 303 304 304 303 304 304 306 311 310 312 313 312 312 313 313 313 313 313 313 314 315 313 313 312 312 314 313 313 314 313 315 315 312
300 299 299 299 299 299 299 299 299 299 299 300 302 303 304 303 304 303 303 305 311 313 313 310 312 312 312 313 313 313 314 313 313 312 314 314 315 313 312 313 314 313 313 312 315 315 314
300 300 299 299 299 299 299 299 298 298 301 302 304 303 303 303 303 303 305 307 312 312 310 312 312 312 312 312 313 313 312 312 311 312 314 315 315 313 312 312 313 313 312 311 311 311 309
300 300 299 299 299 298 299 299 299 300 303 304 304 304 304 304 302 304 307 309 310 311 311 311 312 312 311 311 312 313 313 312 312 311 311 314 314 312 313 312 311 312 312 313 312 311 312
299 300 299 299 299 298 298 298 299 301 304 304 303 304 303 304 303 304 308 309 310 310 311 312 311 311 311 312 312 312 311 312 311 312 311 312 312 311 310 311 312 311 312 312 312 314 314
299 300 299 299 299 298 298 298 299 302 304 303 302 304 303 303 304 305 310 311 310 311 311 312 311 311 311 311 312 312 313 312 312 312 312 311 311 309 310 310 310 312 311 310 311 310 312
298 299 299 298 298 297 297 297 299 303 305 304 303 303 304 304 308 310 308 310 310 312 313 313 313 312 311 312 313 314 313 310 311 311 312 311 310 309 313 311 310 311 311 311 311 312 312
299 299 299 298 298 297 297 296 298 303 306 306 305 304 304 305 307 308 311 311 312 312 313 313 312 313 312 313 313 313 312 310 310 311 310 310 312 310 311 314 314 312 312 311 313 314 313
298 298 298 298 298 297 297 296 295 303 306 307 308 307 307 309 310 310 311 312 312 314 313 313 314 314 314 313 313 313 312 311 310 310 310 311 311 310 310 310 310 311 312 313 313 314 315
297 297 297 297 297 297 297 296 293 302 305 305 306 307 308 308 310 311 310 312 313 313 314 314 314 313 313 313 312 313 311 311 312 310 310 310 310 310 309 310 311 311 312 313 316 317 318
297 297 296 296 297 297 296 296 292 299 303 304 305 306 307 309 310 311 312 311 312 312 312 312 313 313 314 313 312 312 312 311 311 311 311 312 311 313 309 312 312 317 316 318 317 317 318
297 296 296 296 296 296 296 296 292 295 300 301 303 304 307 310 310 310 311 312 312 312 312 312 312 314 313 312 312 312 312 312 312 311 311 313 313 313 311 313 319 319 317 316 317 317 316
298 297 296 296 294 294 294 295 292 292 297 302 304 305 307 311 310 310 310 312 311 312 312 313 312 313 312 313 313 314 314 314 313 312 311 311 313 314 313 315 314 314 317 318 317 317 316
298 298 296 295 295 294 294 294 293 295 292 303 304 305 306 310 310 309 309 311 311 312 312 313 311 311 311 313 313 314 316 315 316 313 312 312 312 313 314 316 316 317 315 314 316 321 315
298 297 296 295 295 294 294 294 295 295 291 301 304 305 307 308 312 311 310 311 311 312 313 312 312 312 312 314 314 314 315 313 315 317 313 314 314 314 315 316 313 312 314 316 320 317 314
297 297 296 296 295 294 294 294 294 295 292 299 303 304 305 308 311 311 311 311 311 312 313 312 312 312 311 314 314 314 315 315 315 315 314 314 315 314 315 316 315 314 316 318 315 315 313
297 296 296 295 294 294 295 295 294 295 294 297 303 304 305 307 311 310 311 312 312 313 313 312 313 312 312 313 312 313 315 315 313 316 314 315 314 316 313 313 313 316 317 316 314 312 311

GFSGBSN_850_thetae_039.txt.gz
Theta_e
307 307 307 306 306 306 305 306 306 305 304 304 305 304 304 304 304 304 304 305 306 311 315 317 314 308 307 314 316 318 318 321 323 321 320 323 322 320 319 318 319 318 318 320 320 321 320
307 307 306 305 305 305 306 306 303 304 304 304 303 304 303 303 303 303 302 303 306 309 313 317 314 309 309 314 313 316 316 318 322 322 321 322 322 319 319 318 317 319 319 319 320 320 320
306 305 305 305 306 306 304 304 304 304 304 303 304 302 302 303 303 303 303 303 303 306 312 316 314 308 311 311 312 314 315 316 318 320 322 322 323 321 321 320 320 319 319 318 319 319 318
305 305 307 306 303 304 303 303 303 302 302 302 303 302 301 302 301 301 302 302 302 302 309 315 314 309 311 311 313 314 312 316 320 321 320 322 323 321 321 320 320 319 319 321 319 318 319
305 305 304 303 304 303 302 302 302 302 302 301 301 300 300 301 301 300 300 301 302 302 306 313 313 310 311 311 313 314 311 315 319 321 321 322 322 321 321 320 321 319 319 319 320 318 319
304 303 303 304 303 302 302 301 301 301 300 300 301 300 301 301 301 301 300 301 302 302 305 312 311 310 311 312 312 313 312 314 317 321 321 322 320 320 319 321 321 319 319 318 318 318 318
303 303 303 303 302 302 301 301 301 301 301 301 299 300 300 301 301 301 301 301 304 306 306 312 311 312 312 313 312 312 314 316 317 320 319 321 320 321 318 317 318 318 320 317 315 315 314
302 303 303 302 301 301 301 301 301 300 301 300 299 300 301 300 300 301 301 301 303 303 306 311 312 313 312 312 312 312 315 316 316 318 315 317 318 319 319 318 319 318 317 314 313 313 312
303 303 303 301 301 301 301 300 300 300 300 300 300 300 300 301 302 301 302 302 302 303 306 311 312 312 312 312 312 312 315 316 316 317 316 315 315 315 315 316 318 314 314 314 314 312 310
302 302 302 300 301 300 300 299 299 300 300 300 300 300 301 302 303 302 303 303 304 304 307 312 313 313 312 313 313 313 315 315 315 316 316 315 314 314 314 315 314 315 312 313 313 312 312
300 300 301 300 300 300 300 300 299 299 299 299 300 301 301 303 302 303 303 304 304 303 311 311 313 312 312 313 312 312 314 314 314 315 314 314 314 314 313 314 313 313 312 312 312 311 310
301 301 301 300 300 300 300 300 300 300 299 299 299 300 303 304 303 303 303 303 303 306 309 313 312 313 312 312 313 312 313 313 313 314 313 313 312 312 312 312 312 311 311 311 311 310 307
299 301 300 299 299 299 300 299 300 299 300 301 302 303 303 304 304 304 302 303 303 308 308 312 314 313 313 314 312 312 313 312 312 313 313 313 313 312 311 312 311 313 309 304 312 313 309
300 301 300 300 298 299 300 299 299 301 301 302 303 304 303 303 304 302 303 302 303 312 312 312 313 313 314 313 312 313 313 311 312 311 308 309 309 312 310 311 311 311 310 305 311 311 311
299 300 300 299 299 299 299 299 299 301 304 305 305 303 303 304 302 303 305 303 308 310 312 313 312 313 314 313 313 313 313 312 310 310 310 309 312 312 311 311 311 312 307 308 307 308 302
299 299 301 300 298 299 299 299 299 302 304 303 303 303 303 303 303 303 304 308 306 308 311 312 313 312 314 313 312 312 312 310 311 309 310 313 314 313 313 312 311 309 309 310 304 304 309
299 299 299 299 298 298 298 299 299 303 303 303 302 302 303 303 302 303 304 308 306 310 310 312 311 311 311 312 312 312 311 311 310 309 310 311 312 311 312 311 310 310 312 311 308 308 310
299 299 299 299 296 298 298 297 301 304 303 303 303 301 303 304 303 304 309 310 304 308 311 312 309 309 309 311 311 311 310 310 310 310 311 311 310 310 308 308 309 309 309 308 304 305 307
299 298 297 299 297 297 297 296 299 303 304 303 303 303 303 304 307 308 309 308 307 313 313 313 312 310 309 311 310 311 310 309 311 311 312 310 307 302 309 308 308 310 310 309 308 309 307
299 298 297 297 296 296 297 296 294 303 306 305 304 299 304 305 307 306 309 309 310 312 313 311 310 309 312 313 311 312 310 309 309 311 311 309 309 304 306 310 310 306 311 309 310 313 311
298 297 297 297 297 297 297 295 292 303 306 307 307 304 306 304 308 309 311 310 314 314 313 313 313 312 313 313 312 312 311 309 309 310 309 308 304 307 308 309 307 307 309 310 311 311 314
298 298 296 297 296 294 296 295 293 299 304 305 305 307 306 307 309 309 310 313 314 313 313 312 312 312 311 312 311 312 311 310 310 308 309 308 306 305 304 309 309 309 310 310 310 311 312
298 298 297 297 296 295 293 293 293 293 302 303 304 305 306 307 307 309 310 311 312 311 311 311 312 313 313 312 311 311 310 310 309 308 308 310 306 303 303 309 310 314 312 312 315 316 317
297 298 297 297 296 295 293 294 292 293 298 300 302 304 306 308 307 309 311 311 311 311 311 312 313 312 312 312 311 311 311 311 310 309 308 310 309 309 307 310 316 316 315 315 315 315 315
296 298 297 298 296 295 294 294 294 296 293 300 303 303 306 307 307 308 310 310 311 311 312 312 312 312 312 313 313 312 312 313 311 310 311 311 312 310 312 311 312 315 316 317 316 315 315
296 298 297 297 296 295 294 294 295 295 294 300 303 304 305 307 308 311 309 311 311 311 311 312 311 311 311 311 311 313 313 314 314 313 311 311 311 314 312 314 314 314 314 314 314 317 314
296 298 297 297 296 295 294 295 294 295 295 297 303 303 305 307 310 311 309 310 311 311 312 312 311 311 311 310 311 310 312 312 313 314 312 315 314 313 312 314 311 310 311 315 318 316 313
295 297 296 296 296 295 295 295 295 295 294 296 301 303 304 307 309 311 311 311 311 311 313 311 311 311 310 314 311 310 311 313 314 312 312 313 314 316 315 315 312 311 314 317 314 314 312
295 297 296 296 296 295 295 296 295 296 295 296 300 303 304 305 309 310 311 311 312 313 312 311 313 310 312 311 309 310 313 310 312 313 311 314 311 313 310 311 309 313 315 314 313 311 310

GFSGBSN_850_thetae_042.txt.gz
Theta_e
306 306 306 306 306 307 306 306 305 304 304 304 304 304 304 304 303 304 304 303 304 305 308 313 315 316 308 310 314 320 318 316 322 323 321 320 321 321 319 318 319 318 317 319 320 320 319
306 306 306 309 307 305 304 304 303 304 304 303 303 303 303 303 302 302 302 303 304 304 305 311 314 314 310 312 309 317 317 320 322 322 321 320 321 321 319 318 317 318 319 319 319 319 319
306 306 305 304 304 305 304 303 303 302 302 302 302 301 301 301 303 301 302 303 303 302 303 310 313 313 310 309 313 315 316 318 320 321 321 320 322 320 319 319 319 319 318 318 318 318 318
305 306 304 304 305 304 303 303 302 302 302 301 301 301 301 300 301 301 301 300 300 301 301 306 313 313 311 312 312 315 315 317 318 319 321 320 322 321 320 319 319 318 317 320 317 318 318
306 305 304 303 304 303 303 303 302 302 302 301 301 300 300 301 301 301 301 300 300 299 302 303 309 312 311 310 310 312 312 316 319 320 320 321 322 321 320 318 318 318 318 318 318 317 317
305 304 304 304 303 303 303 302 302 302 301 301 301 299 300 301 301 301 302 300 300 302 302 302 308 309 310 311 311 313 312 314 319 321 320 322 321 321 321 319 321 319 318 317 318 316 316
304 304 303 303 302 303 302 301 301 301 301 300 301 301 301 300 300 300 301 302 302 304 303 310 311 311 312 312 311 313 313 314 318 320 319 320 321 322 322 320 316 317 320 320 315 314 312
303 303 303 302 302 301 301 301 301 300 299 300 300 300 300 300 301 302 302 301 301 303 303 305 309 312 312 312 312 313 313 316 317 319 317 321 321 318 318 319 319 319 318 316 313 313 313
303 302 302 301 301 300 300 300 301 300 300 300 300 300 300 301 302 302 302 302 302 302 304 306 308 311 312 311 311 312 313 316 316 317 314 318 316 316 318 318 320 316 314 313 314 311 310
302 302 302 301 301 300 300 300 301 301 301 299 300 300 301 301 302 303 302 303 302 303 305 307 310 312 312 312 312 312 315 316 316 317 314 314 313 315 316 316 313 315 312 312 312 312 311
301 302 302 301 301 299 300 300 300 300 299 300 300 299 300 302 304 303 302 303 303 303 302 310 311 312 312 313 312 313 315 314 315 316 314 314 314 313 313 314 312 313 311 311 311 310 308
300 301 302 301 300 299 300 300 299 300 301 301 301 302 303 304 302 303 303 303 302 305 305 313 312 313 313 312 312 313 313 313 314 314 312 312 312 312 312 311 311 310 309 308 309 306 305
300 301 301 301 300 300 300 300 300 301 303 304 304 302 304 303 304 303 302 303 300 306 305 311 313 313 312 313 313 314 314 312 312 315 315 313 312 311 311 311 311 309 307 305 304 303 307
299 300 301 301 300 299 299 299 301 302 304 304 304 304 303 303 303 303 302 301 303 308 311 311 312 312 314 312 313 314 313 312 311 309 311 311 310 311 310 311 311 311 307 305 308 310 309
299 300 300 300 298 300 299 300 301 303 303 303 303 303 303 302 302 302 304 301 306 308 310 313 312 315 314 312 313 313 312 311 310 309 309 307 309 311 310 310 309 311 307 307 306 304 302
300 300 299 300 298 299 297 300 302 303 303 302 302 302 303 303 302 303 303 308 306 304 311 312 312 312 314 313 313 313 312 310 310 309 309 310 310 312 312 311 311 308 308 306 298 303 307
299 300 299 299 298 296 295 298 302 302 303 302 302 303 303 302 302 303 306 308 306 307 310 311 311 310 312 311 311 311 311 310 309 309 310 311 308 311 313 310 310 311 311 309 306 305 309
299 298 298 297 298 298 297 298 299 304 302 302 301 300 303 305 302 305 307 306 302 307 310 311 308 310 310 311 311 311 310 309 309 309 311 310 308 303 311 308 308 308 309 306 301 302 303
299 298 298 296 296 297 297 295 293 303 305 303 302 303 304 305 308 305 308 307 306 312 312 312 309 309 309 309 310 310 309 309 309 310 310 309 305 302 308 307 307 309 308 307 306 308 301
298 298 298 297 293 292 290 293 293 302 306 306 304 297 304 306 306 306 306 309 312 311 311 310 308 309 311 310 309 311 309 309 310 311 310 309 306 305 307 304 304 304 309 308 309 311 306
298 299 297 297 295 291 290 290 293 299 305 306 306 302 306 304 309 309 309 311 313 313 311 311 311 312 312 312 312 311 309 308 309 310 309 306 304 305 305 308 305 306 308 308 305 309 307
297 298 298 298 296 292 291 290 292 295 304 304 304 304 305 307 308 307 308 310 312 311 311 311 311 311 310 312 311 311 309 308 309 308 308 306 302 303 304 307 308 307 308 307 308 309 310
295 298 298 297 297 294 291 291 293 296 301 303 304 305 305 306 307 307 308 309 311 310 311 311 311 311 312 311 310 309 309 309 308 307 308 308 304 303 304 307 308 310 310 310 309 309 311
294 298 299 296 296 296 292 293 294 296 297 299 301 304 304 306 306 307 309 310 310 310 311 311 312 311 312 311 311 311 311 309 308 307 308 307 307 305 303 307 311 316 313 312 310 312 313
294 297 299 296 296 296 294 294 294 294 296 298 302 303 305 306 306 307 309 310 310 311 312 311 311 311 312 312 310 310 311 312 311 310 310 310 311 309 307 308 310 314 315 316 315 314 313
293 297 298 296 296 296 295 294 295 294 295 295 302 303 304 306 305 310 309 310 309 310 310 311 311 310 311 310 310 312 314 313 314 313 310 311 311 310 308 312 314 314 313 313 312 316 313
293 296 298 296 296 296 295 295 294 295 295 295 300 301 303 306 309 310 307 309 311 310 310 312 311 311 311 309 310 310 311 311 313 314 315 314 313 311 310 311 311 309 310 315 317 317 313
293 296 297 296 295 295 295 295 295 295 295 294 299 301 302 305 309 311 311 311 311 311 311 311 311 310 310 310 309 309 310 311 312 311 312 313 312 312 312 313 312 310 314 318 314 314 312
295 295 297 297 295 296 295 295 295 295 295 296 297 299 301 303 307 309 311 311 312 312 312 310 312 309 311 309 307 309 313 309 310 311 309 313 309 312 311 311 309 311 314 315 313 311 310

GFSGBSN_850_thetae_045.txt.gz
Theta_e
307 306 307 307 305 305 306 305 305 304 303 303 303 303 302 301 303 303 304 303 302 304 305 305 310 314 313 310 310 320 320 315 318 320 321 322 321 320 319 317 318 317 317 319 320 320 319
306 306 307 305 306 306 305 305 304 303 303 303 303 302 302 302 302 302 302 301 303 303 304 304 308 313 313 310 312 315 317 318 320 319 321 320 321 321 319 317 317 318 318 318 318 318 318
305 306 305 305 305 305 304 303 303 303 303 303 302 301 302 301 301 301 301 301 303 303 304 301 306 311 312 312 310 310 316 318 320 323 321 320 320 321 319 318 318 318 318 317 317 318 317
305 305 305 305 305 304 304 303 303 302 302 303 302 301 302 301 300 302 301 301 302 300 300 301 303 309 313 312 312 315 318 319 318 320 319 320 321 321 319 319 317 317 316 319 317 316 317
305 304 304 304 304 303 303 302 302 302 301 302 301 301 301 300 301 301 301 301 301 300 300 301 304 308 312 312 312 315 315 318 318 320 321 320 321 321 320 318 317 316 317 318 318 316 316
304 304 304 304 303 302 302 302 301 302 301 300 301 301 301 301 301 300 301 301 301 301 301 302 304 310 311 311 312 315 314 315 318 319 320 321 321 319 318 317 320 318 317 316 317 315 314
303 303 303 303 303 302 301 301 301 302 301 301 301 301 300 300 300 301 302 302 301 303 303 303 308 309 312 312 311 311 312 313 318 319 321 320 322 323 321 317 316 315 317 318 316 314 312
303 302 302 303 302 302 300 301 301 301 302 302 301 300 300 300 302 302 302 301 302 301 302 302 305 310 312 312 312 311 313 314 318 320 318 321 322 319 320 320 320 319 318 317 313 312 312
302 303 302 303 302 301 301 301 301 301 301 300 300 300 300 301 302 301 302 302 301 302 303 304 306 310 312 311 312 313 313 315 317 318 318 319 318 318 319 319 320 318 316 314 314 311 309
302 302 302 303 301 301 300 301 301 300 301 301 302 302 299 300 302 303 303 302 301 302 296 306 306 310 311 311 312 313 313 316 316 316 315 315 312 317 317 318 316 315 312 312 311 312 313
301 301 302 302 301 300 300 301 300 302 302 303 304 304 302 301 302 304 303 302 302 302 290 306 310 311 312 312 312 312 315 315 315 315 313 314 313 315 317 316 313 313 310 310 310 308 308
300 302 301 302 301 299 301 300 301 303 304 303 304 303 302 303 301 303 303 302 302 298 305 310 310 311 312 312 313 313 313 314 314 313 312 311 311 311 311 310 311 310 308 306 306 306 306
300 302 301 301 301 300 301 300 302 303 303 303 303 303 303 303 303 303 302 302 297 297 306 310 311 313 311 314 314 314 314 312 315 316 315 312 311 310 310 311 310 308 308 305 304 303 307
299 301 300 300 301 300 299 301 302 303 303 303 303 302 302 302 303 303 302 299 301 307 308 312 313 312 315 313 314 314 312 312 311 311 312 312 314 311 310 310 311 310 308 306 308 307 308
298 300 298 299 298 298 299 301 301 302 302 302 302 301 302 301 302 302 304 304 305 306 306 313 313 314 314 312 314 313 312 312 311 309 310 307 309 310 310 309 309 310 305 306 305 302 302
300 299 298 298 298 299 301 298 301 303 302 302 302 302 302 302 302 303 303 307 306 303 306 310 313 312 313 312 315 312 312 310 310 309 308 308 311 311 311 310 310 309 306 307 298 300 306
297 299 297 297 297 294 297 295 297 304 302 301 301 302 303 304 302 303 305 307 306 307 311 311 310 310 310 310 312 311 311 309 309 309 309 308 308 313 312 310 310 309 308 306 305 304 307
296 298 298 297 297 293 291 293 296 304 304 303 302 297 305 305 300 303 308 307 304 308 310 310 308 309 309 309 310 311 310 309 309 308 310 309 306 313 312 307 307 308 308 305 301 302 306
296 296 296 297 298 295 291 291 295 301 305 305 302 303 306 306 307 307 305 307 307 311 311 311 308 308 308 308 309 308 308 308 308 308 309 308 304 302 306 307 306 309 307 305 304 301 298
296 295 299 295 297 296 291 291 293 299 305 305 305 299 305 307 306 307 308 310 310 310 309 308 307 308 308 310 308 309 309 309 309 309 310 308 304 304 304 304 304 304 308 306 305 302 305
295 294 299 297 296 296 294 291 292 298 305 305 305 303 305 302 307 308 309 311 311 311 310 309 309 310 311 311 311 310 308 308 309 311 308 306 304 304 305 307 304 306 308 307 303 307 304
294 294 298 299 297 295 294 294 291 295 305 304 304 305 305 305 306 306 306 309 310 311 310 311 310 310 309 311 310 310 308 308 310 307 308 305 303 303 303 306 306 307 306 307 307 308 308
293 294 295 299 297 296 294 295 294 292 301 303 304 304 305 304 304 306 307 310 310 310 311 311 310 310 311 310 308 309 308 308 307 307 307 306 304 302 304 305 307 309 308 307 307 307 309
293 295 294 298 297 297 296 294 295 293 298 300 301 302 304 304 303 306 308 310 310 310 311 311 311 310 311 310 311 310 309 307 307 306 307 306 305 304 303 305 310 309 309 308 309 309 308
293 294 293 298 297 296 296 295 295 295 294 297 302 302 304 306 305 306 308 309 310 310 311 311 311 311 311 312 310 309 311 311 310 309 309 309 310 309 309 304 306 312 313 314 312 313 311
294 294 293 297 298 295 296 295 295 295 294 294 301 301 302 305 306 308 308 309 307 307 308 310 310 310 311 308 310 311 312 311 314 313 310 310 310 311 309 309 312 314 312 313 312 315 312
296 294 295 296 298 295 296 295 295 295 295 294 297 300 301 304 307 309 306 308 310 308 308 311 310 310 310 308 309 308 311 311 312 314 314 314 313 312 310 309 309 308 309 314 317 318 313
298 296 296 295 299 296 296 295 295 295 295 295 296 299 300 302 306 309 311 310 311 310 310 310 310 309 308 309 308 308 308 309 310 310 312 313 314 312 311 310 309 309 313 317 314 313 311
297 297 295 295 298 295 295 295 295 295 294 294 295 298 299 301 305 308 309 311 311 311 312 310 311 309 310 310 306 308 311 310 309 311 308 313 309 311 308 308 307 310 311 312 312 312 311

GFSGBSN_850_thetae_048.txt.gz
Theta_e
306 306 308 306 306 305 306 305 305 303 304 304 303 303 303 304 303 302 302 302 303 302 303 305 304 306 312 312 313 319 320 320 309 319 323 322 320 319 317 317 317 317 317 318 319 319 319
306 306 306 306 305 305 305 304 304 303 303 303 303 303 302 302 302 301 301 301 302 302 303 304 304 306 309 312 314 315 314 321 312 320 322 322 321 320 319 317 316 317 318 318 318 318 317
306 306 305 306 304 305 304 303 303 303 303 303 302 302 301 302 301 300 302 302 302 302 302 303 303 305 308 312 313 312 310 318 316 320 322 322 320 320 318 316 318 317 318 316 316 317 317
306 305 305 305 304 304 304 303 303 302 302 302 302 302 301 301 301 301 302 301 301 301 302 302 302 306 309 312 313 314 316 317 319 318 320 321 319 321 318 317 316 316 316 318 316 316 317
304 305 304 303 305 304 303 303 302 302 302 302 302 301 301 302 301 301 300 301 301 301 300 301 303 304 310 312 313 315 316 318 318 318 318 318 319 320 319 316 316 316 316 317 318 315 316
304 304 303 303 305 303 303 302 302 302 301 302 302 302 301 301 301 300 301 302 302 301 301 301 302 305 309 310 312 314 314 317 318 319 319 319 319 319 315 318 318 319 317 316 317 314 314
304 302 304 303 304 303 302 302 301 302 301 301 302 301 301 300 301 302 302 301 301 302 302 302 304 307 311 311 312 314 313 315 318 319 322 320 322 322 319 317 315 314 316 316 315 314 312
302 302 303 303 303 302 302 301 302 302 302 302 302 301 301 300 301 302 302 302 301 301 302 301 302 305 308 312 312 312 312 315 318 319 319 319 322 320 318 318 317 316 317 317 314 311 311
302 301 302 302 304 303 300 302 301 302 303 303 303 303 302 300 300 301 302 302 302 301 302 305 304 307 310 312 312 312 312 315 317 319 319 319 319 319 319 320 321 319 319 316 315 311 308
301 301 301 302 304 301 302 302 302 302 304 303 303 304 304 302 300 303 301 302 301 301 291 305 306 309 310 312 311 312 312 316 316 318 316 315 316 319 319 320 319 319 313 312 311 312 313
298 301 302 302 302 300 301 301 302 302 303 303 303 303 304 302 302 302 302 301 301 302 288 305 308 310 310 312 311 312 313 315 316 316 316 314 317 319 319 319 316 314 310 310 308 308 308
296 299 302 300 301 299 299 302 302 303 303 302 302 303 303 303 302 302 302 301 302 295 301 308 310 309 312 311 313 313 314 314 313 313 312 311 311 312 312 310 311 308 307 306 304 305 306
296 297 301 300 299 300 301 301 302 302 302 302 302 302 303 302 303 302 302 302 295 298 306 310 310 311 313 314 314 314 314 313 316 315 312 312 311 310 310 310 309 309 312 315 304 304 307
295 296 300 299 299 298 300 300 301 302 302 302 301 302 302 302 302 302 302 299 299 306 308 309 311 313 315 314 314 314 313 312 310 311 311 311 316 311 310 310 310 308 309 307 307 308 308
295 296 300 299 298 297 297 297 299 303 301 302 301 301 302 302 301 302 303 299 301 305 305 309 312 314 314 314 314 313 312 311 310 309 312 308 309 310 310 309 309 309 305 306 304 302 302
296 298 299 299 296 293 293 294 298 303 303 301 301 301 303 303 303 303 298 305 304 303 307 310 313 310 312 314 313 313 312 310 310 309 307 308 310 311 310 309 308 308 306 306 298 304 306
297 298 299 298 295 294 292 293 295 301 305 303 303 301 304 305 303 303 305 306 306 306 308 309 309 310 309 312 311 311 310 309 309 308 308 307 308 312 311 310 309 308 306 305 304 304 306
297 298 300 298 298 294 292 291 292 297 305 305 303 298 306 306 303 303 308 308 306 308 310 308 308 309 309 309 310 310 310 309 308 308 310 307 308 313 311 307 306 308 307 304 301 302 306
299 296 300 299 297 295 292 291 291 296 304 305 304 304 306 307 308 308 306 308 308 310 311 308 309 308 308 308 309 308 308 308 308 308 308 306 304 303 310 309 306 308 306 304 302 300 298
297 294 297 299 297 296 293 291 291 295 305 305 305 300 305 307 307 308 310 311 311 310 308 307 307 307 308 309 307 308 308 309 308 309 309 307 304 304 305 305 304 305 307 304 303 301 303
295 294 295 300 299 296 294 292 291 293 304 305 304 303 304 307 308 307 308 310 310 310 309 308 309 309 310 310 310 309 308 308 308 311 307 306 303 303 305 306 303 305 307 305 302 305 303
298 295 295 301 299 297 295 294 291 292 303 304 303 304 304 304 304 306 306 309 310 310 309 310 309 309 309 310 309 309 307 308 309 307 307 304 305 302 302 306 306 306 306 306 305 306 306
299 294 295 300 299 297 296 296 293 291 300 302 302 302 304 305 302 305 306 309 310 309 311 310 310 309 309 309 308 308 307 307 306 306 307 307 303 302 303 305 306 308 307 306 305 306 308
299 298 294 298 298 298 297 296 295 295 294 299 301 302 303 303 302 304 305 309 309 309 311 310 311 310 310 310 309 309 308 307 306 305 306 305 304 304 303 304 308 306 308 306 307 307 306
299 297 294 295 298 298 296 296 296 294 295 295 299 302 303 305 303 305 307 309 308 310 310 310 310 311 311 311 309 309 309 310 309 309 308 307 308 308 308 304 304 311 310 309 310 315 308
298 297 295 295 297 297 298 296 296 295 295 294 297 301 302 304 303 307 308 308 306 306 307 310 310 310 311 307 308 310 310 310 313 312 309 310 307 306 309 309 310 311 312 312 311 317 312
298 298 297 297 295 296 298 295 296 295 295 295 294 298 300 302 305 308 306 307 308 306 306 309 310 310 310 305 309 306 309 310 312 313 312 312 312 311 310 309 307 306 308 313 317 316 312
297 297 297 297 296 295 297 295 295 295 295 294 294 295 298 299 304 307 309 310 309 309 309 309 308 308 306 307 306 306 306 310 309 309 310 310 310 311 310 311 308 308 313 316 313 313 312
298 297 296 297 294 298 297 295 295 295 296 294 294 294 297 298 303 307 309 309 310 310 310 310 310 309 309 308 304 306 311 311 310 313 308 311 308 308 307 307 306 309 309 311 311 312 312

GFSGBSN_850_thetae_051.txt.gz
Theta_e
306 308 307 306 306 306 307 305 305 304 303 304 304 303 303 303 302 302 301 302 302 302 303 302 303 304 305 311 313 315 318 318 315 313 320 320 321 320 320 317 316 317 317 318 318 319 318
306 307 305 306 305 306 305 305 304 302 302 303 303 303 303 302 301 302 302 302 302 302 302 302 303 304 304 309 312 314 313 314 317 317 320 320 320 320 319 317 317 317 317 317 318 318 317
307 305 306 305 305 306 305 304 304 303 302 303 302 302 302 302 301 301 301 302 301 301 301 302 302 303 305 308 312 313 314 314 319 316 320 321 320 318 318 316 317 316 317 317 316 316 317
308 305 306 304 304 304 304 304 303 302 303 303 302 302 302 302 302 302 302 301 301 302 301 302 302 303 305 306 311 312 315 312 319 316 321 321 320 318 317 316 316 317 316 319 316 316 316
305 305 305 305 304 304 304 303 302 302 303 303 302 303 301 302 302 302 300 300 302 302 301 302 301 302 306 309 311 313 314 317 318 318 319 319 320 320 317 316 317 316 317 317 317 315 315
306 303 304 303 304 304 304 302 303 303 304 303 303 302 302 301 300 301 301 302 302 301 302 302 301 304 306 310 311 313 312 316 317 317 317 318 318 319 316 317 319 319 317 316 316 314 314
306 303 304 303 304 304 302 302 304 303 303 304 304 303 303 302 300 301 303 301 301 302 302 301 302 303 308 311 312 312 312 317 317 317 318 318 319 319 319 316 314 315 316 317 315 313 312
301 304 303 304 302 302 301 303 302 304 304 304 303 303 303 303 300 301 301 302 301 301 301 301 301 303 304 308 312 311 312 316 318 320 313 320 319 318 317 315 315 315 316 317 314 311 311
301 302 304 304 302 302 301 302 302 303 304 303 303 303 303 304 301 300 302 301 302 301 301 302 304 304 304 310 312 311 312 315 317 317 312 315 318 318 318 319 318 317 316 315 316 311 308
299 301 303 301 302 300 301 302 303 303 303 303 302 303 304 304 302 302 302 301 301 300 291 305 306 307 310 311 312 312 312 315 316 318 313 314 317 319 320 320 319 321 316 313 312 313 316
299 300 302 301 300 299 301 302 302 304 302 303 302 303 302 302 302 301 301 301 300 302 293 302 307 308 310 312 311 311 312 315 316 316 316 314 319 318 318 319 317 317 311 310 309 309 310
297 300 302 300 301 299 298 300 301 303 302 302 301 302 302 302 301 302 301 301 301 293 299 306 308 308 312 311 312 312 313 313 313 314 313 311 311 314 314 312 314 308 308 306 305 308 313
297 301 303 302 300 299 295 298 300 302 301 302 301 302 302 301 301 301 302 302 295 303 302 311 310 306 312 313 313 314 314 313 315 315 314 312 312 310 311 312 310 309 313 315 309 310 315
297 301 302 302 301 298 295 294 300 302 302 301 301 301 301 302 302 302 302 296 300 306 308 308 307 312 313 312 313 314 313 312 310 311 312 314 315 311 309 310 311 309 312 314 310 310 308
298 300 303 300 302 297 293 292 295 301 304 303 301 301 302 303 302 302 302 299 299 303 306 309 312 314 315 313 313 312 312 311 310 308 312 310 312 309 308 308 309 309 309 305 305 302 307
298 300 301 300 301 298 293 292 292 297 304 305 303 301 304 305 303 302 297 306 306 304 306 310 312 310 313 313 314 312 312 310 309 308 307 308 311 310 308 309 307 309 305 309 304 309 309
298 300 299 301 298 298 294 292 292 294 303 305 304 302 305 306 304 305 306 308 306 307 307 309 309 309 311 311 311 311 310 309 309 308 307 307 309 312 311 310 309 308 308 305 305 304 307
299 298 296 301 299 297 294 293 292 293 302 305 303 299 306 307 303 303 308 307 307 308 309 308 307 308 308 309 309 310 309 309 308 308 309 306 309 313 311 306 306 307 307 304 306 306 304
298 296 295 298 300 298 296 293 292 292 303 304 304 304 306 308 306 307 307 308 308 309 309 307 308 308 307 307 309 308 308 307 308 308 308 306 306 308 311 308 306 309 306 303 302 301 305
297 297 296 298 300 299 296 294 292 292 303 305 304 300 306 307 307 308 309 309 310 309 308 306 307 306 307 308 306 308 308 308 308 309 308 306 304 306 307 306 305 306 306 304 304 305 304
296 299 297 296 300 299 297 295 293 292 301 304 303 302 303 302 306 306 307 308 310 309 308 308 309 308 309 309 309 308 308 308 308 310 306 306 305 303 305 306 303 306 307 305 303 304 306
297 299 297 296 300 298 297 296 293 292 298 303 302 302 304 304 304 305 307 308 310 310 308 309 309 309 309 309 308 308 307 307 308 307 306 304 307 302 303 306 306 307 307 306 305 306 306
298 299 299 296 297 298 298 297 295 292 293 301 301 301 302 304 301 304 306 308 309 309 310 309 308 308 307 307 308 307 307 307 306 306 306 307 304 303 303 305 306 308 307 307 306 305 307
298 299 298 296 296 298 298 297 297 295 294 296 297 300 302 303 301 303 305 307 309 308 310 310 310 309 309 308 308 308 307 306 306 304 305 305 304 304 305 304 307 306 307 305 307 306 306
299 299 298 296 295 297 298 297 296 296 295 293 295 300 302 304 302 303 307 307 308 309 309 309 310 310 310 309 308 308 309 309 309 307 308 306 306 307 308 306 304 309 308 306 308 314 306
298 298 297 297 297 297 296 297 296 296 295 294 294 298 300 302 303 305 306 307 305 306 306 309 310 310 311 305 307 310 310 309 312 311 309 308 305 305 308 309 310 308 311 309 310 317 311
298 297 297 297 297 297 296 296 296 295 294 295 294 294 297 299 302 306 308 306 307 305 304 308 309 309 309 304 308 305 308 309 310 313 311 312 312 309 309 310 306 304 307 312 318 316 312
298 297 297 297 297 296 295 298 297 294 294 296 295 294 295 298 300 303 306 309 308 308 306 308 307 307 305 307 306 305 306 310 310 309 308 310 311 311 310 310 307 306 312 316 313 311 312
299 299 297 296 297 294 297 298 296 293 295 296 295 294 294 296 298 302 305 308 308 309 309 309 309 308 308 307 303 304 310 311 311 313 308 310 305 307 306 306 305 308 309 312 311 310 311

GFSGBSN_850_thetae_054.txt.gz
Theta_e
306 307 306 306 306 305 306 307 305 305 305 304 304 304 303 302 302 302 303 303 303 303 303 303 302 304 305 306 307 314 316 316 318 318 317 319 320 321 322 321 319 319 319 318 318 320 320
308 307 306 306 305 304 306 305 304 304 304 303 304 304 302 302 302 302 302 302 302 302 302 302 302 303 304 306 308 312 315 313 316 318 317 319 319 320 319 320 320 318 318 318 318 319 319
305 306 305 304 305 304 305 305 304 303 303 304 304 303 303 302 302 302 302 302 301 301 301 302 302 303 304 305 309 311 312 314 317 317 316 319 319 319 319 319 319 318 319 318 319 318 318
306 304 305 305 305 304 305 304 302 304 304 304 304 304 303 303 301 302 302 301 300 301 303 301 303 303 303 304 307 311 312 313 315 316 317 320 320 318 318 318 318 318 318 320 317 318 318
306 304 305 304 304 304 304 304 304 304 304 304 304 305 305 304 301 301 302 300 301 302 302 303 303 303 303 306 306 309 312 314 315 317 318 318 319 318 317 319 319 318 317 317 318 318 317
303 306 305 304 304 304 303 304 303 304 304 304 303 304 303 304 301 300 301 302 302 301 302 303 302 303 303 308 307 312 313 314 318 317 318 319 319 320 319 319 318 319 317 317 317 317 318
303 304 305 304 302 302 302 303 304 303 304 305 303 304 303 303 303 300 302 301 302 303 303 302 303 304 306 309 310 313 313 314 318 317 318 317 319 322 320 317 316 317 317 316 316 315 317
301 302 304 303 302 301 303 303 303 303 304 305 302 303 304 304 303 301 301 302 301 301 302 301 302 303 303 305 311 313 312 318 316 318 317 317 320 318 318 318 317 317 316 317 317 314 316
299 300 302 302 301 301 300 302 302 303 304 304 302 302 304 304 301 300 302 302 301 301 302 303 304 304 304 307 312 310 312 315 317 316 317 318 319 318 318 318 318 318 317 318 318 314 312
299 300 302 302 301 301 299 301 302 302 303 304 302 303 302 303 302 301 301 301 301 300 304 303 305 304 306 310 312 312 312 313 316 312 313 312 317 318 318 318 317 319 318 317 316 318 319
299 299 302 302 302 299 297 299 301 301 302 301 301 302 301 302 302 302 301 300 300 301 306 304 306 306 310 312 311 311 312 315 314 313 313 314 316 320 319 319 318 320 316 315 314 316 316
298 299 302 302 301 299 296 297 299 302 302 301 301 302 301 301 301 301 301 300 301 306 308 308 307 308 311 311 313 312 314 313 313 314 314 314 314 315 314 313 316 311 313 311 312 315 320
297 299 301 302 299 297 296 294 293 300 303 301 301 301 302 302 302 302 302 302 308 309 305 309 310 309 312 314 313 314 314 315 316 318 317 313 312 312 312 311 311 314 317 320 319 321 321
297 299 301 302 300 296 296 293 293 295 302 304 301 301 302 303 302 302 302 305 311 308 309 308 309 312 314 313 314 313 310 315 313 314 317 318 317 312 311 314 315 316 317 320 318 316 313
297 299 300 301 300 297 294 293 292 293 299 305 303 302 303 304 304 302 304 311 308 306 306 309 312 313 314 313 314 313 313 315 312 312 316 317 315 311 310 310 314 313 317 309 312 308 313
297 299 298 299 300 299 297 293 292 292 297 305 304 302 305 306 304 303 308 310 308 305 307 310 312 312 314 312 314 314 314 312 311 310 309 312 316 311 309 310 310 313 310 315 314 316 315
297 299 297 297 301 300 299 294 293 292 296 304 304 304 307 307 305 309 310 311 308 308 308 311 311 312 313 313 313 313 312 311 311 310 310 311 314 313 312 313 314 311 313 310 311 310 311
296 298 298 298 300 300 298 296 293 292 295 304 304 311 307 307 309 308 311 308 307 310 310 310 310 311 312 312 313 312 312 312 309 310 312 310 313 315 313 308 308 310 312 310 315 313 310
297 298 299 299 300 300 297 297 293 292 297 304 304 304 307 308 312 310 309 310 310 311 310 309 310 310 309 311 313 311 310 309 309 310 311 310 312 313 312 310 309 311 310 308 308 309 312
296 297 299 298 299 300 297 296 293 292 296 304 304 310 307 308 308 311 311 312 312 310 309 308 309 309 310 310 310 311 311 310 309 311 308 308 309 312 313 313 311 312 310 308 312 315 311
296 296 299 299 298 299 298 297 295 292 297 303 303 304 303 309 310 309 310 311 311 311 310 309 310 310 310 311 311 311 311 310 310 309 308 310 313 309 308 309 309 310 311 309 309 311 315
295 296 299 299 298 298 298 298 297 293 294 302 302 303 303 304 305 308 309 311 312 311 311 311 311 311 310 311 310 311 311 311 311 310 310 308 311 309 310 308 308 310 310 310 309 310 309
295 297 298 298 296 297 298 297 297 296 293 298 300 301 302 305 306 308 310 310 311 311 311 310 310 311 311 310 309 308 308 309 310 310 310 310 310 311 312 308 309 312 310 310 310 309 310
296 299 298 298 297 296 297 297 297 296 295 294 296 299 302 306 306 307 307 307 311 310 312 311 311 311 307 306 307 308 309 309 309 308 308 309 310 310 312 309 314 310 308 309 310 309 309
296 298 298 297 297 298 296 298 296 296 295 294 295 298 301 304 304 306 308 308 309 310 311 311 310 309 309 309 311 311 312 311 311 311 309 309 311 311 313 311 310 311 309 309 310 312 309
297 298 298 297 297 298 297 296 297 296 295 294 294 295 298 301 304 304 306 308 310 311 311 310 310 310 310 310 311 311 311 312 312 312 310 308 309 311 310 311 312 313 312 311 309 319 313
298 298 297 297 297 297 296 295 297 297 295 295 295 295 295 298 300 303 306 308 306 307 311 310 310 310 309 311 312 312 312 311 312 312 312 312 311 312 311 310 310 309 307 312 320 317 312
300 299 299 297 296 297 295 297 298 297 294 295 295 295 294 296 297 298 299 304 308 307 311 309 310 310 310 312 312 312 312 312 311 311 311 311 312 312 311 311 311 307 312 315 314 312 311
299 298 297 296 296 296 296 296 298 296 295 294 296 296 294 293 295 297 300 301 303 307 308 308 310 309 310 312 310 310 311 312 312 313 309 311 310 311 311 310 308 308 310 309 310 310 310

GFSGBSN_850_thetae_057.txt.gz
Theta_e
307 307 306 305 305 306 306 307 307 305 304 305 305 305 304 304 303 303 302 302 302 302 302 303 303 304 305 307 307 309 315 315 318 319 315 317 317 320 322 321 319 319 320 319 320 320 320
305 306 305 306 305 305 306 307 304 304 305 305 305 305 305 304 303 302 302 302 301 302 302 302 302 303 305 307 307 306 313 316 319 319 315 317 317 319 321 321 320 319 320 319 319 320 320
304 306 305 305 305 305 305 305 305 305 305 305 305 305 304 305 304 303 302 302 302 303 302 302 303 304 305 306 306 311 309 314 315 318 316 316 317 318 319 320 320 319 320 319 319 319 319
304 303 305 304 305 303 304 304 303 304 305 305 305 305 304 304 305 303 301 302 301 301 302 303 302 305 305 305 305 306 310 310 315 319 317 316 318 318 319 318 319 320 320 320 319 319 318
303 302 304 305 304 303 303 304 305 304 304 304 304 304 304 304 304 302 301 300 301 302 302 302 304 305 304 305 304 306 310 314 316 318 316 317 319 318 319 319 320 319 319 318 318 318 319
301 302 304 304 303 302 303 304 304 304 304 304 303 303 304 304 304 302 300 302 303 302 303 305 305 304 304 304 307 308 311 314 316 317 316 317 318 319 319 319 320 318 318 317 317 319 318
300 301 303 303 302 302 301 303 304 304 304 304 303 303 304 304 304 302 303 304 304 305 305 304 304 304 305 305 308 309 313 313 317 315 317 319 320 321 319 317 316 316 316 316 316 318 318
300 299 303 302 301 302 301 302 304 304 304 304 303 303 304 303 302 301 303 304 303 303 303 302 303 303 303 302 306 311 313 313 317 317 316 320 316 319 317 317 317 317 316 317 317 316 317
300 299 302 301 301 301 300 300 303 304 303 304 304 302 303 302 300 303 303 302 301 302 304 303 304 304 303 305 307 313 314 314 316 316 317 318 318 316 319 318 317 316 317 316 317 317 316
299 299 301 301 300 300 299 300 300 302 301 303 303 301 301 302 304 304 303 301 301 303 307 305 306 306 305 307 309 312 313 314 314 317 317 315 317 317 319 319 317 317 316 316 318 317 315
299 299 300 301 300 298 299 298 298 300 301 301 301 302 301 301 304 303 303 301 302 303 311 305 305 305 307 311 310 311 311 314 314 312 315 316 317 319 318 318 317 317 318 318 318 319 318
299 298 300 301 300 298 299 295 295 294 299 303 301 302 302 305 304 302 302 302 303 309 312 309 308 309 312 312 312 313 312 312 312 312 313 314 311 315 318 314 317 318 316 316 316 318 322
298 298 300 300 300 300 299 294 294 293 294 302 304 301 302 302 305 302 303 305 310 312 308 312 311 313 313 314 315 313 313 314 316 316 314 310 310 313 312 314 313 317 319 322 323 323 322
298 298 300 299 301 299 300 300 294 293 294 301 304 302 303 304 304 303 304 308 314 310 310 309 311 313 314 314 314 314 316 316 316 317 317 320 318 310 310 314 316 318 320 323 322 322 320
298 297 299 299 300 301 300 300 295 293 294 301 304 303 304 306 304 304 306 315 310 308 309 311 313 315 314 314 314 314 316 316 315 315 318 318 317 310 311 312 315 316 319 313 314 312 315
298 297 298 299 300 300 300 299 297 293 294 302 304 303 306 307 305 306 311 309 309 306 309 311 314 314 314 313 315 316 316 314 313 312 312 314 317 312 311 313 312 316 313 318 319 318 316
297 297 298 299 299 300 299 299 297 293 294 302 305 307 307 307 308 311 312 311 310 310 310 313 313 314 314 314 314 315 314 313 312 311 312 314 315 314 313 315 315 314 315 314 314 313 315
296 297 298 299 299 299 299 298 296 293 294 299 306 313 307 308 312 313 313 311 308 312 311 312 312 313 314 314 314 314 314 314 312 312 313 313 315 316 315 311 311 313 315 315 318 316 313
296 296 297 299 298 300 299 297 297 293 294 301 305 308 308 310 313 313 311 312 312 312 311 311 312 312 312 313 314 313 313 311 311 312 313 312 314 315 314 312 311 313 313 312 311 314 316
295 295 296 299 299 300 299 297 298 294 293 302 306 310 310 312 311 313 313 313 313 311 311 310 310 311 312 312 312 313 313 312 311 311 308 311 312 314 316 316 314 313 313 312 314 316 314
295 295 296 298 298 297 299 298 298 294 295 303 305 305 304 311 313 312 312 312 312 312 311 311 311 311 312 313 312 312 312 312 312 309 310 312 315 311 311 311 312 313 312 311 312 313 318
295 295 296 298 298 296 297 297 298 295 294 302 303 303 303 305 308 311 310 312 312 312 312 312 312 311 311 312 312 312 312 312 312 311 311 311 313 311 312 310 310 311 311 312 311 311 312
295 295 298 298 298 297 297 297 298 296 293 299 299 301 302 306 309 311 311 312 312 312 312 312 311 312 312 312 311 310 310 311 311 312 312 312 312 313 315 310 310 313 311 311 312 311 312
295 297 298 298 298 297 298 297 297 297 296 296 296 298 301 305 307 309 309 309 312 312 313 312 312 312 309 309 309 310 310 311 310 310 311 312 312 312 314 311 316 313 310 311 311 311 310
296 298 299 298 297 297 298 297 296 297 297 296 296 297 299 301 303 306 308 309 311 312 313 313 312 310 310 311 312 312 312 312 312 311 311 311 311 313 314 314 314 311 310 311 312 312 310
297 298 299 297 297 297 298 296 296 298 297 297 296 295 297 299 304 303 305 308 311 312 313 312 310 310 311 312 313 312 312 311 312 312 310 310 311 312 312 314 315 316 313 311 311 318 313
298 300 299 297 297 296 297 296 298 298 297 295 296 295 296 297 298 301 305 306 309 310 312 312 311 311 310 312 314 313 312 312 313 312 312 312 312 313 312 312 312 311 313 314 320 318 314
299 300 299 298 297 296 297 296 297 298 296 295 296 295 296 296 296 296 298 298 301 309 312 312 312 311 312 314 314 313 313 312 312 312 311 312 312 312 311 312 312 309 311 315 313 314 313
299 299 298 298 297 297 297 294 294 298 296 295 296 296 296 295 296 295 295 298 299 300 302 310 312 311 312 313 313 312 313 312 311 312 310 311 311 312 311 312 310 312 313 311 311 312 312

GFSGBSN_850_thetae_060.txt.gz
Theta_e
305 305 306 306 306 307 305 307 306 306 305 306 306 306 306 305 305 305 304 302 302 302 303 303 303 303 304 307 307 307 310 311 313 318 318 318 316 320 322 321 320 320 319 319 319 320 320
303 302 305 305 307 305 306 304 304 305 306 306 306 306 305 305 304 305 305 302 302 302 303 303 303 303 304 306 306 307 308 313 316 317 317 318 316 319 320 321 320 319 320 319 319 321 320
302 301 304 305 305 305 304 305 306 305 305 305 306 305 305 304 304 304 305 302 303 303 303 302 302 303 305 305 306 308 307 309 316 317 318 316 316 316 319 320 321 319 319 319 319 320 320
301 301 303 305 304 304 304 305 305 304 304 305 307 304 304 305 305 304 304 301 302 301 301 302 303 305 305 304 304 306 307 309 314 317 318 315 316 316 319 319 320 320 319 321 319 319 319
301 300 303 303 304 304 303 304 304 304 304 304 305 304 304 305 304 304 301 299 300 300 301 302 304 304 305 305 305 305 306 307 311 315 317 315 316 318 318 320 320 320 319 319 319 318 318
301 300 302 302 304 304 303 302 304 303 304 304 304 304 304 304 304 303 300 302 302 302 305 305 305 305 305 304 306 306 305 306 312 316 317 317 317 318 318 320 322 320 321 317 319 318 318
301 300 302 302 302 304 303 302 302 305 303 304 304 303 304 301 300 300 304 305 305 306 305 305 305 304 305 304 304 308 308 306 308 317 317 316 318 318 318 318 317 316 317 318 316 318 318
301 300 301 302 302 304 302 301 300 303 302 302 302 304 301 302 301 304 305 304 303 303 303 304 303 303 303 303 306 308 307 307 309 317 316 317 318 317 317 317 317 316 315 316 316 318 317
300 300 300 301 301 302 299 298 300 300 302 302 301 302 301 302 304 304 303 303 301 303 303 304 305 305 304 304 306 308 312 311 311 315 316 317 316 317 318 317 317 315 315 315 316 316 316
300 299 300 301 301 301 299 296 296 298 296 302 303 301 302 303 305 304 303 301 302 303 307 306 306 306 306 304 305 311 312 314 316 315 316 318 316 317 319 319 317 317 315 316 318 316 316
299 299 299 301 300 301 300 301 296 294 294 298 304 302 302 304 304 304 302 302 302 304 310 306 306 305 306 304 309 311 312 312 315 314 316 315 316 318 316 319 317 317 316 317 317 317 318
299 298 299 300 300 301 302 300 301 295 294 295 304 304 301 305 305 305 303 304 304 308 313 309 305 306 309 310 312 311 313 313 313 312 313 313 312 315 315 316 317 317 316 316 317 317 320
298 298 298 299 299 300 300 300 301 298 294 295 304 304 303 304 305 304 304 304 308 312 309 311 310 311 312 313 311 310 312 315 316 316 315 313 311 311 312 317 317 317 316 318 321 320 320
298 298 298 299 299 300 300 300 300 298 295 295 304 305 306 306 305 306 305 307 311 311 310 310 312 314 314 314 312 314 317 317 316 314 314 316 315 311 310 315 316 318 317 317 318 320 315
297 297 297 298 299 299 299 299 299 299 296 296 304 305 307 307 305 306 306 310 309 308 309 311 314 314 314 314 314 316 316 316 317 315 317 317 315 310 311 313 315 318 319 313 314 312 313
297 297 297 298 298 299 299 299 299 299 297 296 304 306 307 307 309 308 311 308 310 307 309 312 314 314 314 315 316 316 315 314 314 312 314 314 316 311 313 312 312 315 316 316 313 311 316
298 296 296 297 298 299 299 299 298 298 298 297 308 309 310 308 310 310 311 311 311 311 310 312 313 313 313 314 315 315 315 313 312 311 312 314 316 315 313 314 315 314 317 314 313 312 314
297 295 296 296 298 299 299 299 299 297 295 297 307 311 309 310 312 314 313 311 309 312 312 312 312 313 314 313 314 314 315 314 312 312 314 313 314 316 315 311 312 313 315 315 319 316 310
297 295 295 296 298 298 299 299 298 295 294 300 304 308 310 312 314 314 312 313 312 312 311 312 312 312 312 313 314 313 313 312 311 312 312 312 313 313 313 312 311 313 313 313 311 312 315
296 295 295 296 298 298 299 298 298 294 296 303 306 307 307 312 312 313 313 314 314 312 311 310 311 311 312 313 312 313 313 312 311 310 310 311 312 313 313 315 313 312 312 312 310 309 312
296 295 295 297 298 298 298 298 298 296 299 303 304 305 304 308 312 311 312 312 313 313 312 311 311 311 313 313 312 313 312 312 312 309 311 312 311 307 311 312 309 312 312 311 305 310 308
297 295 295 298 298 298 299 298 298 298 296 301 302 302 302 304 307 310 310 312 312 313 312 312 312 311 311 312 312 312 312 312 312 310 311 311 310 309 310 310 310 310 310 311 310 310 310
297 296 299 299 298 298 298 298 297 298 295 298 297 299 301 304 307 310 311 311 312 312 312 312 312 312 312 312 311 311 311 311 311 311 311 311 309 309 310 310 310 310 310 310 311 310 310
299 298 299 299 298 297 298 298 297 298 297 297 296 298 300 304 305 307 308 309 310 312 313 312 312 312 309 309 310 310 310 310 310 310 310 311 311 311 311 310 310 313 309 310 310 311 310
301 299 299 298 298 298 297 297 296 297 297 297 297 297 298 300 301 301 306 307 309 311 312 313 312 309 310 311 312 311 312 311 312 311 310 309 310 311 311 310 312 311 309 310 310 311 310
300 299 300 300 298 297 296 297 298 298 298 297 297 296 297 298 301 299 303 305 308 312 312 312 310 310 311 312 313 314 313 311 312 312 310 309 310 310 311 312 314 315 311 310 311 316 309
301 300 300 299 298 297 296 297 296 298 298 296 297 296 296 296 297 297 302 303 304 309 311 312 311 311 310 312 314 312 312 311 312 312 312 310 310 312 311 313 310 313 312 312 317 316 313
302 300 299 298 298 297 298 297 294 295 298 296 296 296 296 296 296 296 296 297 298 303 309 310 311 311 311 313 312 312 311 311 312 311 311 312 312 313 312 313 309 311 310 314 313 313 313
304 300 299 298 298 297 297 296 297 297 298 297 296 296 296 296 295 296 295 295 296 297 298 301 309 312 312 311 311 311 312 311 310 312 310 310 309 310 309 310 310 311 312 312 313 312 312

GFSGBSN_850_thetae_063.txt.gz
Theta_e
302 302 305 307 308 305 305 306 306 307 307 306 306 307 306 305 305 305 305 306 304 303 302 302 302 303 303 304 305 309 308 313 311 313 317 319 317 320 321 321 320 320 318 319 319 319 321
302 301 304 308 305 306 306 305 306 306 305 306 306 308 305 305 306 305 304 305 304 303 302 303 303 303 303 306 303 305 307 310 312 315 317 318 317 319 320 320 319 319 319 319 319 320 319
302 301 303 307 307 305 305 303 305 306 305 305 305 307 305 304 305 305 305 305 302 303 303 303 301 303 304 303 305 308 307 308 312 314 317 317 316 317 319 319 320 319 319 318 319 319 319
302 301 302 303 306 305 305 303 305 306 306 306 305 306 304 304 304 304 303 299 301 301 300 301 304 303 304 303 304 306 305 307 308 314 317 317 317 316 317 319 319 319 317 320 318 318 319
301 301 301 303 304 305 307 303 302 305 304 306 305 305 303 301 302 301 299 299 298 299 300 301 304 303 304 305 305 304 305 306 309 314 316 316 317 316 316 318 319 319 318 318 318 318 318
301 300 300 302 303 304 303 303 302 301 305 301 304 303 302 299 300 301 303 303 302 302 305 305 304 304 304 305 305 306 304 306 307 313 315 317 316 315 316 318 321 320 317 317 318 316 317
301 300 300 301 303 301 302 301 301 302 302 302 301 302 301 302 300 302 303 304 304 305 305 304 304 304 304 304 303 304 305 306 307 312 318 316 317 317 316 317 315 317 318 316 316 316 317
300 300 299 301 302 301 302 303 301 301 301 301 303 301 302 302 303 303 302 302 303 302 302 303 304 303 303 303 304 307 308 306 307 309 315 317 317 315 315 316 317 315 316 317 315 316 317
300 299 299 300 301 301 301 302 302 301 298 297 300 302 302 303 303 302 302 301 301 303 303 304 305 305 304 303 306 308 307 308 307 309 316 317 316 315 317 316 317 316 313 313 316 315 314
299 299 299 300 299 301 301 301 301 302 295 294 296 304 301 304 304 304 303 301 302 303 306 308 306 305 306 304 306 307 305 309 306 313 313 316 315 316 317 317 316 317 313 314 315 314 316
299 299 298 299 299 299 300 300 301 301 297 294 296 304 301 305 304 304 303 303 303 304 308 307 306 305 306 306 308 306 310 310 307 315 313 316 315 317 319 318 317 315 314 315 315 314 314
299 299 298 298 298 299 300 300 300 300 298 295 299 304 303 304 305 305 304 303 305 304 310 308 305 307 307 308 310 312 312 311 313 314 312 314 313 315 315 315 316 316 315 313 313 315 315
300 299 298 297 298 298 299 299 300 299 299 297 298 304 306 304 305 305 304 305 302 307 308 312 310 311 311 312 311 312 313 314 315 312 313 313 312 311 314 316 315 318 313 313 315 312 315
300 299 298 297 298 298 299 300 300 299 300 297 298 304 307 307 306 305 305 303 304 309 308 310 312 312 313 312 312 314 315 316 312 311 312 312 318 313 311 313 318 318 313 312 314 314 314
300 299 297 296 297 297 299 300 300 300 300 298 300 305 307 306 306 307 306 303 308 305 309 310 312 314 314 315 314 315 315 316 314 315 312 312 312 310 311 313 314 317 315 313 310 309 307
299 300 296 296 296 297 299 299 299 300 300 297 304 307 307 306 307 308 303 307 307 306 309 311 315 314 314 314 316 315 314 313 315 314 313 312 313 312 312 313 313 315 314 314 306 310 314
301 298 296 296 296 298 299 299 299 297 299 297 308 309 310 308 308 308 306 305 310 309 309 312 313 312 313 314 314 314 313 312 311 310 312 314 312 314 313 314 316 314 315 314 311 308 311
301 297 296 296 296 298 299 299 299 294 296 298 306 305 309 310 308 309 307 309 310 311 311 311 312 313 313 312 312 313 313 312 311 311 314 312 313 314 316 313 313 314 315 313 311 313 305
299 297 296 296 297 299 299 299 299 295 298 301 304 307 310 310 312 309 310 312 311 311 310 311 311 311 311 312 313 312 312 311 311 310 311 311 311 310 311 310 310 313 313 315 310 309 308
299 297 296 296 299 299 299 299 299 296 299 303 305 302 305 309 310 311 311 312 313 311 311 310 310 310 311 311 311 312 311 311 311 309 310 311 310 310 309 310 310 310 313 310 310 310 312
299 298 297 299 299 298 299 298 298 298 298 299 301 302 303 305 308 304 308 312 311 312 311 310 310 310 311 311 311 311 311 311 311 309 310 310 307 306 310 311 308 311 311 310 306 309 307
299 299 299 299 298 298 298 298 298 298 296 295 300 300 300 302 305 305 309 311 311 312 311 312 311 311 310 312 310 311 310 310 311 309 310 308 306 305 306 310 309 309 309 310 309 309 309
300 301 300 300 298 298 297 298 297 298 296 295 295 297 299 301 305 307 308 308 311 311 312 311 311 310 311 311 310 309 309 309 308 308 308 309 306 305 307 309 309 308 309 309 310 308 309
302 302 300 299 299 298 297 297 298 298 297 297 296 296 298 298 299 302 301 307 309 310 312 312 312 310 310 309 310 310 310 309 309 308 308 308 307 306 305 306 307 305 308 308 309 309 308
302 301 300 300 298 298 297 297 297 298 298 297 297 295 296 296 298 299 300 304 306 308 310 312 311 309 310 310 308 310 310 311 310 309 309 307 308 308 307 304 305 311 309 309 309 309 308
303 301 301 300 298 298 297 297 297 298 298 298 297 296 296 296 297 298 299 302 304 308 311 311 310 310 311 309 310 311 309 310 312 312 308 308 307 306 306 309 313 314 310 310 310 313 308
303 301 300 300 298 297 298 298 295 295 298 298 296 296 296 296 296 297 296 297 301 302 307 310 310 310 310 308 310 307 308 308 311 312 310 309 308 308 310 308 308 312 311 311 316 314 310
303 301 300 299 298 297 297 297 296 297 297 298 297 296 296 296 296 296 296 296 297 297 305 303 308 310 308 310 310 310 308 309 310 309 310 310 311 312 311 312 309 311 310 315 312 312 312
304 302 300 299 298 298 297 297 295 297 298 297 297 296 296 296 295 295 295 295 296 296 296 298 303 309 310 308 308 309 310 308 307 309 307 308 307 309 308 308 307 309 311 313 313 312 312

GFSGBSN_850_thetae_066.txt.gz
Theta_e
302 302 306 309 308 306 308 305 305 306 307 308 306 307 306 307 306 307 305 304 305 304 302 302 302 302 303 304 304 307 308 308 312 311 316 318 316 318 320 321 322 321 320 320 321 321 320
302 302 304 309 306 304 308 305 303 306 306 306 307 306 305 304 304 304 304 305 305 302 302 303 304 303 303 305 303 304 306 308 312 312 315 316 317 318 319 321 321 321 320 320 319 318 320
301 301 302 307 305 304 307 306 303 305 306 307 307 305 304 302 302 303 304 304 302 302 302 303 301 302 303 302 304 306 305 308 312 312 314 315 317 317 317 319 321 319 320 319 319 319 318
301 301 300 304 306 304 306 305 303 303 306 306 306 305 304 299 300 299 299 299 301 300 301 302 303 303 302 304 304 304 306 307 310 312 314 315 317 315 317 318 319 319 318 321 318 318 319
301 300 300 302 304 304 306 303 302 303 303 305 303 304 304 299 299 302 303 301 299 299 300 301 303 303 302 304 305 305 306 306 308 310 314 317 317 315 316 318 319 319 319 318 319 317 318
301 300 299 300 302 302 302 305 305 304 302 303 304 301 302 302 301 302 304 304 301 303 304 304 304 304 303 304 304 303 304 306 307 311 315 316 317 314 315 318 321 320 318 317 319 317 317
300 300 299 299 300 301 301 304 303 305 304 301 301 303 302 302 303 303 301 303 304 305 304 304 304 303 304 303 302 305 305 306 306 308 314 317 317 316 316 316 317 318 316 318 317 316 317
301 300 299 299 299 301 301 300 302 304 305 300 299 303 301 303 302 302 301 302 302 302 302 302 303 304 303 303 303 306 306 305 305 311 313 318 316 314 314 316 317 318 317 316 315 316 317
301 300 299 299 299 299 299 300 301 303 303 297 294 300 302 303 303 303 302 301 301 303 303 304 305 305 304 303 305 307 307 307 306 309 309 316 314 314 315 317 318 316 317 315 315 314 314
302 300 299 299 298 299 299 299 300 301 300 298 295 301 303 304 304 304 303 301 302 303 305 306 306 304 305 304 306 307 307 308 308 310 308 316 314 315 315 317 315 317 313 313 315 315 317
303 302 299 299 298 298 298 299 301 300 300 299 295 301 304 304 304 304 303 303 304 303 310 307 307 305 305 305 307 306 305 308 310 311 311 315 315 316 317 316 314 315 312 313 313 313 313
304 302 300 298 297 298 297 299 301 300 300 300 296 302 305 305 305 305 304 303 304 301 310 308 306 308 308 307 306 306 310 309 310 313 314 314 313 314 315 315 316 315 313 312 313 314 314
305 302 301 298 298 297 297 300 301 301 301 300 297 304 307 305 305 304 304 304 300 308 306 312 312 311 311 308 311 311 309 309 314 314 314 314 313 312 313 315 315 316 312 315 319 319 314
305 302 301 298 298 297 298 301 300 300 299 300 299 305 307 306 306 305 305 301 303 307 307 310 312 312 313 313 313 313 313 314 311 311 313 315 318 314 311 314 318 317 312 310 315 315 314
305 302 300 298 298 297 300 301 300 300 298 298 303 306 307 306 307 306 305 300 302 300 306 310 311 313 314 314 314 315 314 314 313 311 311 311 313 311 312 313 314 317 314 311 307 306 306
303 303 299 298 298 298 301 300 300 299 298 298 307 309 307 307 307 308 301 306 303 305 307 309 313 312 314 315 315 314 314 314 314 313 310 310 312 311 312 313 313 315 313 313 304 309 312
305 301 298 298 298 299 301 300 299 298 298 299 308 310 309 309 309 308 301 301 307 309 308 311 312 312 312 313 314 313 312 311 311 313 312 309 309 312 313 314 316 316 316 312 310 307 311
305 300 298 298 299 301 300 300 300 297 298 302 307 303 309 310 308 306 306 308 309 311 310 310 310 311 312 311 311 312 312 311 310 310 314 312 311 314 313 313 313 314 315 312 311 310 303
302 300 299 300 300 300 299 299 299 298 298 302 306 307 308 309 310 305 309 311 310 311 311 310 310 310 310 311 311 311 311 310 310 310 310 311 308 308 312 311 311 315 313 313 309 304 302
302 300 300 301 299 299 299 299 299 299 298 301 305 298 305 307 307 309 309 311 312 310 310 309 309 309 310 310 309 311 311 310 310 309 311 310 309 307 308 310 309 311 313 312 310 307 309
301 301 302 300 299 298 298 298 299 299 297 300 301 300 301 300 304 304 306 310 312 313 310 310 310 309 310 311 311 311 310 310 310 308 309 307 304 305 310 310 306 309 312 310 308 313 312
302 303 302 300 299 299 298 298 299 298 295 296 299 298 299 300 303 303 308 309 311 312 310 311 310 310 310 310 309 310 310 309 310 308 309 306 306 303 306 310 308 309 309 310 308 308 309
304 303 302 300 299 298 297 298 298 298 297 294 294 297 298 299 302 306 305 304 309 310 311 311 310 310 310 310 309 308 309 309 308 307 307 307 305 303 305 308 308 307 308 308 310 308 309
304 303 301 300 299 298 297 297 298 298 298 297 296 295 297 297 297 299 299 302 307 308 309 311 311 310 309 309 309 309 308 308 307 306 307 306 305 304 304 305 305 305 307 307 309 309 307
304 302 301 300 299 298 298 297 297 298 298 297 296 295 295 294 296 297 298 300 304 306 309 310 311 309 310 309 307 308 308 310 309 308 306 306 306 307 307 303 305 308 308 308 308 308 306
304 302 301 300 299 298 298 297 295 296 298 297 296 295 295 295 295 296 297 299 302 307 308 311 311 309 311 307 308 309 308 308 310 311 307 306 305 305 304 308 311 311 309 309 308 309 307
304 302 301 300 298 298 297 297 297 298 297 298 297 296 295 295 295 296 295 295 296 300 302 307 305 309 310 308 309 307 307 307 309 310 309 309 310 308 307 304 307 306 310 310 311 310 310
304 303 301 300 298 298 297 297 296 297 298 298 297 296 296 295 295 295 295 295 297 297 299 300 306 309 308 311 310 309 307 307 307 307 307 307 310 310 309 310 307 310 310 313 311 312 310
305 304 301 300 299 298 298 297 298 297 297 297 296 296 296 296 296 296 296 295 295 296 296 296 299 301 310 307 307 308 309 306 305 308 306 308 305 307 306 307 306 310 309 311 313 312 312

GFSGBSN_850_thetae_069.txt.gz
Theta_e
302 303 303 304 305 306 307 306 304 305 305 306 306 306 307 308 305 305 304 304 305 305 303 303 302 301 302 304 303 308 306 311 310 312 312 316 316 316 319 319 322 319 320 320 322 322 322
302 302 303 303 306 306 306 304 304 303 305 304 306 306 306 303 303 303 304 305 305 302 302 301 303 303 303 303 303 303 304 307 309 310 311 315 316 315 319 320 320 321 319 320 320 318 317
301 301 301 301 303 306 306 305 304 303 303 305 305 306 306 302 299 298 298 300 302 302 302 302 301 302 302 302 303 306 303 307 310 311 311 314 317 316 318 318 321 320 320 320 319 319 320
302 301 300 300 303 303 306 306 307 305 303 303 304 305 305 305 299 301 301 298 301 301 302 303 303 303 302 304 304 304 306 307 309 313 311 314 317 315 317 318 319 318 318 321 319 319 319
303 301 301 300 302 302 303 305 306 305 305 302 303 303 302 303 301 301 302 302 299 300 299 301 303 303 302 305 305 304 305 304 308 312 310 314 316 315 316 315 317 318 320 319 319 318 318
304 301 301 299 300 301 303 304 305 305 305 304 299 302 302 302 302 302 302 303 301 302 303 303 304 303 303 304 303 304 305 305 307 311 312 314 317 314 313 315 318 319 318 318 319 318 318
305 301 301 300 299 299 303 300 302 305 305 304 296 297 303 302 302 302 301 303 304 304 304 304 304 303 304 303 302 304 305 306 305 308 314 315 315 314 315 314 315 315 316 318 317 316 318
308 301 301 300 299 298 300 300 301 304 305 303 298 295 303 302 302 302 300 302 302 302 302 303 302 303 304 302 303 305 306 305 304 308 312 318 312 312 313 315 316 316 316 317 316 315 318
311 302 301 301 299 298 299 298 299 302 303 300 299 295 302 302 303 302 302 301 301 303 303 304 304 304 303 303 304 305 306 306 305 307 309 315 315 313 315 316 316 316 315 315 317 314 313
311 304 302 301 299 299 298 298 300 301 301 300 299 296 303 304 304 303 303 301 302 302 305 306 306 304 304 304 305 306 307 307 306 308 310 315 314 314 315 317 315 317 314 314 314 315 318
311 305 303 302 299 299 298 298 301 301 300 299 297 297 304 304 304 304 303 302 303 303 302 308 307 305 305 306 307 306 307 308 307 308 307 314 314 314 316 316 313 315 312 313 313 314 314
311 306 303 304 299 299 298 299 302 300 300 298 298 300 304 305 304 304 303 303 304 298 304 308 308 308 308 307 306 306 307 309 310 310 312 314 313 313 314 314 314 314 312 312 312 312 314
310 306 304 303 299 299 299 300 301 300 298 298 298 303 306 305 305 304 303 304 299 306 306 310 311 308 308 308 309 310 310 311 312 314 314 315 314 313 313 314 315 314 312 314 316 317 315
309 307 305 300 300 299 299 301 301 300 297 299 299 305 306 306 306 304 304 298 303 308 309 310 311 311 313 312 311 311 310 312 311 312 312 316 317 314 311 313 314 313 311 310 316 316 314
309 306 305 300 301 299 300 302 300 301 298 299 303 307 307 306 306 306 304 298 301 298 304 309 310 314 312 313 313 314 313 314 312 311 312 312 314 312 313 313 313 315 316 308 306 304 306
308 306 303 302 301 301 302 301 300 301 299 300 306 308 307 307 306 306 298 303 300 304 307 309 312 311 314 315 315 313 314 313 314 311 309 309 314 311 313 313 313 314 311 313 303 308 312
307 305 302 303 303 303 301 300 299 301 298 302 308 309 308 308 307 306 299 299 305 307 308 310 311 311 311 313 313 311 311 310 311 312 309 307 309 312 314 315 316 317 316 312 309 306 311
306 304 303 304 303 302 300 300 300 300 299 301 307 301 309 309 304 303 305 308 309 310 308 309 310 310 311 310 311 311 311 310 310 311 312 310 309 313 314 311 313 315 316 310 309 309 302
306 303 304 304 301 300 300 300 300 300 298 300 306 307 308 308 303 303 307 310 310 310 310 310 309 309 309 310 311 310 310 309 310 310 310 310 310 313 312 311 312 316 315 311 306 302 302
305 302 304 303 301 299 299 300 300 299 297 301 304 298 306 306 305 307 306 310 312 310 309 309 308 308 309 310 308 310 310 310 309 309 310 310 308 307 308 307 310 314 316 311 308 306 307
305 303 304 303 301 299 299 300 299 298 296 300 300 299 298 298 303 304 305 308 311 311 309 309 309 308 309 310 310 310 310 310 309 309 308 307 308 305 309 310 306 308 312 313 307 313 311
303 304 304 303 301 299 299 299 299 299 296 297 298 297 298 298 300 303 305 307 310 309 310 310 310 309 309 309 309 310 309 309 309 307 308 305 304 303 305 309 308 308 308 312 312 311 311
303 304 303 303 300 298 298 299 298 298 298 296 294 297 298 297 297 304 301 304 307 308 310 310 310 309 310 309 308 307 308 308 307 307 306 306 304 302 303 306 306 307 306 308 310 307 310
304 304 303 302 299 298 299 299 298 297 298 296 295 295 296 297 296 297 297 299 304 305 308 309 310 309 308 309 308 308 308 307 307 305 306 304 303 303 302 304 304 305 306 306 308 308 307
304 304 302 301 299 298 298 298 297 297 297 297 295 295 295 293 295 296 296 298 301 304 307 309 311 309 309 309 306 307 306 308 308 307 306 304 304 306 306 302 304 308 308 307 307 307 306
305 303 302 300 299 298 298 298 298 298 297 297 297 295 295 293 293 295 296 297 300 303 305 309 310 309 310 308 308 309 308 307 309 310 306 305 303 304 303 307 309 307 309 307 307 308 308
304 303 302 300 299 299 298 298 296 297 298 298 297 296 296 295 295 295 294 294 295 300 300 302 303 307 310 309 310 306 307 306 309 309 308 308 309 306 306 304 305 304 308 308 309 308 310
304 303 302 301 299 299 299 297 298 297 298 297 296 296 296 295 295 295 295 295 296 296 297 300 304 307 307 311 311 309 305 305 306 306 306 307 309 308 305 306 305 308 309 310 308 312 309
305 304 302 301 299 299 298 297 298 297 297 297 295 295 296 296 296 296 296 296 296 295 296 296 299 299 302 308 307 307 309 306 305 308 304 306 305 306 305 305 305 308 310 310 312 312 311

GFSGBSN_850_thetae_072.txt.gz
Theta_e
303 304 303 304 308 307 307 306 304 303 303 306 306 305 306 306 304 300 305 305 305 304 303 302 302 301 302 303 302 307 306 311 310 312 312 314 316 315 317 319 321 319 319 322 322 323 322
304 303 302 303 306 307 308 306 306 304 304 304 306 305 305 305 302 299 298 303 302 302 301 302 303 303 302 302 303 303 304 307 309 309 311 312 314 315 317 320 320 320 320 321 323 323 319
305 303 301 301 302 307 304 305 305 306 305 305 303 305 306 305 303 304 302 299 303 301 302 301 301 301 302 302 303 305 303 305 308 308 310 311 315 315 317 318 320 319 321 320 321 320 320
308 304 301 301 300 302 306 304 307 305 305 306 305 304 305 304 304 303 303 303 301 300 302 302 303 302 301 303 304 303 305 305 308 310 309 311 315 314 316 317 319 318 318 321 319 319 319
310 305 302 302 301 300 304 306 305 304 305 306 306 302 304 304 303 303 302 303 299 299 299 301 302 302 302 304 304 303 305 305 308 309 309 312 313 314 316 315 315 318 320 318 320 318 320
311 307 303 303 301 300 302 305 303 305 306 305 305 304 303 304 302 304 302 303 301 300 302 303 303 303 304 304 303 303 305 304 307 310 311 313 314 313 312 314 318 318 315 317 320 319 319
313 310 304 304 302 300 299 305 305 306 305 304 304 303 300 304 302 303 301 304 303 304 304 303 303 303 303 303 302 305 304 304 305 309 311 311 312 313 315 313 314 313 315 316 316 318 318
313 312 306 304 303 301 299 302 302 305 304 303 303 302 298 303 302 302 300 302 302 301 301 303 303 302 303 302 302 305 305 304 304 310 307 315 312 311 313 315 314 314 314 315 316 317 318
315 313 307 304 303 301 299 299 302 304 304 301 302 300 297 303 303 303 302 300 301 303 303 304 304 304 303 303 304 305 306 304 305 307 308 314 313 312 314 315 315 314 314 314 315 315 314
316 313 308 305 303 300 299 298 300 303 302 301 299 298 299 303 304 303 303 301 302 302 304 306 305 304 304 304 305 305 306 306 305 308 309 314 311 314 314 316 314 316 313 313 314 316 318
316 313 308 305 304 299 299 299 300 302 301 298 298 297 302 303 304 303 303 302 303 303 308 307 305 305 304 306 306 306 307 307 307 308 308 315 312 315 316 316 313 315 312 313 313 313 314
315 312 308 305 304 299 299 299 301 300 300 297 299 298 304 305 304 304 303 303 304 296 304 308 307 307 306 306 306 305 307 309 308 308 308 311 312 314 314 313 313 311 311 312 312 312 315
314 311 308 305 302 300 299 300 301 300 299 299 299 303 306 305 305 304 303 304 297 303 304 309 308 306 307 308 307 306 308 309 311 312 312 315 315 312 312 314 314 311 311 313 315 313 315
313 310 307 305 301 300 299 302 300 301 299 300 299 305 306 306 305 303 304 299 302 306 306 309 311 310 311 309 310 309 309 311 311 307 312 317 316 314 310 312 313 313 312 309 315 314 313
312 309 307 304 302 302 301 302 301 301 299 300 304 307 306 306 306 304 303 295 301 299 304 308 310 310 312 313 313 312 311 311 310 311 312 313 315 312 313 312 312 314 316 307 305 303 305
312 309 307 303 303 303 302 301 301 301 299 301 306 307 307 307 306 305 297 303 298 301 306 308 310 310 312 312 313 312 313 313 313 311 308 309 315 312 313 313 312 312 309 314 303 308 311
311 308 306 303 305 303 302 301 301 301 300 301 307 308 307 307 306 305 297 300 304 306 307 309 311 311 311 313 311 310 310 311 311 310 307 307 310 314 313 313 313 315 313 310 308 306 311
311 308 304 304 305 303 301 300 301 301 300 301 307 300 307 308 304 300 303 306 308 309 308 308 309 310 310 309 310 310 311 309 310 310 310 308 308 313 314 311 311 314 314 308 307 307 301
311 307 303 304 305 302 301 301 300 300 299 300 305 306 305 306 301 302 306 309 309 309 309 309 309 308 308 309 311 310 310 309 309 310 310 308 307 312 312 311 311 314 314 311 305 303 301
310 306 302 305 304 301 300 300 300 300 298 300 303 299 304 305 304 306 306 308 310 310 309 308 308 308 308 309 307 309 310 309 308 309 310 308 306 306 308 307 309 313 315 314 309 315 309
308 305 303 304 303 301 300 300 300 300 298 300 299 297 298 297 301 302 304 307 310 310 308 308 308 308 308 310 310 310 309 309 308 309 307 307 308 305 307 309 306 309 312 314 314 313 315
308 304 304 304 302 299 299 300 299 299 298 298 297 297 297 297 299 302 304 304 308 308 308 309 309 308 308 309 308 310 308 308 309 307 307 304 305 304 306 308 307 308 308 311 313 313 313
308 303 304 303 301 299 299 299 298 297 297 296 295 296 298 296 297 303 300 301 306 306 309 309 309 308 308 308 307 307 307 307 307 306 306 305 303 303 304 306 306 306 306 307 310 311 312
307 303 304 302 300 299 299 299 298 296 297 296 295 294 294 296 296 296 297 298 302 302 305 307 310 308 308 308 307 307 307 306 306 304 305 303 302 302 302 303 305 306 305 305 308 309 308
305 304 303 301 299 299 299 298 298 297 297 297 296 295 295 292 294 296 296 298 300 302 304 306 310 309 309 308 305 307 305 307 307 306 305 302 303 305 305 301 304 307 306 306 307 308 305
304 304 303 301 299 299 299 298 297 297 297 297 297 296 295 293 293 295 295 296 297 300 302 306 309 309 309 306 308 309 307 307 308 309 303 303 302 304 303 306 308 303 308 306 306 308 307
304 304 302 301 299 299 298 298 298 297 297 297 297 296 296 295 295 295 294 293 295 298 300 301 302 306 308 308 311 311 308 305 308 308 308 307 308 309 308 305 305 303 303 307 309 307 309
305 304 302 301 299 299 299 298 298 297 297 297 297 296 296 295 296 295 295 295 295 296 295 298 302 305 307 310 310 307 304 304 305 305 305 307 306 309 305 309 306 305 308 310 307 311 310
305 304 302 301 299 299 298 298 297 297 297 296 298 297 296 296 297 297 296 296 296 295 295 295 298 298 301 307 307 306 307 304 304 307 303 306 304 305 305 305 304 306 309 309 309 311 311

GFSGBSN_850_thetae_075.txt.gz
Theta_e
312 305 304 303 303 308 304 308 307 308 307 305 304 306 305 305 306 302 298 304 303 302 302 302 302 301 301 302 302 304 305 309 310 311 313 313 316 314 317 319 320 320 321 322 323 323 322
314 308 305 303 302 304 304 306 307 307 306 307 306 304 305 305 305 302 304 299 303 301 301 302 303 302 302 302 302 304 304 308 310 310 312 313 315 314 316 319 320 319 319 322 323 322 319
314 311 307 303 301 303 302 306 304 304 306 306 306 305 303 305 305 305 303 304 300 301 302 301 302 301 301 302 304 303 305 305 307 308 310 311 314 314 316 317 319 319 321 321 322 321 321
315 312 309 304 302 301 303 303 306 305 307 305 305 305 303 303 305 303 303 302 302 300 302 302 303 301 301 304 303 303 305 305 307 308 308 310 313 314 315 317 318 319 319 323 320 321 320
316 313 311 306 303 301 301 304 306 306 306 305 305 305 304 302 304 303 305 302 301 299 299 300 301 302 302 304 303 303 304 304 306 308 308 309 311 314 315 316 318 318 320 319 321 320 320
317 314 311 308 304 301 301 301 305 302 305 305 304 304 304 298 303 304 304 301 302 300 301 302 302 302 303 303 303 302 304 304 307 308 310 310 310 314 313 316 318 318 318 318 320 320 319
318 315 312 309 305 302 302 300 303 304 304 305 304 304 303 299 304 303 303 302 302 303 303 302 303 303 303 303 302 305 305 304 306 308 310 310 311 314 315 313 313 314 316 318 318 319 319
319 316 313 310 305 303 302 300 301 304 304 304 304 304 302 300 304 303 301 302 302 301 301 302 303 303 302 302 303 304 303 304 304 309 310 311 313 311 313 314 314 316 315 316 315 318 318
320 316 314 311 306 303 301 299 300 301 304 304 303 302 298 304 303 302 302 300 301 301 302 303 303 303 303 302 304 305 305 303 304 308 311 313 312 311 314 315 315 313 314 314 316 317 315
320 316 314 310 306 304 301 300 300 302 301 302 302 299 298 304 304 303 303 301 301 302 299 305 304 303 303 303 304 305 305 304 304 309 311 313 312 312 314 316 314 316 312 313 314 318 320
321 316 314 310 307 305 301 300 300 301 301 299 298 299 301 304 304 303 303 302 302 302 302 307 305 304 304 305 305 305 307 306 307 308 310 314 313 313 315 316 313 315 311 313 313 313 314
322 317 314 309 306 305 302 301 302 301 301 298 299 299 304 305 304 303 302 303 304 297 302 308 306 306 305 305 306 305 306 308 307 309 309 311 312 314 314 313 312 310 312 313 311 314 320
320 317 313 309 306 303 303 303 302 301 300 299 299 304 305 305 305 304 303 304 299 303 303 310 308 307 305 305 306 306 308 308 307 312 313 314 314 313 312 315 313 311 313 318 318 319 317
320 317 313 309 306 303 304 303 301 301 300 299 302 306 305 306 304 303 304 298 301 306 308 310 310 307 310 308 309 308 308 308 307 309 315 315 316 315 311 313 314 312 311 313 316 316 315
320 317 312 308 306 303 304 303 301 301 300 301 305 306 306 306 305 304 303 295 300 298 303 309 310 312 313 310 310 311 309 311 309 307 313 316 315 313 312 312 312 314 312 307 306 303 310
319 316 311 308 305 304 304 303 301 301 300 302 305 307 307 306 306 305 298 303 299 300 305 308 311 310 312 312 313 313 312 310 310 309 309 310 316 312 313 312 312 312 308 313 306 311 313
318 315 311 308 304 305 304 302 301 300 300 302 305 307 306 306 305 304 297 301 304 305 307 309 310 310 310 312 310 309 310 311 311 309 307 308 312 314 313 313 314 313 312 308 309 307 312
317 313 311 307 305 305 303 302 301 300 299 302 307 300 307 307 304 300 302 304 307 308 307 307 308 309 309 309 310 309 309 308 310 309 309 308 311 315 315 311 310 312 312 308 311 309 302
316 312 310 307 305 305 303 301 301 300 299 301 306 306 304 305 300 301 304 309 309 309 308 308 308 307 307 308 310 309 308 308 310 309 309 308 307 313 313 311 309 313 313 308 304 303 304
315 311 309 305 305 304 302 301 301 300 299 300 303 298 302 304 303 305 306 307 310 309 308 308 307 307 308 308 306 309 309 308 308 309 310 308 306 307 308 307 308 312 312 310 310 313 309
314 311 307 304 305 304 302 301 300 299 299 300 300 297 298 296 301 301 304 306 309 309 308 308 307 308 307 309 309 309 309 308 307 310 306 306 305 303 306 307 307 309 311 312 311 312 313
313 311 306 305 305 303 302 300 299 297 298 298 298 297 297 296 299 301 302 305 307 307 307 309 308 308 306 307 306 309 308 308 309 306 307 303 304 304 305 308 307 308 308 310 312 312 311
313 309 305 305 305 302 301 300 298 298 298 297 296 296 298 296 297 301 298 300 305 304 308 307 307 307 307 307 306 305 306 306 306 306 305 304 303 304 305 305 306 307 307 307 310 310 312
312 308 304 305 304 301 300 299 298 297 299 298 295 295 296 295 297 297 297 298 300 301 304 305 308 307 307 308 306 306 306 305 305 303 304 303 302 302 303 304 307 306 305 305 306 308 309
312 308 304 304 303 300 300 299 298 296 298 299 298 295 295 293 294 295 295 297 299 301 303 305 308 308 309 307 305 306 304 307 306 303 304 301 303 305 305 302 304 306 306 305 307 308 305
311 307 304 304 302 300 300 299 298 297 297 299 298 297 295 293 293 295 294 295 295 298 299 304 306 308 309 305 308 309 306 306 307 308 302 302 302 304 304 306 307 302 308 306 305 309 306
310 306 305 303 301 300 299 299 299 297 297 298 299 299 296 295 294 294 293 293 295 296 296 301 300 305 308 306 309 310 308 304 307 308 307 306 307 308 309 310 306 302 303 306 309 307 308
308 305 304 303 300 300 299 299 297 296 297 298 299 299 298 296 295 295 295 295 295 295 294 297 301 303 307 308 307 308 305 303 304 303 304 306 305 306 307 310 308 304 307 309 306 309 311
307 305 304 302 300 300 299 299 297 296 297 298 299 298 298 298 297 297 297 296 296 295 295 295 298 297 300 305 308 307 306 302 302 306 301 305 304 305 304 305 304 305 309 309 309 309 311

GFSGBSN_850_thetae_078.txt.gz
Theta_e
314 313 307 304 303 304 303 306 308 307 307 306 308 306 304 305 305 306 305 299 305 302 301 301 301 301 301 303 303 303 305 307 310 310 311 314 316 315 317 319 321 324 323 323 323 324 324
315 314 309 306 302 303 304 302 306 307 305 306 306 306 305 303 305 305 303 305 301 301 302 302 301 302 303 303 302 304 304 307 310 310 309 313 315 314 315 317 321 321 322 322 323 323 322
318 315 312 308 304 303 303 303 304 304 306 305 305 305 305 304 304 305 304 303 305 301 302 302 301 301 302 303 304 304 305 305 308 310 310 312 315 315 315 317 318 320 321 322 323 323 324
321 317 314 310 306 303 303 303 303 304 306 306 305 305 305 304 303 305 304 305 303 300 301 302 302 301 302 304 303 304 305 305 307 308 308 310 313 315 316 318 319 320 320 323 322 323 322
322 319 315 312 309 304 303 303 301 304 304 305 305 304 304 304 302 305 303 304 302 299 300 300 301 301 303 304 304 302 304 306 304 306 308 309 312 314 316 318 319 320 320 320 322 321 322
321 321 316 314 311 305 303 303 301 302 305 304 305 304 304 304 302 304 304 303 303 300 300 301 302 303 304 304 302 302 305 304 306 306 309 310 311 315 316 317 319 320 320 319 321 322 322
322 322 316 315 312 307 304 303 301 301 303 305 304 303 303 303 303 304 304 302 303 304 304 303 304 303 303 302 302 305 305 305 306 307 310 310 311 316 316 315 315 318 318 318 319 320 322
323 322 317 315 313 309 305 303 301 301 303 305 304 303 302 302 304 304 302 303 302 301 303 302 303 303 302 302 304 306 304 305 307 308 310 312 314 314 315 315 315 317 318 319 319 320 321
323 321 318 316 314 310 306 303 301 300 304 304 304 301 300 304 304 303 302 300 301 301 305 304 303 304 304 303 304 305 304 304 306 307 310 313 313 313 315 316 316 317 317 319 319 321 320
323 321 320 317 315 310 306 303 301 302 302 302 302 299 299 304 304 303 303 301 302 302 308 307 305 304 304 304 305 303 304 305 306 309 311 313 312 313 315 315 315 318 316 318 319 320 320
323 322 321 318 315 309 306 303 302 302 301 301 299 299 301 304 304 303 302 302 302 302 312 306 306 304 304 306 305 305 306 307 308 310 312 315 313 313 315 315 315 315 315 316 317 317 319
323 322 320 318 314 309 307 303 304 302 301 299 300 300 305 304 304 303 302 303 303 308 312 308 307 306 305 305 306 306 307 307 309 311 311 313 311 311 314 315 314 314 316 316 317 318 320
323 322 319 317 313 308 306 304 304 302 301 299 301 305 305 305 304 303 303 304 310 313 306 310 308 307 306 305 306 306 309 310 311 315 314 314 313 314 313 316 313 316 318 320 320 320 319
322 322 320 317 312 308 305 305 303 302 301 300 305 305 306 305 304 303 303 305 316 310 312 310 308 306 308 307 308 308 308 310 310 313 316 317 316 313 315 316 316 317 316 319 317 318 317
321 322 319 316 311 308 305 305 303 302 301 301 306 306 306 305 304 304 304 312 312 309 308 311 309 311 311 309 309 310 310 311 310 310 315 316 315 313 314 315 315 316 318 311 314 310 317
322 320 319 315 310 307 305 305 302 301 301 302 306 306 306 306 305 304 305 309 308 303 308 310 313 312 312 312 312 311 313 311 312 310 310 314 317 314 314 314 314 316 312 317 316 318 317
322 320 318 314 309 306 306 304 302 301 300 303 306 307 306 306 306 304 311 309 308 306 307 310 312 312 313 313 313 313 313 312 311 311 311 312 315 314 315 315 317 316 316 315 314 313 315
323 320 317 312 309 305 306 303 302 301 299 304 306 310 306 306 306 303 310 307 307 310 307 310 310 311 312 313 312 312 313 312 311 311 312 310 314 317 317 313 313 315 316 316 318 316 312
323 320 316 312 308 305 305 303 302 301 299 304 306 305 305 305 311 310 308 310 309 310 310 310 310 309 309 311 313 312 311 309 311 311 312 311 314 316 315 313 312 315 315 314 313 313 316
323 319 316 311 307 306 305 302 302 301 299 302 305 307 302 304 303 308 310 310 311 309 309 308 309 308 310 311 310 312 312 310 310 310 309 310 312 314 316 315 314 314 314 315 315 319 316
323 319 315 311 306 306 304 302 302 300 299 300 301 303 302 308 306 306 307 309 311 311 309 309 310 310 310 312 311 312 311 309 309 310 309 311 314 309 309 309 312 313 314 315 314 315 317
323 318 313 309 306 306 303 302 301 298 298 299 300 299 298 300 301 306 305 309 310 309 310 311 311 309 309 310 309 312 311 311 312 309 310 308 313 310 312 311 310 312 312 313 314 314 315
321 317 313 308 306 305 303 302 300 299 298 298 297 298 301 298 302 307 305 305 306 306 309 308 309 309 310 309 307 306 307 308 309 311 311 310 311 311 313 308 310 311 312 312 313 313 314
319 315 311 308 306 305 303 302 299 299 299 298 297 298 301 302 303 303 300 301 304 303 306 306 309 309 308 308 306 306 307 307 308 307 307 309 310 309 311 308 312 309 308 308 310 310 311
319 314 310 307 306 304 302 301 299 298 300 300 298 296 297 300 299 298 298 300 300 302 305 305 309 307 308 306 309 310 310 310 309 307 307 306 309 311 312 311 310 309 307 308 308 309 309
319 315 309 306 305 304 302 301 299 298 301 301 300 296 295 297 297 296 297 297 301 303 304 304 305 306 308 309 310 311 311 309 310 310 305 306 307 310 309 311 310 307 309 306 307 312 310
319 316 308 305 304 303 301 301 298 297 300 301 301 298 298 297 295 295 297 297 295 299 302 301 300 305 307 311 312 310 309 307 310 311 311 311 311 312 311 310 309 308 307 306 311 311 310
319 312 307 304 304 301 300 300 296 298 299 301 301 298 299 297 295 296 295 295 295 296 299 298 302 304 307 311 311 311 310 308 308 308 309 311 311 311 311 311 310 306 306 310 310 309 310
317 310 305 304 303 301 300 298 296 298 300 301 301 299 300 299 297 297 297 297 296 296 296 295 299 299 300 306 308 309 310 307 308 310 305 310 309 310 310 310 308 305 310 309 309 309 310

GFSGBSN_850_thetae_081.txt.gz
Theta_e
319 316 315 312 309 304 304 304 303 306 306 306 306 307 305 305 304 306 305 306 302 302 301 301 302 301 304 305 305 304 304 307 309 307 310 314 316 317 318 318 319 322 322 323 324 325 325
321 319 316 314 311 307 304 304 304 303 304 305 307 306 305 305 303 305 305 304 306 301 302 301 301 301 305 306 304 305 305 308 310 309 309 311 315 316 316 317 319 320 321 322 324 324 325
323 322 319 315 312 310 305 305 304 303 306 305 307 305 305 305 304 305 305 305 303 302 302 301 300 303 305 305 305 305 306 307 308 310 311 310 311 315 314 317 319 320 322 323 324 324 325
324 322 321 317 314 312 308 305 304 303 304 306 306 305 304 304 304 303 305 305 306 302 300 302 302 305 304 304 305 305 306 307 305 307 311 310 309 314 315 315 319 321 321 325 324 323 324
325 324 321 319 316 313 310 306 304 302 304 305 305 305 304 305 304 303 304 304 302 301 299 300 304 305 304 305 305 304 306 306 306 305 307 308 309 314 316 318 320 320 322 321 323 323 324
325 325 322 321 317 314 311 307 305 302 302 305 305 305 303 304 303 303 304 305 303 301 302 303 304 305 304 305 304 303 306 306 307 304 308 308 310 312 317 318 320 320 319 320 322 323 323
325 325 323 322 317 315 312 308 305 302 301 304 305 304 304 303 302 304 304 305 305 306 305 305 304 304 304 304 304 306 306 306 307 305 311 309 311 314 316 316 315 316 317 317 318 321 322
325 325 322 322 318 315 313 308 306 302 301 304 303 303 303 303 304 305 304 305 305 304 306 304 304 304 303 303 304 306 305 306 307 308 311 311 314 314 315 315 317 317 320 319 320 320 321
326 325 323 321 319 316 313 307 305 303 303 303 303 302 302 303 304 304 305 304 301 301 307 306 305 305 305 305 305 304 305 305 307 307 310 314 313 314 316 316 318 317 318 319 319 320 320
327 325 323 322 320 316 312 307 305 304 303 302 301 300 301 304 305 305 305 302 301 303 310 308 306 305 305 305 306 304 304 306 308 308 310 313 312 315 316 315 315 317 317 318 319 321 321
325 324 323 322 320 316 311 307 305 304 302 302 300 300 300 304 306 305 305 302 301 304 314 307 307 305 306 306 306 305 306 307 309 309 311 314 313 315 316 315 315 316 316 317 319 320 318
327 324 323 322 319 316 310 307 305 304 302 301 300 302 305 304 305 304 303 303 305 309 312 308 307 306 306 306 307 307 308 308 309 312 313 313 312 313 315 315 315 316 317 317 317 317 320
325 323 324 322 319 316 310 306 305 303 302 301 303 306 306 305 306 303 303 306 310 315 309 310 308 307 306 307 308 308 310 312 312 313 315 313 313 312 315 316 316 315 317 320 319 320 319
325 324 323 321 319 316 310 306 305 303 301 301 306 306 305 305 304 303 306 307 315 313 313 309 307 307 309 309 308 310 310 312 312 313 315 317 316 315 315 316 317 316 316 318 317 317 316
324 325 322 321 319 315 309 305 304 302 301 302 306 306 306 305 304 304 306 313 313 312 312 311 309 311 311 309 310 310 311 312 313 314 315 316 316 312 315 316 316 317 319 314 317 316 318
323 324 321 321 319 314 308 305 303 302 300 302 307 307 306 305 305 305 308 311 311 309 311 312 314 313 311 311 311 312 312 312 313 312 313 315 317 314 315 315 315 317 315 315 319 318 315
324 324 321 321 318 312 308 305 303 301 300 303 307 308 306 306 306 306 312 313 311 308 310 312 313 313 312 313 312 313 313 313 312 312 312 314 316 315 315 316 318 317 317 317 316 316 316
325 323 322 320 317 311 307 305 303 301 299 304 308 308 306 305 307 306 313 311 309 311 310 311 312 313 314 314 314 314 314 314 312 312 313 313 316 317 316 315 315 317 317 317 318 317 315
325 323 322 320 316 310 306 305 302 301 299 305 309 305 305 305 310 312 311 312 312 312 312 312 312 311 312 314 315 314 313 311 313 312 314 313 316 317 317 316 315 316 316 316 316 316 320
324 323 323 320 315 309 306 305 302 301 299 305 308 308 305 305 307 310 312 312 312 310 311 310 311 311 312 312 312 314 313 312 313 312 311 311 314 316 318 316 316 315 315 316 316 320 316
323 323 323 319 313 309 306 305 302 301 299 303 304 309 308 309 309 310 311 312 312 312 311 310 312 312 312 313 313 313 313 312 312 312 311 313 316 313 312 311 314 315 315 315 317 316 318
323 323 322 319 313 308 306 303 302 300 299 301 303 303 302 306 306 310 308 312 312 312 312 312 312 311 311 312 312 313 313 313 314 312 313 312 316 313 314 313 312 313 313 313 314 315 316
323 322 320 317 311 306 305 303 302 298 298 300 299 300 304 303 307 310 310 310 311 310 310 311 311 312 312 311 308 309 309 310 311 313 313 313 314 313 315 310 311 312 312 313 314 314 314
322 320 318 315 310 306 305 303 302 299 299 298 298 300 305 304 306 309 306 307 308 308 311 310 311 311 310 309 308 308 309 310 310 310 311 312 313 313 314 311 314 312 309 309 311 313 313
321 319 317 313 308 306 304 303 301 300 300 299 297 299 303 305 305 303 303 306 305 305 308 309 310 308 308 309 311 311 312 311 311 310 310 309 311 312 313 312 311 310 309 309 309 310 310
320 319 317 313 306 305 304 303 302 299 301 301 298 297 300 302 303 302 303 303 307 308 307 307 306 307 309 311 312 312 313 312 311 311 308 309 309 312 312 312 312 311 311 308 309 311 312
320 319 316 312 306 304 303 303 301 299 301 301 299 296 300 299 297 298 300 301 299 303 307 305 304 309 309 312 312 312 310 309 310 311 311 311 311 312 312 312 311 310 309 308 311 313 311
320 318 316 310 307 303 303 302 299 299 301 301 300 299 301 299 296 296 296 298 298 298 304 301 305 307 310 311 311 311 310 309 309 309 310 311 311 312 311 312 312 308 308 309 311 311 311
318 317 314 310 306 303 302 301 297 299 300 301 300 300 301 301 298 298 298 297 297 296 298 299 302 302 302 308 310 310 311 310 309 310 308 310 310 310 310 311 310 308 309 309 310 310 310

GFSGBSN_850_thetae_084.txt.gz
Theta_e
322 322 322 320 316 313 309 306 305 305 303 305 306 307 307 305 305 303 306 306 306 302 301 302 302 302 304 307 306 304 305 306 308 309 310 310 313 316 318 316 318 321 323 323 322 324 324
324 323 322 321 319 315 311 308 305 305 304 306 306 307 307 305 305 304 306 305 306 305 301 301 301 301 306 306 305 305 305 307 307 310 310 311 313 315 317 316 317 320 321 323 323 321 324
325 325 323 322 321 317 314 310 306 305 304 304 307 306 306 305 305 304 303 305 306 305 301 301 300 303 305 306 305 305 306 307 305 307 309 311 312 312 315 317 316 319 320 321 323 322 324
325 325 325 323 321 319 315 312 307 305 304 302 305 305 305 305 304 304 303 305 305 306 301 301 301 304 305 304 302 305 306 307 306 304 307 310 310 310 314 316 317 320 320 322 323 323 323
325 325 325 324 322 321 317 313 308 305 303 302 304 305 305 304 304 304 303 304 304 301 300 300 302 306 305 305 305 304 306 306 307 304 307 308 309 311 314 316 319 320 322 321 323 322 323
324 325 325 325 324 322 317 314 309 305 303 302 303 306 304 304 304 304 304 305 304 302 305 305 305 305 305 305 304 303 306 306 307 305 306 306 308 309 314 317 320 320 321 320 321 323 323
322 324 326 325 324 323 319 314 310 305 302 302 303 305 304 303 303 304 304 305 306 306 306 306 305 304 304 304 304 305 305 306 306 306 308 307 309 313 316 316 316 318 317 319 320 322 323
321 323 325 325 324 322 320 315 310 305 302 303 303 304 304 304 304 305 305 306 305 305 307 305 305 304 304 303 304 306 305 306 307 307 305 311 313 313 316 316 316 317 317 319 321 322 322
320 322 325 325 324 322 321 315 310 306 303 303 302 302 302 303 304 304 305 305 304 301 307 307 305 305 305 305 305 305 305 306 307 307 311 313 313 312 316 316 316 315 315 319 322 320 319
318 321 323 325 324 323 320 315 309 306 303 303 302 301 300 304 305 305 305 304 301 305 310 308 307 307 306 305 306 304 305 307 307 310 311 312 311 313 316 317 318 319 317 318 319 319 321
317 319 321 325 322 323 320 315 308 305 304 302 301 300 300 305 306 305 305 302 302 305 313 308 307 304 307 307 305 307 306 308 308 309 311 313 314 315 317 316 317 318 317 319 319 319 319
317 316 320 325 323 323 320 314 308 305 303 301 301 302 305 305 305 305 304 303 306 309 310 307 307 307 307 307 308 307 309 308 308 311 312 313 312 313 315 316 316 316 317 317 316 317 316
319 315 320 323 323 322 319 314 307 305 302 301 303 305 306 306 306 303 305 306 310 313 309 309 307 307 308 308 309 309 310 311 312 313 314 312 312 312 314 317 315 316 316 316 317 313 316
320 316 320 324 323 322 319 314 306 305 302 301 306 306 305 305 304 304 306 308 314 312 313 308 308 308 310 309 309 310 312 313 312 314 313 315 315 314 315 317 316 316 316 316 315 315 315
321 317 321 324 323 321 318 312 305 304 301 303 306 306 306 305 304 305 307 311 312 312 311 310 309 311 310 309 310 310 312 312 313 313 316 316 314 313 315 316 316 316 315 313 317 315 314
321 318 321 322 322 321 318 311 305 303 301 304 307 307 306 305 305 306 309 310 310 311 312 311 314 312 310 310 311 312 313 312 313 312 313 314 314 313 316 316 315 316 315 315 315 314 314
317 320 321 322 321 321 318 309 305 302 300 305 307 308 306 305 305 307 312 312 311 310 311 312 313 313 311 311 311 312 313 312 312 312 312 314 314 315 316 315 316 316 316 316 315 313 315
316 320 321 322 321 320 315 307 305 302 300 305 307 308 306 305 308 307 312 312 310 311 310 312 312 313 313 313 312 313 313 314 312 312 314 313 314 314 315 315 315 315 317 315 313 315 312
319 321 321 321 321 319 312 306 305 301 300 307 308 306 305 306 311 312 311 311 312 312 312 312 313 312 312 314 315 313 313 313 313 312 314 312 315 317 315 315 314 315 316 316 315 313 313
312 319 322 321 321 318 311 306 304 301 300 308 308 306 305 305 306 310 312 312 313 311 311 311 311 311 312 313 313 313 313 312 313 313 311 311 314 314 313 314 315 314 314 314 314 313 315
316 320 321 321 321 316 309 306 304 301 299 307 307 309 306 307 309 310 312 312 313 312 311 311 312 312 312 313 313 314 313 313 313 312 311 312 314 308 311 311 313 315 315 314 312 313 311
310 312 320 321 319 312 307 306 303 300 298 305 304 306 307 309 309 310 310 312 311 312 312 312 313 312 311 312 311 313 313 312 313 312 312 311 312 311 310 312 311 312 312 312 313 314 315
312 313 319 320 318 311 307 306 302 300 299 302 302 304 305 306 308 310 310 310 311 311 311 311 312 312 312 311 308 308 310 311 311 312 312 313 312 310 311 310 310 310 311 312 312 312 313
311 316 320 320 318 310 306 305 302 300 298 300 300 301 305 304 306 308 309 309 311 310 311 311 311 311 310 309 309 309 310 310 310 310 310 312 312 311 309 310 308 310 309 309 309 309 311
306 308 315 318 316 308 306 304 302 299 298 299 298 302 304 304 305 305 306 308 306 306 309 310 310 308 309 309 310 311 310 311 310 310 309 309 309 311 310 309 309 310 308 309 309 309 308
306 310 312 317 314 307 305 304 302 300 298 298 298 300 303 304 302 304 305 306 306 307 307 308 307 308 310 311 311 312 311 311 311 311 308 309 308 309 309 311 311 312 309 309 309 308 311
306 310 312 315 313 306 303 305 304 299 300 299 298 297 301 298 297 301 301 302 301 305 308 308 306 309 310 311 311 311 310 309 309 310 310 309 310 308 309 311 310 310 308 309 309 310 310
310 313 315 314 310 305 303 304 303 299 300 300 298 298 302 297 297 297 298 299 299 301 304 302 305 307 309 310 311 310 309 308 307 308 310 309 310 310 309 309 310 308 307 308 309 310 310
309 311 315 313 309 304 304 305 302 298 300 300 298 301 300 300 297 298 298 297 298 298 300 301 303 303 303 308 309 309 310 308 307 307 307 308 307 308 308 309 309 308 308 308 308 310 310

GFSGBSN_850_thetae_087.txt.gz
Theta_e
323 324 325 324 323 322 319 315 311 307 306 305 308 306 308 307 306 306 303 306 306 305 302 302 301 301 304 307 306 305 306 305 305 307 307 307 309 312 315 316 317 321 321 321 322 324 323
322 324 325 324 324 322 321 317 312 309 306 305 306 307 307 307 305 305 304 305 305 307 304 301 300 300 305 306 305 305 305 306 306 306 309 308 308 311 314 316 316 318 321 321 322 323 321
321 322 325 325 325 324 322 319 313 311 307 305 306 306 306 306 305 305 305 302 306 307 305 301 301 301 304 305 305 304 306 307 306 304 308 309 308 312 313 316 315 317 320 321 323 322 322
321 322 323 325 325 325 324 321 315 313 308 305 304 306 306 306 304 304 303 302 304 305 304 300 301 303 305 305 304 304 305 306 307 304 304 306 310 310 311 313 316 317 319 322 323 321 321
320 321 322 323 325 325 324 323 317 315 309 305 303 304 306 305 304 304 302 304 304 302 300 299 302 305 305 305 305 303 305 305 307 305 305 306 309 309 312 315 318 319 321 321 324 321 322
321 320 321 321 323 325 324 324 319 315 309 306 302 304 306 304 303 304 304 304 302 302 305 305 305 305 304 305 304 305 305 306 307 305 305 306 308 307 312 317 319 320 320 320 323 321 320
322 322 320 321 321 325 325 323 320 316 309 305 303 304 306 304 303 304 304 305 307 306 305 306 305 304 304 304 302 305 305 305 306 307 307 304 310 311 311 312 315 317 319 319 320 322 322
319 323 320 320 320 324 324 322 321 316 308 305 303 304 304 304 304 305 305 306 305 305 306 305 305 305 304 303 305 306 304 306 307 307 304 309 312 311 313 313 316 318 319 319 320 320 319
317 320 321 319 319 323 324 322 321 316 308 304 303 302 304 303 304 304 305 305 305 302 306 307 305 305 304 304 305 305 304 306 306 307 308 310 313 313 315 316 317 317 317 319 320 321 320
316 319 320 321 317 322 323 321 321 315 308 305 302 301 301 304 305 305 305 305 302 303 307 308 307 306 306 305 305 305 305 306 306 309 311 310 311 315 315 316 315 316 316 318 321 320 321
315 318 320 323 318 321 321 322 321 313 307 305 302 301 301 305 305 305 305 303 302 306 299 308 307 306 306 307 305 305 307 308 310 311 311 313 313 315 317 317 316 317 317 318 320 319 319
312 316 318 323 318 320 321 322 320 311 306 304 301 303 304 305 305 305 303 302 306 302 305 305 307 307 308 308 308 307 308 308 308 312 312 311 311 312 314 316 315 316 317 318 317 315 313
309 315 317 322 319 319 321 321 319 310 306 302 302 305 306 305 305 303 305 306 307 302 306 308 305 308 308 309 310 309 310 311 312 307 310 310 311 310 314 314 315 317 313 316 317 312 315
307 311 315 320 318 318 322 321 317 308 305 302 305 306 306 306 304 305 306 302 302 310 308 307 307 307 308 309 309 311 311 312 310 311 313 309 308 313 312 316 316 316 314 311 316 314 313
309 312 314 320 317 319 321 319 315 306 303 303 306 305 305 304 304 305 306 300 304 306 308 308 308 309 309 309 309 309 311 311 312 312 310 310 314 313 314 314 314 314 310 312 313 311 310
311 312 315 321 318 320 320 320 313 306 302 304 306 306 305 305 304 306 306 307 305 308 310 309 312 310 309 309 309 310 312 311 312 311 311 311 315 312 315 314 315 315 313 311 307 312 314
308 311 315 320 318 321 320 319 308 304 301 306 307 307 305 304 305 307 306 307 310 309 311 312 312 312 308 310 309 311 313 311 311 311 311 312 310 313 314 314 316 315 315 315 312 311 314
308 310 315 319 318 321 320 316 306 303 302 306 307 307 305 305 306 306 306 310 310 310 310 311 311 312 309 310 310 311 313 313 312 311 313 311 310 314 314 314 314 315 316 315 310 313 308
308 311 316 319 319 321 319 312 305 302 302 306 307 305 305 306 305 305 309 311 311 311 310 311 312 311 311 312 313 312 312 312 312 311 311 311 309 307 312 311 312 314 314 315 312 309 310
308 309 313 319 321 319 317 310 305 302 303 307 306 305 305 305 306 306 309 310 312 311 311 311 310 310 311 311 311 312 312 312 313 312 311 310 311 308 306 310 311 313 313 314 311 308 313
307 307 313 316 320 319 317 308 305 302 304 309 308 304 305 305 304 304 308 310 311 311 310 310 311 311 311 311 312 313 312 312 312 312 310 310 310 304 310 310 311 312 313 312 308 311 311
305 308 309 312 319 318 313 306 304 301 305 307 305 306 305 305 307 305 308 310 310 311 310 310 311 311 309 310 309 312 311 311 311 310 311 309 308 306 306 310 310 311 310 310 311 312 312
304 308 308 310 311 317 310 305 304 300 302 306 303 305 306 305 305 305 307 309 311 309 310 311 310 310 310 309 308 308 308 309 309 310 310 310 309 306 306 309 308 308 308 310 310 310 311
305 309 312 311 310 315 308 305 303 301 300 302 303 305 304 303 303 306 308 309 311 309 310 311 311 310 309 308 309 309 309 309 309 307 309 310 310 309 305 306 305 307 308 308 309 309 309
304 306 306 309 310 313 307 306 302 301 299 300 301 303 304 301 302 304 307 305 306 307 308 310 309 308 308 309 307 308 308 309 309 308 307 306 307 309 307 306 306 308 308 309 308 308 307
304 307 305 309 308 310 307 303 301 300 298 300 299 302 304 302 299 301 304 305 303 304 305 307 308 308 309 308 308 310 308 308 310 310 307 307 305 306 306 309 310 309 308 308 307 306 309
305 306 305 310 309 308 306 300 302 299 298 299 298 300 302 298 298 302 300 302 302 304 303 306 306 309 310 307 308 306 308 308 308 308 308 307 307 305 307 306 308 307 308 308 307 305 309
306 309 308 308 310 307 303 301 305 299 299 298 298 300 300 297 297 298 299 300 301 300 302 302 305 306 306 308 309 308 306 305 306 306 308 307 305 307 306 307 307 307 307 307 305 309 310
307 311 310 308 309 306 304 306 310 301 299 298 297 301 300 298 297 297 297 298 299 300 301 303 302 303 304 304 305 305 307 304 304 305 304 306 305 305 306 307 307 308 307 308 308 307 308

GFSGBSN_850_thetae_090.txt.gz
Theta_e
321 321 321 322 323 323 324 323 321 318 313 309 306 306 307 307 308 306 306 303 307 306 306 301 301 300 304 306 306 305 305 304 305 305 305 306 307 309 311 313 315 318 319 319 322 323 323
322 321 321 321 322 324 324 323 322 319 314 311 306 305 304 306 306 305 305 305 304 306 308 302 301 300 304 305 304 305 304 305 306 305 305 307 306 308 310 312 314 317 318 319 322 323 322
322 322 321 321 322 323 325 324 323 321 315 313 307 305 304 306 306 305 305 305 303 306 307 303 301 301 302 303 305 304 304 306 306 306 305 308 308 307 310 313 315 316 320 318 321 322 323
320 322 323 322 321 322 322 325 323 322 317 315 307 305 303 306 305 304 304 303 303 304 304 301 301 302 303 304 304 304 303 305 306 306 304 306 306 306 311 313 314 316 319 323 322 321 322
316 319 319 322 322 321 322 322 323 322 318 316 308 304 303 305 304 303 302 304 304 302 300 299 302 304 304 304 305 304 304 306 306 306 305 305 307 308 310 314 315 317 320 321 325 321 321
306 307 314 318 322 321 322 322 322 322 319 316 308 304 303 302 304 302 304 304 302 304 305 305 305 305 304 304 304 304 305 305 306 306 306 307 308 308 309 313 316 319 319 319 322 321 320
304 304 304 312 318 322 322 322 322 322 320 316 307 303 303 301 300 303 304 305 307 306 305 305 304 304 304 303 301 303 305 305 306 306 306 306 309 311 310 313 314 316 317 318 321 320 319
303 301 301 308 314 319 323 321 322 321 321 315 307 303 303 301 301 304 305 306 305 305 306 305 305 305 304 304 305 305 305 306 307 307 306 309 310 309 308 312 314 315 318 319 321 320 320
302 302 304 307 313 317 321 320 320 321 319 314 306 303 302 300 304 304 305 305 305 303 306 307 306 305 304 304 305 304 305 306 306 307 308 312 312 312 312 315 317 317 318 318 321 321 319
302 302 303 302 312 317 319 321 319 321 320 312 305 303 301 304 305 304 305 305 304 302 298 306 306 306 306 306 304 305 306 307 306 308 310 313 312 313 314 316 315 317 316 317 320 321 323
301 301 302 304 309 316 318 321 319 321 319 309 304 302 301 305 305 305 305 304 301 305 296 304 306 306 306 306 306 305 307 308 310 311 312 312 315 315 316 316 315 317 317 319 319 319 318
300 302 302 306 309 313 318 320 320 321 319 307 303 302 302 305 305 305 304 302 305 297 301 302 306 307 308 308 308 307 308 308 309 311 311 312 311 313 313 315 315 316 318 318 318 318 320
301 299 302 303 306 310 316 319 320 320 317 305 301 304 305 305 305 304 302 305 299 300 304 304 304 307 308 309 310 309 310 311 312 309 310 311 311 311 313 315 315 316 316 319 319 317 316
299 300 302 304 308 312 314 319 320 319 313 303 303 305 305 306 304 304 306 299 300 306 306 307 306 306 308 308 308 310 311 311 310 310 312 309 313 313 313 315 316 316 315 315 318 315 313
298 300 302 304 310 313 314 318 319 320 307 302 305 306 306 305 304 305 306 297 302 304 306 307 307 308 307 308 309 309 310 311 311 311 310 307 311 313 313 313 314 316 311 311 310 308 309
298 299 301 306 310 313 315 317 318 315 303 305 305 305 304 303 304 306 301 305 303 307 308 308 309 308 308 308 309 309 310 310 311 310 310 310 309 311 313 312 314 313 312 311 307 311 315
298 298 302 308 311 313 318 317 317 307 303 305 305 305 304 304 304 306 299 302 308 309 309 310 311 310 308 308 308 309 311 310 310 310 310 310 308 311 311 312 315 314 313 312 309 309 311
299 300 304 310 310 312 318 316 316 304 305 306 307 306 304 304 306 304 304 308 309 309 310 310 310 311 307 308 309 310 312 312 311 310 311 309 309 310 313 312 313 314 315 312 307 310 305
300 301 305 307 314 315 317 317 311 302 305 306 305 304 305 305 305 303 305 310 310 309 309 310 311 310 310 311 312 311 311 311 311 310 310 310 307 312 310 310 310 313 313 314 310 307 307
299 302 304 307 310 316 317 317 307 302 305 306 305 305 304 305 305 305 308 310 311 310 310 310 310 309 310 311 310 311 311 312 312 311 310 309 308 306 306 308 309 313 313 313 310 306 312
300 302 304 310 311 318 316 313 305 302 305 306 306 302 305 305 303 304 307 309 310 310 310 309 310 310 310 311 311 312 311 312 312 311 310 308 308 303 309 310 309 311 312 312 308 311 311
301 303 305 306 311 316 315 309 303 302 306 308 306 304 304 302 304 303 306 309 309 309 309 310 310 309 309 309 310 311 310 310 310 310 310 307 307 304 306 309 309 310 309 309 310 311 311
301 302 305 307 308 310 313 305 303 302 306 307 304 307 307 304 303 304 306 308 310 309 310 310 309 308 308 307 307 308 308 308 310 309 309 309 307 305 306 307 306 307 307 308 309 309 310
302 303 305 309 311 309 309 304 302 301 306 306 304 306 305 304 303 305 307 309 309 308 309 310 310 309 309 308 308 309 308 308 308 307 308 308 309 306 304 304 305 306 306 307 308 308 307
302 303 305 306 310 309 308 305 305 301 305 304 303 304 304 301 301 305 307 305 307 308 308 309 308 308 308 308 306 307 306 308 308 306 306 305 306 307 307 305 305 308 307 308 307 306 308
302 303 306 307 307 308 308 304 301 300 303 303 301 303 304 302 300 302 303 305 303 303 304 307 307 308 309 306 307 308 308 308 309 309 305 304 303 305 304 308 309 306 307 307 305 305 306
302 303 306 307 307 307 308 305 301 299 301 301 299 303 302 299 298 301 301 302 305 304 302 305 306 309 309 305 307 305 307 306 308 308 308 306 305 305 306 307 306 305 306 307 307 304 308
302 305 306 307 307 308 308 306 300 298 298 299 299 301 300 298 297 299 301 301 302 305 302 303 306 306 305 307 305 305 304 304 304 305 306 306 304 305 304 306 306 306 306 306 303 308 307
306 307 310 308 307 308 307 303 299 298 298 298 297 300 300 300 297 298 299 299 301 303 303 302 302 303 303 303 303 303 306 302 302 304 303 305 304 304 305 305 306 306 305 307 307 306 307

GFSGBSN_850_thetae_093.txt.gz
Theta_e
319 319 320 321 323 322 322 322 323 323 321 317 312 309 307 304 305 307 305 305 304 307 307 307 301 300 302 305 304 304 305 304 304 306 306 305 306 307 309 310 311 315 316 315 318 321 323
317 318 318 319 321 322 322 322 323 323 321 320 314 309 307 304 305 306 305 305 305 304 307 307 301 300 301 303 304 304 304 303 305 306 305 304 306 306 308 310 311 314 315 317 317 319 322
309 312 317 319 318 320 322 322 322 323 322 320 317 310 307 303 306 306 304 305 304 303 306 307 301 301 301 300 304 304 304 303 305 306 305 304 307 307 307 310 310 312 316 317 315 319 324
306 306 308 310 317 318 319 321 322 323 322 320 316 311 306 303 305 305 304 303 302 304 305 303 300 301 301 304 304 304 304 303 305 305 305 305 306 308 308 310 313 313 315 318 319 319 320
304 304 304 306 306 309 315 318 322 322 322 320 317 312 306 303 304 302 303 303 303 303 301 299 300 304 303 304 304 305 304 304 305 305 305 304 305 307 307 309 314 313 317 318 320 317 317
303 303 303 303 304 304 305 308 317 322 322 321 319 314 306 304 303 301 304 303 301 304 303 303 304 304 304 304 304 304 304 305 304 305 306 306 307 306 305 311 314 314 318 318 320 321 318
302 303 303 303 302 304 303 312 315 319 321 321 318 311 306 303 302 301 303 303 304 305 305 305 304 304 304 304 303 303 304 304 305 306 308 306 309 309 308 312 312 313 316 318 317 319 318
303 302 302 301 304 303 304 309 314 317 321 320 318 312 305 303 301 303 305 306 306 305 305 305 305 304 304 304 304 305 304 304 306 307 306 308 310 308 309 309 312 315 316 316 319 319 318
302 301 301 301 302 302 303 304 313 318 321 320 319 311 304 301 302 304 305 305 305 304 305 306 306 305 304 305 305 304 305 305 306 306 308 310 311 309 308 310 315 315 317 319 320 319 317
301 301 301 301 301 302 302 302 310 315 320 319 318 310 303 301 303 304 305 305 304 303 295 303 306 305 305 306 303 305 305 305 304 308 310 313 311 310 309 315 314 317 317 320 320 320 324
300 300 300 300 302 300 301 302 307 312 318 318 318 307 302 304 305 304 305 304 303 303 294 302 305 306 306 307 306 306 307 307 309 312 311 313 314 311 314 316 315 317 317 318 318 318 319
300 300 300 300 300 301 301 301 305 311 315 317 316 305 301 305 305 305 305 302 302 294 295 301 306 306 307 307 308 307 308 308 308 312 312 312 311 313 313 314 316 316 317 316 317 317 319
300 300 301 301 301 301 302 304 305 312 314 316 312 302 302 305 305 305 303 303 299 294 302 302 304 306 307 308 309 309 310 311 313 314 312 312 312 312 312 315 316 316 316 320 319 319 319
301 300 299 301 300 302 303 306 306 312 314 314 305 303 305 305 305 303 303 299 295 304 303 306 306 306 306 307 308 309 309 309 310 309 308 313 309 314 312 314 316 314 314 316 319 316 313
302 300 300 300 300 301 305 307 311 314 312 308 303 305 305 305 304 303 305 297 298 303 304 306 306 308 306 308 308 308 309 310 310 310 311 308 314 312 313 313 314 314 315 310 310 308 310
301 301 299 299 300 302 308 311 313 314 311 305 305 305 306 304 304 306 300 304 302 304 306 306 307 306 307 307 308 308 308 309 310 309 308 310 311 310 313 313 314 313 310 313 310 315 312
301 300 300 300 300 304 310 312 314 311 308 304 306 304 305 304 305 305 300 301 305 308 308 308 308 308 307 308 308 310 310 310 309 309 308 308 307 310 310 312 315 314 313 310 309 307 310
301 300 301 300 301 306 310 312 314 310 305 306 306 304 303 303 304 303 302 304 308 308 310 309 309 310 306 307 309 311 312 311 310 310 311 309 308 306 313 311 312 313 315 308 307 310 303
300 300 300 302 305 309 311 312 314 311 306 306 304 304 304 304 301 302 303 309 308 308 308 309 310 310 309 309 311 310 311 311 311 309 310 309 306 303 306 307 309 312 313 310 307 305 306
300 299 301 303 307 311 313 314 312 309 305 306 305 305 304 306 305 303 307 309 310 310 309 310 309 309 309 310 308 311 311 311 311 310 310 309 306 306 305 308 308 312 312 313 309 304 310
299 300 302 304 307 312 314 313 313 305 306 306 304 302 304 305 305 305 305 308 309 310 309 309 309 309 309 311 310 311 311 311 311 310 309 307 308 302 308 309 309 311 312 311 305 311 310
299 301 303 304 311 311 313 311 306 304 306 307 305 303 304 301 303 303 305 308 309 309 308 309 309 308 308 309 309 310 310 310 310 309 308 305 305 303 306 307 308 310 309 308 309 310 310
297 302 303 305 309 309 309 307 305 305 306 306 305 304 305 303 301 303 304 306 309 308 309 308 307 307 307 307 307 308 308 309 309 309 308 307 306 304 306 305 306 306 308 307 308 308 310
299 302 303 307 309 308 306 305 304 306 305 304 305 306 305 303 303 304 305 308 308 308 309 308 308 308 308 308 308 308 307 307 307 304 306 308 307 305 304 304 303 305 303 305 307 307 306
300 302 304 306 309 308 305 303 306 305 305 302 305 304 305 301 302 305 306 305 307 308 307 308 307 308 308 308 305 306 305 307 307 304 304 304 305 306 306 305 304 307 307 307 307 306 307
301 302 305 306 306 308 305 304 304 305 305 302 303 303 305 303 300 301 303 305 303 303 304 306 307 308 308 304 305 308 307 307 308 308 304 303 302 306 303 307 308 304 307 307 304 305 304
301 302 305 307 306 308 306 304 303 303 306 305 301 302 302 298 297 300 302 303 305 304 302 305 307 308 308 304 306 305 306 305 308 307 307 305 304 305 306 306 306 304 305 306 307 303 304
302 304 305 306 306 307 307 304 304 302 302 304 301 302 300 298 297 299 300 302 304 306 303 304 306 306 304 306 304 304 304 303 303 304 305 305 304 305 303 305 305 305 305 306 303 306 306
304 308 307 307 307 306 306 305 303 301 300 301 299 300 301 302 297 298 299 300 303 304 305 303 302 303 304 302 302 302 305 301 301 304 302 306 303 304 304 304 305 306 304 305 304 304 304

GFSGBSN_850_thetae_096.txt.gz
Theta_e
310 310 311 312 313 315 316 318 321 321 323 322 322 319 316 309 306 306 307 306 305 304 307 307 307 301 300 304 303 304 306 305 303 305 306 305 305 307 307 307 310 311 312 315 315 319 320
305 307 306 307 308 311 313 316 317 320 322 323 322 320 316 310 306 307 307 305 306 304 305 307 306 301 300 302 301 304 304 304 303 305 306 305 304 305 306 307 309 310 311 313 316 316 318
304 306 305 304 305 306 307 311 315 318 318 320 322 321 317 310 306 307 307 304 304 302 305 307 306 301 301 300 303 304 304 304 303 305 305 304 303 305 306 307 308 310 312 311 314 317 316
304 304 303 305 305 304 304 305 308 308 314 317 320 321 317 313 305 306 305 304 301 302 305 305 304 301 300 302 304 304 304 304 303 305 305 305 304 306 307 307 309 309 312 315 314 317 316
305 304 304 304 303 303 304 304 303 306 309 315 319 321 318 310 305 304 303 303 303 303 303 301 300 303 303 304 304 304 304 304 304 305 305 305 305 306 306 309 309 310 311 314 319 316 316
303 303 303 304 303 303 303 303 304 301 308 314 318 318 314 310 304 303 302 303 301 301 300 300 303 304 303 303 303 303 303 303 304 304 305 305 303 307 307 309 309 310 313 313 316 319 316
303 304 303 303 303 302 303 303 303 302 306 315 317 315 316 309 304 302 304 301 303 305 305 305 304 303 303 304 304 303 303 304 304 305 307 305 306 308 306 308 307 310 314 316 317 318 316
304 304 303 302 302 302 302 302 302 302 303 313 315 316 315 307 303 302 303 304 305 304 305 305 305 304 304 304 304 304 304 304 306 305 305 307 309 308 307 310 310 311 314 317 319 316 316
302 303 302 302 302 301 301 302 302 301 302 311 313 316 312 306 302 303 304 305 305 305 305 306 306 306 304 304 305 304 304 304 305 306 304 308 309 308 309 310 314 312 315 318 319 317 318
303 302 302 302 302 301 301 301 302 301 300 310 311 313 309 306 302 304 304 305 305 303 294 300 305 305 305 306 303 305 305 305 304 307 309 310 309 308 308 313 314 315 314 317 318 319 322
302 302 302 300 300 301 301 302 302 301 299 304 310 312 310 305 304 304 305 304 304 303 293 300 305 306 306 306 306 305 307 306 308 311 310 313 311 311 312 315 313 316 316 317 317 319 320
302 302 302 302 300 301 301 301 302 302 300 302 311 311 305 303 305 304 304 304 302 295 293 299 305 306 306 307 308 308 308 308 309 311 313 310 304 308 313 314 315 314 315 315 316 316 317
301 303 302 302 302 300 301 300 301 302 303 304 310 309 305 303 304 305 304 302 299 293 299 302 304 305 305 307 308 309 310 312 311 311 311 312 314 313 312 314 315 314 312 314 315 317 316
301 302 302 302 301 300 300 301 302 302 304 304 309 306 303 305 305 304 302 300 297 302 301 305 305 306 306 306 307 308 309 310 309 307 305 304 313 314 313 315 317 315 313 312 318 317 314
303 302 302 302 301 300 300 301 302 304 305 307 307 304 303 305 305 302 305 298 298 300 303 305 306 307 305 307 307 307 308 309 309 308 307 309 315 311 312 313 314 315 310 309 308 307 311
301 302 302 301 301 301 300 301 304 310 307 307 304 303 304 305 303 303 301 304 301 303 305 305 307 306 307 306 307 308 307 309 309 308 307 309 315 311 313 313 313 312 310 311 307 311 312
302 301 301 301 300 300 302 304 308 311 308 305 305 304 305 304 305 305 302 300 305 307 307 308 307 306 306 307 307 309 310 310 308 308 307 307 307 311 310 312 314 311 312 309 308 307 311
301 300 301 300 300 302 305 309 311 309 305 305 303 304 304 304 304 304 304 303 307 308 309 309 308 307 305 307 308 310 311 310 309 308 310 308 306 310 313 310 311 312 313 307 308 310 302
300 301 300 300 303 304 308 310 311 309 307 305 302 303 304 305 303 303 302 307 308 308 308 309 310 309 307 308 311 310 310 310 310 308 309 308 305 302 306 307 308 311 312 308 305 304 305
300 300 300 303 306 309 311 310 311 310 306 307 303 305 303 304 305 301 305 308 309 309 308 309 308 308 308 309 307 310 311 310 311 310 309 307 304 305 304 307 308 312 312 311 307 304 308
299 299 301 304 309 311 311 311 311 308 306 306 304 303 304 304 305 304 305 308 308 309 308 308 309 308 308 310 309 311 310 310 310 309 307 305 307 302 307 309 308 311 311 310 304 309 308
300 299 303 306 311 312 311 311 308 306 305 305 303 302 303 301 304 305 305 307 308 308 308 309 308 308 308 309 308 309 309 309 310 308 307 304 305 302 305 305 307 309 308 308 309 310 309
296 302 304 307 310 311 311 309 306 306 305 305 304 303 304 303 300 305 303 306 308 307 308 308 307 306 307 307 307 308 307 307 307 308 307 306 305 304 305 304 305 305 307 307 307 307 309
297 303 305 308 309 308 308 307 307 305 305 303 304 305 303 304 302 303 304 307 307 308 308 307 308 307 307 307 307 307 307 306 305 303 305 306 305 304 303 302 301 303 303 304 306 305 306
300 303 306 307 308 307 307 306 306 305 304 303 303 303 305 303 302 304 305 305 306 307 306 306 307 308 308 307 304 306 304 307 305 302 302 303 303 305 305 303 303 306 306 306 306 306 303
301 302 306 307 308 307 306 305 307 305 304 301 302 303 305 304 301 300 303 306 303 303 304 305 307 307 308 303 304 307 306 307 308 307 303 302 301 303 303 306 307 303 306 306 303 304 302
301 302 305 307 307 308 306 305 306 305 303 303 301 301 303 299 297 300 302 304 305 303 302 304 307 308 307 303 306 304 306 304 307 308 307 304 303 305 306 305 304 303 304 305 307 303 303
303 305 305 307 307 307 306 305 305 304 303 305 303 301 301 299 297 299 301 303 304 306 304 304 306 306 303 305 304 303 303 303 303 303 304 305 303 304 303 305 304 304 304 306 303 304 303
304 307 307 307 307 306 306 305 304 304 304 304 304 300 302 303 298 298 299 302 303 304 305 304 303 303 304 302 301 301 304 300 299 304 301 305 302 303 302 303 303 305 304 303 302 300 301

GFSGBSN_850_thetae_099.txt.gz
Theta_e
306 306 306 307 305 305 307 308 309 311 314 316 318 320 320 319 316 311 307 308 307 305 304 307 308 305 300 302 301 304 307 307 304 303 304 305 305 305 305 306 308 310 311 311 313 313 316
305 305 305 304 304 305 305 305 306 306 309 314 316 318 320 320 318 312 307 307 305 306 304 306 307 305 300 300 300 303 304 304 303 303 305 305 305 304 305 305 307 308 308 309 310 314 316
305 304 304 305 305 305 305 304 305 305 305 306 310 314 319 317 312 308 308 307 304 304 304 306 307 305 301 300 300 303 304 303 304 302 304 305 304 303 305 306 306 307 309 310 310 311 317
304 304 304 304 304 304 305 304 303 303 304 305 309 315 317 316 312 308 304 304 302 303 304 306 306 303 300 300 301 303 303 303 303 303 304 305 305 304 304 305 307 307 308 312 311 311 316
304 304 304 304 304 304 303 303 303 303 303 301 306 312 316 315 311 307 303 302 303 305 305 305 303 300 302 303 304 303 304 304 304 304 304 305 305 304 304 308 306 308 310 313 314 312 315
303 304 303 303 304 304 303 303 303 302 302 298 307 311 315 314 310 306 302 303 304 303 301 300 301 303 302 303 303 303 303 303 303 304 304 305 305 306 307 309 307 310 309 312 316 316 314
304 304 304 304 304 303 303 303 303 303 303 297 304 310 315 313 310 306 303 303 303 305 303 304 303 303 303 304 304 303 303 303 304 305 304 305 305 307 305 306 307 310 309 311 315 317 315
303 304 303 303 303 304 303 303 302 303 302 300 303 310 313 313 309 306 303 301 304 304 304 305 304 304 304 304 304 304 304 304 305 304 305 305 308 307 306 306 307 307 310 315 316 316 316
303 303 303 303 304 303 302 302 302 302 302 302 304 309 312 311 306 307 303 302 305 305 304 305 305 306 305 304 305 304 304 304 304 304 304 306 308 308 308 308 309 306 312 316 316 317 316
302 303 304 302 304 303 303 300 301 301 302 301 304 307 311 308 307 304 303 303 305 304 294 300 305 305 305 305 304 304 305 305 306 307 307 308 307 310 308 309 311 313 313 316 317 319 322
302 302 302 302 303 302 303 302 301 301 301 301 305 305 309 307 306 305 304 305 304 304 293 299 304 305 306 307 307 307 306 306 308 308 307 312 311 308 312 312 313 313 315 316 317 319 319
301 302 302 303 304 303 303 302 301 301 301 301 303 306 308 307 306 304 305 304 303 295 293 299 305 305 306 307 308 308 308 307 307 308 307 307 306 309 313 313 312 314 315 315 316 316 319
301 302 301 303 303 302 301 301 301 301 303 302 304 308 307 307 305 304 304 302 299 295 299 302 303 305 305 306 308 309 310 311 310 310 311 311 311 312 312 316 314 313 312 316 316 317 318
301 301 302 303 303 302 301 301 300 301 303 302 305 307 306 305 303 304 302 300 297 301 300 304 305 305 305 306 307 307 308 308 308 305 308 313 317 313 313 315 316 314 311 313 317 318 316
301 302 302 302 302 302 301 301 301 302 302 303 304 306 304 304 304 304 303 297 299 299 302 305 305 305 305 306 307 306 307 308 308 307 308 314 315 312 313 313 314 314 311 309 309 308 315
301 301 301 302 302 301 301 300 300 302 303 305 306 304 304 303 304 302 299 303 301 301 304 304 305 305 307 305 307 307 306 308 308 306 307 309 317 312 312 313 313 312 309 311 310 313 312
300 300 301 303 301 300 301 302 304 306 306 305 304 302 303 304 303 303 298 300 304 305 306 307 306 306 305 307 307 308 308 309 307 308 305 306 309 312 311 312 314 314 313 308 307 307 312
299 301 301 301 300 302 304 308 309 307 308 305 303 303 304 304 303 302 303 302 306 307 308 308 307 306 306 306 308 309 310 310 309 308 309 307 307 311 312 309 309 311 312 306 310 311 303
300 301 301 301 304 306 308 310 308 308 307 305 302 303 304 304 304 303 302 306 307 307 308 309 309 308 305 308 310 309 310 310 309 308 309 307 305 305 308 307 308 310 310 306 305 305 306
300 299 301 304 309 310 309 310 308 306 306 306 303 303 303 305 303 301 304 307 308 308 307 308 307 307 308 308 306 309 310 310 310 309 309 306 304 304 304 307 307 311 311 309 306 307 309
299 301 304 311 311 310 310 308 306 306 307 309 304 304 303 304 304 302 304 306 308 309 308 307 308 308 308 309 309 310 310 309 309 308 306 305 306 301 305 307 307 310 310 310 304 308 309
303 304 309 309 311 310 309 306 306 307 308 309 303 302 303 302 304 303 305 307 307 307 308 308 307 307 307 308 308 309 309 309 309 306 306 303 305 301 305 305 305 309 307 307 309 309 310
303 306 309 308 310 308 307 306 306 306 307 305 303 303 303 303 303 306 305 305 307 306 307 307 306 306 307 307 307 307 307 306 306 307 306 305 304 304 306 304 305 306 306 307 307 307 308
302 305 308 307 308 308 307 306 306 306 307 305 304 304 302 303 303 305 304 306 306 307 307 306 307 306 306 306 306 306 306 305 304 302 303 305 304 304 303 301 301 303 302 304 305 302 303
302 305 306 307 307 308 308 306 305 306 302 303 303 303 303 302 302 303 304 304 306 306 305 305 306 307 307 306 304 305 304 307 304 301 301 302 303 304 305 303 301 305 305 305 306 304 302
302 304 306 306 306 307 307 307 306 303 301 302 301 304 304 303 301 299 303 304 303 303 303 305 306 307 307 301 303 306 305 306 307 307 302 302 300 304 303 305 305 301 305 305 303 304 302
303 305 305 306 306 307 307 307 306 305 303 304 301 302 305 299 298 300 301 303 305 303 301 305 307 308 306 303 305 304 304 303 306 307 307 304 302 305 306 303 304 301 303 304 307 302 303
304 306 306 306 307 307 306 306 306 306 305 304 303 302 302 300 298 299 301 303 304 305 303 305 305 305 303 305 304 303 302 302 303 303 303 304 303 304 303 305 303 304 303 304 302 302 301
305 307 308 306 306 306 306 305 305 306 304 305 304 301 303 304 299 299 300 302 303 304 306 304 303 303 304 302 300 300 303 298 299 304 300 304 301 303 303 303 302 304 303 303 301 299 299

GFSGBSN_850_thetae_102.txt.gz
Theta_e
306 305 305 305 305 305 305 305 305 305 305 306 307 312 315 318 319 316 313 309 307 306 306 305 307 307 304 304 303 303 309 308 307 304 304 305 305 305 305 305 306 307 308 308 310 311 312
306 305 305 305 304 305 304 305 305 304 304 305 306 309 313 314 319 316 312 309 305 305 306 304 306 307 303 303 300 302 304 305 304 303 305 306 305 305 305 305 306 305 306 306 309 310 312
304 305 304 304 303 304 304 304 304 304 304 304 306 307 314 314 318 315 309 308 304 304 304 303 307 307 304 303 300 303 303 304 303 304 304 305 305 305 305 305 305 305 307 308 308 308 312
305 305 304 304 304 303 304 304 303 304 304 303 304 305 310 312 316 313 309 307 305 302 303 303 307 306 303 300 300 303 304 303 303 303 303 305 305 305 305 305 306 308 307 308 308 311 311
304 304 305 304 304 304 304 304 304 303 304 303 303 305 309 311 315 313 310 308 304 305 306 306 306 304 302 302 302 304 304 304 305 304 304 305 306 305 303 307 310 307 306 306 308 311 313
304 304 304 305 304 304 303 304 304 304 304 303 302 303 308 312 314 311 308 304 304 306 305 305 301 303 304 304 303 303 303 303 304 305 305 305 306 306 307 307 310 307 307 306 309 312 314
304 304 304 304 305 305 305 304 304 303 303 303 301 303 311 314 313 310 308 305 303 304 302 304 305 304 303 303 304 304 303 303 304 304 304 304 306 308 307 308 308 308 307 308 311 311 314
304 304 304 303 303 303 303 303 303 302 302 302 302 303 308 311 309 308 305 304 303 304 306 303 304 304 304 304 305 304 304 305 305 306 304 306 307 307 307 307 307 309 310 311 314 315 315
303 303 304 304 303 303 303 303 302 301 302 301 300 305 309 310 309 308 306 305 305 304 306 306 305 305 305 304 306 306 304 305 305 306 306 307 307 305 308 306 307 309 310 312 316 317 317
303 304 303 303 302 303 302 303 303 302 301 301 301 306 310 308 307 308 305 304 305 304 308 305 306 306 305 305 307 305 304 305 306 308 308 308 307 308 309 308 308 310 309 313 316 319 322
303 302 303 302 302 302 303 303 303 303 301 301 302 304 308 309 310 307 306 303 305 304 310 303 306 305 306 308 308 308 306 306 306 307 306 311 309 308 309 310 310 312 311 316 318 319 320
301 300 301 302 302 304 303 303 302 302 301 301 301 303 307 308 308 306 304 304 303 307 306 306 306 307 308 308 308 309 308 306 306 306 309 309 308 310 313 312 311 314 315 316 317 318 321
300 301 302 303 302 303 303 303 302 302 302 302 302 304 306 308 308 306 305 304 309 309 302 307 308 307 308 309 309 310 311 312 312 315 313 311 313 312 313 315 315 316 318 320 319 321 319
302 302 301 301 302 302 303 302 302 301 302 302 302 306 307 306 306 304 304 306 310 304 306 305 307 307 310 309 309 309 312 314 312 311 315 317 318 314 314 316 316 316 315 318 318 318 319
300 299 299 301 302 302 302 302 301 302 302 301 305 306 306 305 304 304 304 310 310 306 306 308 307 309 310 308 309 310 311 313 312 311 315 316 317 313 314 315 316 316 316 311 315 316 319
300 300 300 301 302 302 300 301 301 301 302 303 305 306 304 303 304 303 307 308 308 303 306 306 308 308 310 310 311 311 312 311 312 311 309 312 319 313 312 314 315 315 311 316 317 319 317
301 299 300 300 300 300 300 302 302 303 302 304 304 303 304 303 303 303 308 307 307 306 306 308 308 309 309 310 311 312 312 311 311 312 310 310 315 315 314 316 316 317 315 312 312 313 315
300 301 301 301 302 303 303 305 304 304 304 304 304 304 303 303 304 304 306 305 306 307 308 310 308 308 310 309 312 312 313 312 310 310 312 310 314 317 316 312 311 313 314 312 317 314 311
303 307 311 311 310 308 308 306 306 307 305 305 303 303 303 303 306 305 304 307 308 309 310 310 311 309 308 311 312 312 312 311 310 311 312 310 312 317 316 313 312 315 314 313 311 314 313
308 311 310 309 308 308 308 308 306 305 306 306 304 304 304 303 303 304 307 309 309 308 310 309 309 309 310 311 311 312 312 312 311 310 308 309 310 311 314 313 312 314 314 313 313 321 314
309 310 309 309 308 308 307 306 305 306 306 307 304 305 304 306 305 305 306 309 309 310 309 308 310 310 311 311 311 312 312 311 311 308 309 311 312 309 310 310 311 313 313 313 314 312 316
309 308 309 308 307 308 307 307 306 306 307 310 304 304 303 304 304 305 307 310 309 309 310 310 311 309 310 311 310 311 311 311 312 311 310 309 312 309 311 309 310 311 310 310 312 312 313
306 309 309 309 309 307 306 306 307 308 310 308 303 303 304 303 304 306 308 309 309 309 308 307 309 310 311 309 308 307 307 307 308 310 311 310 311 311 313 308 308 311 308 309 310 310 310
306 307 308 307 308 307 308 307 308 309 309 305 303 303 304 304 304 306 307 307 309 309 310 307 307 310 307 306 306 306 307 307 308 307 307 310 310 310 312 307 310 307 305 306 307 307 307
304 306 307 308 307 307 307 307 307 304 304 304 304 304 303 304 304 305 306 308 307 307 307 307 306 306 306 306 310 310 310 310 309 307 307 308 309 310 310 308 306 307 307 307 308 308 306
304 304 306 307 308 307 307 306 306 303 302 305 305 304 303 303 304 301 307 306 309 309 308 307 306 306 306 307 309 309 309 309 309 309 306 307 308 310 310 309 306 308 307 305 305 309 306
304 305 305 306 307 308 307 307 305 303 303 303 303 304 304 301 299 301 306 308 305 306 309 308 307 308 306 309 310 310 309 306 309 309 310 310 310 311 310 310 308 306 305 305 309 307 305
305 305 306 306 306 307 307 307 306 304 303 302 302 304 303 301 299 300 302 303 304 306 310 306 308 308 308 311 310 309 308 308 308 307 308 309 310 310 309 311 309 305 305 308 306 304 302
306 307 307 306 306 306 307 307 306 306 305 304 302 302 305 305 300 301 302 303 304 305 305 305 305 306 307 310 307 306 308 305 306 309 304 308 307 308 309 309 305 305 305 304 303 302 301

GFSGBSN_850_thetae_105.txt.gz
Theta_e
306 306 306 305 305 304 304 305 304 305 305 305 305 307 309 312 315 319 317 315 311 307 306 306 306 307 307 306 305 305 306 309 309 307 304 304 305 305 305 305 305 306 308 309 309 310 311
306 307 306 305 305 305 304 304 304 303 304 305 304 305 306 312 313 318 317 315 311 306 307 306 305 306 306 307 302 305 306 307 305 305 305 305 305 305 306 305 306 305 305 306 306 308 310
307 306 306 306 305 305 305 305 304 304 303 304 304 304 305 312 312 317 316 313 311 307 305 305 306 307 307 307 302 304 304 304 305 305 305 305 305 305 305 306 305 306 307 306 306 307 309
305 305 305 305 305 305 304 305 305 304 303 304 304 302 303 309 312 316 314 313 310 304 302 302 308 307 307 303 303 302 304 305 305 305 305 305 305 305 305 306 306 307 308 309 307 306 308
305 305 305 305 305 305 305 304 304 304 304 303 303 301 300 308 309 313 312 311 307 305 305 306 307 308 305 303 303 303 304 305 305 306 306 305 306 306 306 306 307 307 309 308 307 306 309
304 304 304 304 305 304 304 304 304 304 305 303 303 299 308 308 310 313 311 309 305 307 306 306 305 305 304 305 305 304 304 304 305 305 306 306 306 306 306 306 308 310 309 307 307 306 309
304 303 303 304 304 304 303 304 304 304 304 302 303 299 308 312 312 312 310 305 305 305 305 305 306 306 304 304 304 305 305 305 305 305 306 305 306 307 306 307 308 309 308 307 307 306 311
303 304 303 304 304 304 304 304 304 303 303 302 302 299 307 310 311 306 308 305 306 307 307 304 306 305 306 306 306 306 305 306 306 307 306 306 307 306 308 308 310 311 309 309 309 309 311
303 303 302 303 302 304 303 304 303 304 302 301 301 300 306 308 308 308 306 304 303 305 308 307 306 307 307 306 307 307 306 307 307 308 308 308 308 307 308 309 309 309 310 310 312 312 313
301 301 301 301 301 302 303 303 303 303 302 301 301 304 306 309 308 306 306 305 305 305 312 308 308 308 307 306 308 308 305 306 307 308 308 309 307 308 309 309 308 309 309 309 314 315 318
300 301 301 302 302 303 303 304 303 302 302 301 301 302 308 308 309 307 308 304 305 305 315 307 308 307 308 308 310 309 306 305 308 309 306 312 309 309 311 309 308 311 312 311 316 318 321
300 301 302 302 302 303 303 303 303 303 302 301 301 303 306 308 308 307 304 304 304 315 312 309 308 310 309 310 311 311 309 306 306 307 309 309 308 309 311 312 310 311 313 314 317 319 320
301 300 300 301 301 302 303 304 304 303 302 301 300 302 306 307 307 304 304 304 313 315 304 309 310 309 311 312 311 311 313 312 314 316 317 313 313 312 313 314 311 310 317 322 322 322 320
301 301 300 301 302 303 303 302 302 302 302 302 301 303 305 306 306 304 304 307 316 307 309 308 309 310 312 311 312 312 314 316 312 313 316 318 316 312 314 316 317 312 317 320 323 322 321
301 301 301 302 302 303 302 302 302 302 301 302 304 306 306 306 305 304 305 313 312 309 308 310 309 312 312 311 311 312 314 314 313 312 317 318 318 314 315 316 316 317 316 312 318 317 319
303 304 302 301 301 302 301 301 301 302 301 302 305 305 304 304 303 304 309 310 310 306 308 309 311 311 312 312 313 313 314 313 314 312 311 315 317 315 316 316 317 314 312 318 321 320 318
309 309 310 303 303 300 300 302 302 301 303 305 305 304 303 303 304 305 311 310 309 307 308 310 310 311 311 312 313 313 313 313 313 313 312 313 317 317 316 317 316 317 317 315 314 315 316
309 308 310 308 305 304 303 303 302 302 304 306 304 305 303 303 306 307 309 308 307 308 310 311 310 311 312 312 313 313 314 314 312 312 313 312 316 318 317 314 312 314 315 315 320 315 316
308 307 308 307 304 303 304 302 302 303 304 305 303 303 303 304 309 308 308 309 309 310 311 311 312 311 311 312 314 313 313 312 312 313 313 311 314 318 317 316 314 315 314 314 314 319 316
308 308 307 306 305 304 305 303 303 304 305 305 305 305 303 305 305 307 309 310 309 310 311 310 311 311 312 312 312 313 313 313 312 311 309 311 313 315 318 316 314 315 314 314 317 323 317
308 308 307 307 305 304 305 306 307 304 306 306 307 305 305 306 307 307 307 310 309 311 311 310 311 312 312 312 312 312 313 312 312 310 311 314 314 312 312 312 313 313 313 314 315 315 317
307 307 308 306 306 306 306 305 305 306 306 308 308 306 305 305 306 307 308 311 309 310 311 311 312 311 312 312 312 312 312 312 313 312 312 312 313 311 312 311 312 311 311 313 313 314 314
307 307 307 307 306 306 306 306 306 306 308 309 305 305 307 305 306 307 309 311 310 310 310 310 311 312 312 311 310 310 310 310 311 312 312 312 313 314 314 310 310 313 310 311 311 310 312
306 307 307 307 307 307 307 307 308 308 309 307 305 306 306 306 306 308 308 310 310 311 311 309 310 312 309 308 308 310 310 310 310 310 310 311 312 312 313 310 313 310 308 308 309 309 310
304 305 306 307 307 307 307 305 304 304 304 304 304 306 306 306 306 307 308 310 310 309 310 310 309 307 307 308 312 311 311 311 310 310 310 310 311 311 312 309 309 308 307 308 309 310 309
304 305 305 306 307 306 306 304 303 303 304 304 304 305 306 306 306 306 309 310 311 311 311 309 307 307 308 310 311 311 310 309 309 310 309 310 310 311 310 310 308 310 308 308 308 310 308
304 304 305 306 306 307 307 307 303 303 302 303 305 305 305 305 301 304 309 309 308 310 312 310 309 310 308 312 312 311 310 308 310 309 310 311 311 312 311 312 310 309 308 307 310 311 307
305 306 306 306 306 306 308 307 307 304 304 303 302 304 305 304 301 304 304 305 307 309 312 310 310 310 311 312 312 311 310 310 309 309 310 310 310 311 311 311 311 307 307 309 309 307 306
306 307 308 307 306 306 307 307 307 305 305 304 302 302 304 305 302 303 304 305 305 305 307 307 309 310 311 312 310 310 310 309 309 309 307 309 309 310 310 311 307 307 308 306 307 306 304

GFSGBSN_850_thetae_108.txt.gz
Theta_e
308 308 307 308 307 307 306 306 306 305 305 305 305 306 305 306 310 314 318 318 318 314 312 306 306 308 307 308 307 306 309 309 310 308 305 304 305 305 305 305 305 305 306 307 307 309 310
308 308 307 306 306 306 306 306 306 305 305 304 304 305 305 305 310 313 317 318 317 313 309 306 307 306 307 307 304 306 307 308 307 306 305 305 305 305 305 305 305 305 305 305 305 306 306
307 306 305 305 306 305 306 305 306 305 305 305 304 303 301 306 311 311 315 316 315 311 307 306 305 307 308 306 303 304 306 305 305 305 305 305 305 305 306 306 306 306 307 307 307 306 306
305 305 305 304 305 305 305 306 305 305 305 305 305 304 301 303 310 313 315 315 312 311 305 304 307 307 308 306 305 304 304 304 305 305 305 305 305 305 305 305 306 306 306 307 307 307 306
303 304 304 304 303 304 304 304 304 304 304 304 305 304 300 300 308 310 312 313 311 304 303 305 308 308 306 304 302 303 304 305 305 306 305 305 305 306 306 306 306 306 306 307 307 308 308
303 304 302 304 303 304 304 304 304 304 304 304 304 303 301 308 305 310 311 310 306 307 306 307 307 306 305 306 305 305 305 305 305 306 305 306 306 306 306 307 304 306 308 310 309 308 308
303 303 303 302 305 302 304 305 304 305 305 304 303 302 303 310 309 309 311 307 307 307 307 306 306 306 305 305 304 305 305 305 305 305 305 305 306 305 305 306 305 306 308 308 308 308 307
303 304 301 302 303 303 302 303 302 304 304 303 301 301 302 306 309 310 309 306 306 307 306 305 306 306 306 306 307 306 305 305 306 306 305 307 307 306 306 307 308 309 309 309 309 309 308
302 303 303 302 303 303 304 303 303 304 304 302 301 301 300 306 307 308 308 306 305 306 308 306 306 307 308 307 307 308 306 307 307 309 309 309 308 308 308 308 308 309 309 309 310 310 309
302 302 302 302 303 303 304 304 303 303 303 302 301 301 303 307 308 308 307 304 305 306 312 307 308 308 307 307 308 308 307 307 307 308 309 309 307 308 308 308 308 309 309 309 310 311 314
302 302 301 301 303 303 304 304 303 303 302 301 301 308 308 307 307 308 308 305 304 305 316 308 308 307 308 309 310 309 307 306 308 309 307 311 310 308 307 309 309 308 309 314 310 314 314
301 302 301 301 302 302 303 303 303 302 302 301 301 306 307 308 308 308 306 305 304 310 309 307 309 310 310 309 311 309 308 307 307 308 308 309 309 309 310 312 312 311 312 313 310 313 320
304 303 301 302 303 303 304 303 303 302 302 302 300 305 307 307 306 305 304 305 310 314 305 309 310 310 311 313 312 312 313 312 313 314 311 313 312 311 312 314 312 311 313 319 321 321 323
309 308 302 302 303 303 302 304 303 303 302 301 300 304 307 307 307 304 305 308 310 308 310 309 310 311 312 312 312 312 315 315 313 313 315 315 311 313 315 313 313 314 316 319 322 323 323
311 310 305 302 303 302 302 302 303 302 301 302 303 302 305 306 306 304 307 313 311 310 309 311 310 312 313 312 311 313 314 314 313 312 315 318 316 314 314 315 316 317 316 313 319 317 319
310 309 307 302 303 302 302 302 302 302 301 303 302 305 305 305 305 304 310 310 309 307 309 310 312 311 312 312 313 313 315 313 313 312 311 314 317 315 316 316 316 316 313 316 317 322 321
309 307 305 302 302 302 302 302 301 300 304 305 305 304 303 304 304 306 312 310 309 307 309 311 311 312 311 312 313 313 313 313 312 312 312 313 316 316 316 316 315 316 315 314 313 314 315
307 305 304 302 302 302 302 302 300 301 305 305 304 305 304 304 307 308 310 308 308 309 311 311 311 311 312 312 313 313 313 313 312 312 313 312 314 316 317 314 312 313 313 313 313 317 313
308 307 304 303 303 302 301 302 302 302 305 305 304 303 303 305 311 309 308 309 309 311 311 312 312 312 312 312 314 313 312 312 312 312 311 311 312 313 316 314 313 314 313 313 314 315 313
307 307 306 304 304 303 302 302 304 305 305 306 305 305 304 305 307 307 310 310 309 310 311 311 311 312 312 312 312 313 313 313 312 310 310 311 312 313 311 314 314 313 313 313 314 312 314
308 307 306 305 304 302 302 302 303 306 306 309 308 305 305 307 307 308 309 310 309 311 311 311 312 312 311 311 312 312 312 312 312 311 312 312 312 308 311 312 312 311 312 312 311 313 312
308 308 306 306 305 305 303 304 304 306 306 309 309 307 305 307 306 308 308 311 309 310 311 311 312 312 311 312 312 312 311 311 311 311 312 311 311 311 311 310 311 309 310 311 311 312 311
307 308 308 306 306 306 306 306 305 306 306 309 307 307 307 306 307 308 309 311 310 310 310 310 310 312 311 310 310 310 310 310 310 310 311 311 311 311 313 310 309 311 308 309 309 309 311
305 307 307 308 307 306 307 306 307 307 308 308 307 307 307 306 306 308 309 310 310 311 312 310 310 311 309 308 309 310 310 311 310 309 310 310 311 310 308 308 308 309 307 308 308 309 309
303 305 306 307 307 308 308 302 302 303 303 305 306 306 307 306 306 307 308 310 310 309 310 310 309 308 308 309 311 310 311 311 310 309 308 308 309 308 309 307 308 308 307 308 309 309 308
304 304 305 306 307 307 308 307 303 303 303 304 304 304 306 306 305 307 308 310 309 310 310 309 308 308 309 310 310 310 308 309 309 310 309 309 308 308 308 309 308 309 307 308 307 308 307
302 304 305 305 306 307 307 307 307 303 303 303 303 304 306 306 304 306 308 309 309 310 310 310 309 309 308 310 311 310 309 308 309 309 310 309 308 308 309 308 309 308 307 307 309 309 307
301 305 306 306 306 306 307 307 307 307 305 303 302 302 304 305 303 305 305 306 308 309 310 310 309 309 310 310 310 309 308 308 307 308 309 308 307 308 308 309 307 307 307 307 307 307 307
303 305 307 307 306 306 306 307 307 307 306 305 304 302 302 304 304 304 305 306 307 307 309 309 309 310 310 310 308 308 308 306 307 306 307 306 306 308 307 309 307 307 307 307 307 306 305

GFSGBSN_850_thetae_111.txt.gz
Theta_e
307 307 306 307 306 306 307 307 307 307 306 305 304 306 305 305 305 309 314 317 318 318 316 313 306 308 306 307 307 307 310 311 307 305 305 304 304 305 304 304 304 303 303 304 305 305 305
304 306 305 305 305 305 306 307 307 307 306 306 304 306 305 304 306 310 314 316 317 316 314 309 306 307 307 304 306 305 307 307 307 304 305 305 305 305 304 305 304 304 305 305 306 306 305
305 305 306 305 305 305 305 305 306 306 305 305 305 306 305 300 307 311 312 315 313 314 311 306 306 306 307 303 304 305 307 306 305 305 305 305 305 305 305 304 305 305 305 305 305 306 306
305 305 305 304 303 303 305 304 304 305 306 304 304 305 304 300 305 311 313 313 313 312 307 304 306 308 307 307 306 304 304 304 305 305 304 305 304 304 304 305 305 305 304 304 305 306 306
304 305 305 303 303 304 303 305 304 304 305 304 304 304 303 301 301 309 312 313 311 309 303 306 307 308 306 304 304 303 304 304 305 305 305 305 305 305 305 305 305 304 302 304 306 306 306
303 304 304 303 303 305 302 303 305 305 305 305 304 304 302 304 305 308 311 309 305 304 307 307 307 306 304 305 303 303 303 305 305 306 306 305 305 303 304 306 303 299 305 305 307 307 307
304 304 304 303 303 304 305 302 303 304 305 304 304 302 305 310 307 310 310 308 308 307 307 306 305 305 305 305 304 304 305 305 305 304 304 305 304 303 303 304 304 304 305 305 305 307 308
303 304 303 304 303 304 303 304 303 303 304 303 301 301 306 309 308 310 309 307 305 306 305 306 305 306 306 306 306 306 305 305 305 304 305 304 306 305 305 305 305 307 308 308 307 307 308
303 303 303 303 304 304 303 304 303 304 304 302 301 301 302 309 308 309 308 307 305 306 306 305 306 307 307 306 307 306 305 306 307 308 307 306 306 307 307 308 308 307 307 308 306 308 308
305 302 302 302 303 303 304 303 303 303 302 301 302 300 301 307 306 308 308 304 305 306 305 307 307 308 307 307 308 307 306 307 307 307 308 307 307 307 309 309 308 308 307 310 311 309 306
311 303 301 302 302 303 303 303 303 303 302 302 305 305 306 307 307 307 308 306 305 305 304 307 308 308 308 309 309 308 308 307 309 309 307 310 309 310 307 307 307 308 308 309 310 312 311
311 306 301 302 303 303 303 303 302 302 301 303 306 306 307 307 308 308 308 304 305 305 300 302 308 309 309 309 310 308 307 307 308 308 308 308 309 309 309 310 311 312 311 312 311 312 314
310 305 301 303 303 303 303 303 302 301 300 304 305 307 307 308 306 306 305 305 303 299 302 306 307 310 310 311 311 311 311 311 313 312 307 312 311 309 310 313 313 312 312 316 315 314 320
309 302 302 303 303 303 304 303 302 302 300 301 306 306 306 306 304 304 305 302 300 306 306 309 310 310 310 311 311 313 314 314 313 312 310 313 307 312 314 313 312 312 314 318 321 320 321
308 302 303 303 302 302 304 303 302 301 300 301 303 306 306 306 304 305 307 301 302 307 308 310 309 310 310 310 310 311 312 312 312 310 312 314 312 313 313 314 315 317 318 313 318 318 316
306 302 303 302 302 302 302 302 301 301 300 301 303 306 305 305 305 305 302 306 304 307 308 309 310 309 310 311 311 312 313 311 312 311 311 313 315 314 315 315 315 317 314 316 315 320 321
304 303 303 303 301 301 302 301 301 304 305 305 306 305 305 304 305 306 302 305 307 308 310 310 310 309 310 311 310 311 312 312 311 311 310 311 315 313 314 314 314 313 314 313 312 313 318
305 302 301 302 302 302 302 301 302 305 305 305 304 304 305 305 305 304 304 307 308 308 310 310 309 310 310 310 310 311 313 312 311 311 312 310 312 309 315 312 311 311 312 311 311 315 312
306 304 303 302 302 302 300 301 305 305 305 304 304 303 304 305 301 302 307 308 309 310 310 310 310 310 310 311 312 311 312 312 311 310 309 309 309 307 309 308 308 312 311 312 312 309 310
308 305 304 302 301 301 300 301 305 307 308 307 305 303 304 305 306 305 308 308 309 310 310 310 310 310 310 310 310 311 311 312 311 310 310 310 309 309 308 310 311 310 311 310 309 307 311
308 308 305 305 303 301 301 305 306 306 308 308 306 302 304 299 304 306 306 308 309 310 310 310 310 310 310 310 310 310 310 309 311 311 310 309 309 305 310 311 311 308 310 310 307 310 307
307 308 307 306 306 304 302 304 306 306 307 309 307 305 305 305 306 306 307 309 309 309 310 310 310 309 308 310 310 310 309 309 310 308 309 307 308 309 310 309 308 308 307 309 310 310 309
307 307 308 308 308 306 306 305 305 306 306 308 307 306 306 305 303 304 305 309 309 310 310 309 309 309 309 309 308 309 309 309 309 309 308 308 307 306 310 309 308 308 308 308 308 308 309
303 306 307 307 307 308 308 307 307 307 307 306 306 307 306 302 302 304 309 309 309 310 310 309 309 310 308 308 309 309 309 309 309 308 307 308 307 306 303 304 304 307 306 307 307 309 308
299 303 306 307 307 307 308 307 303 303 303 304 304 305 306 302 303 304 307 309 309 309 309 310 309 308 308 309 307 307 307 308 309 308 308 305 306 306 306 304 305 307 306 307 307 307 307
296 302 303 305 307 307 306 304 305 304 303 304 304 304 304 305 301 304 306 308 306 306 307 309 308 308 309 307 307 308 305 307 307 305 308 307 305 305 305 307 307 306 306 307 305 305 305
294 300 303 304 305 306 306 306 306 307 304 303 303 304 305 306 304 304 304 306 309 307 306 308 308 308 308 306 308 306 306 306 307 307 308 305 305 306 306 304 305 306 306 306 307 305 306
294 299 304 305 305 305 306 306 307 307 307 305 303 303 303 305 305 304 305 306 307 308 306 309 307 307 307 307 306 306 305 305 305 304 306 305 304 305 304 307 305 306 306 304 303 307 307
295 301 305 306 307 306 306 306 306 307 306 306 304 304 302 304 305 304 305 306 305 305 306 308 308 308 309 306 304 303 305 303 303 304 305 305 304 305 304 305 304 307 306 307 307 307 306

GFSGBSN_850_thetae_114.txt.gz
Theta_e
308 306 306 306 305 306 304 306 306 307 307 307 307 305 306 303 304 305 311 315 316 317 317 316 310 307 306 306 308 307 311 309 307 304 304 304 304 304 303 304 304 303 303 305 305 305 305
305 305 305 304 304 305 304 305 304 306 307 306 306 305 306 304 302 306 310 315 317 317 316 313 307 307 307 304 307 310 305 306 305 304 304 304 305 305 304 304 303 304 304 304 304 304 305
305 305 306 305 304 304 304 303 304 305 306 305 305 305 306 303 306 310 311 314 315 316 311 307 307 306 304 304 306 306 306 307 305 304 305 305 304 304 304 304 304 304 303 303 303 304 305
305 304 304 304 303 303 304 303 304 305 305 306 305 305 305 303 304 311 313 314 313 313 307 306 306 307 306 304 305 306 306 305 305 303 304 305 305 304 303 304 304 303 303 303 303 305 305
305 304 304 305 303 305 304 303 304 304 304 305 305 304 303 301 301 310 313 313 312 307 305 306 306 307 305 305 305 304 304 304 305 305 305 304 305 304 305 303 300 302 301 302 304 306 306
305 304 304 304 304 304 303 303 303 305 305 305 305 303 302 303 302 312 312 312 306 304 307 307 307 305 304 304 303 303 304 304 305 305 305 305 305 300 301 297 299 298 299 302 303 304 304
309 303 304 303 305 304 304 303 304 304 305 304 302 304 309 305 301 309 307 306 307 307 306 305 305 305 305 304 304 303 304 305 305 305 304 305 302 301 300 303 302 303 303 304 304 305 305
311 303 303 303 304 303 303 304 303 303 304 303 301 309 309 308 307 308 309 308 307 306 305 305 305 305 305 306 305 304 305 305 305 302 304 302 304 302 304 303 304 305 306 306 305 306 306
311 302 303 304 304 303 304 304 304 305 302 301 300 308 308 308 309 308 309 307 305 305 304 305 306 307 306 306 307 306 305 305 306 306 306 305 304 307 306 306 306 306 305 306 305 306 307
309 301 303 303 303 303 303 304 303 301 301 302 300 306 308 307 308 308 308 305 306 306 300 306 307 307 307 307 307 306 306 307 307 306 306 307 305 306 308 308 307 307 306 307 308 311 306
306 301 302 303 303 303 303 302 301 302 303 301 300 307 306 306 307 308 307 305 306 305 300 306 308 307 308 308 308 308 308 307 308 308 306 307 308 308 309 307 307 307 308 309 310 314 312
301 302 303 303 303 303 302 301 300 303 306 305 305 305 306 307 307 308 307 304 305 300 301 302 308 307 308 308 309 308 307 307 308 308 307 307 308 308 309 308 308 309 312 311 312 312 311
301 303 303 303 304 303 302 301 300 304 306 307 307 307 308 307 307 307 304 305 300 300 301 305 307 309 309 310 311 310 311 310 312 310 303 310 310 309 309 311 313 312 311 314 313 312 313
304 303 303 302 304 303 302 302 300 303 306 306 307 306 306 306 305 305 306 299 301 305 304 307 308 309 309 310 310 313 313 312 310 312 309 312 307 311 312 313 311 312 312 317 319 317 318
303 304 303 303 304 303 302 301 301 301 304 306 306 306 306 304 304 305 306 299 301 306 307 309 309 309 309 310 310 312 311 311 311 309 311 312 309 311 312 314 313 317 318 313 317 318 314
302 303 303 303 303 302 302 302 303 303 303 304 306 306 306 305 305 306 301 305 304 305 308 308 309 308 310 310 310 310 311 311 311 310 310 312 314 313 314 314 314 316 314 316 314 319 316
302 302 302 302 302 301 301 301 305 305 305 305 306 306 305 305 306 306 301 304 307 308 309 309 310 309 309 310 309 310 311 311 310 310 309 311 313 313 313 313 313 312 313 312 312 316 317
304 302 302 302 302 300 300 304 305 306 306 305 305 300 306 306 305 301 304 307 308 308 310 310 308 309 310 310 310 310 312 310 311 310 311 309 310 309 312 311 310 310 311 310 311 313 311
305 304 302 300 300 298 302 305 307 308 307 304 304 304 305 306 301 301 306 307 308 309 309 309 309 309 309 310 311 310 311 311 311 310 309 309 308 306 305 306 308 310 309 309 309 306 310
307 305 305 301 300 299 304 306 308 308 308 307 305 298 304 306 305 304 307 307 308 309 309 309 309 309 309 308 308 311 310 311 311 310 310 309 307 307 303 308 309 309 308 308 306 304 309
308 307 306 305 302 302 304 306 306 308 309 308 306 302 304 299 303 305 306 307 309 309 309 309 309 308 309 309 309 309 309 308 309 309 309 307 308 304 308 309 309 307 307 308 307 308 307
307 308 308 308 306 304 304 306 306 306 307 307 306 305 305 304 304 304 304 308 308 308 309 309 309 308 307 309 309 309 308 308 309 307 307 306 307 308 309 307 307 307 307 308 308 309 308
304 307 308 308 307 306 306 306 306 306 307 306 306 306 306 303 302 303 304 308 308 309 309 309 309 308 308 308 308 308 307 307 307 308 307 307 306 305 309 305 306 307 307 308 308 308 307
298 304 307 308 308 308 307 306 304 304 304 303 304 305 305 302 301 303 304 308 308 309 309 309 308 308 308 308 308 308 308 307 307 307 306 307 305 304 303 302 303 305 305 306 306 308 307
295 300 304 307 307 308 307 303 303 303 303 304 304 305 306 302 301 302 304 307 308 308 308 309 309 308 308 308 306 305 303 305 307 306 306 304 303 304 304 303 302 305 305 306 306 305 305
297 295 301 304 306 307 307 305 305 305 303 303 304 304 303 304 300 304 304 306 306 305 304 309 309 308 308 306 305 308 304 306 305 303 306 304 302 304 303 305 305 302 305 306 304 303 304
298 296 296 302 303 305 306 306 305 307 306 304 303 304 304 305 305 304 304 305 307 306 304 306 308 307 308 304 307 305 305 305 304 307 306 304 304 304 304 303 304 302 305 306 303 300 305
298 297 295 299 303 304 305 306 306 306 307 306 305 303 303 305 305 305 304 305 306 307 305 308 306 305 305 306 306 305 304 303 304 303 306 303 304 303 303 305 304 304 304 304 302 306 307
301 297 296 300 303 306 306 305 306 306 306 306 305 305 303 303 305 305 304 305 306 308 308 308 307 306 307 304 303 302 304 301 302 304 302 305 303 303 303 304 303 306 305 307 307 307 307

GFSGBSN_850_thetae_117.txt.gz
Theta_e
306 306 306 306 305 305 305 305 305 305 306 307 308 307 307 305 300 304 307 314 315 317 317 315 314 308 305 307 307 309 312 308 307 306 304 304 304 304 303 303 303 302 303 304 304 304 304
306 307 306 306 305 304 304 305 304 304 306 306 306 307 306 306 303 302 307 314 316 317 316 315 310 307 306 307 310 310 307 304 303 302 303 303 304 304 304 303 303 303 303 303 303 303 303
308 305 306 306 304 303 304 304 304 304 306 306 306 305 306 305 303 308 306 313 316 316 315 310 307 306 306 309 309 306 306 305 304 304 304 304 304 304 304 303 304 304 302 301 302 302 303
310 306 305 305 304 305 303 304 305 305 306 306 305 305 305 303 308 308 311 314 315 315 309 307 306 304 304 306 306 306 305 305 304 303 304 304 304 303 303 304 303 302 302 302 302 303 304
310 305 304 305 305 303 303 303 304 304 305 306 305 305 303 301 310 312 314 314 312 312 307 306 306 306 304 305 305 305 305 304 305 304 305 305 305 304 304 301 298 300 300 301 302 304 305
305 301 304 305 305 304 303 303 306 305 305 305 304 303 303 305 310 312 312 311 311 307 307 307 305 303 304 304 304 304 304 304 305 305 305 305 304 299 298 296 299 297 297 300 302 303 303
301 302 306 305 304 303 303 304 304 304 304 302 302 307 309 307 310 309 309 306 306 305 305 305 304 304 303 302 303 303 303 303 304 305 304 304 298 301 300 301 302 302 302 303 303 303 304
300 302 305 304 304 303 303 303 304 304 301 308 309 310 305 308 307 307 307 307 306 305 305 305 304 304 304 305 304 304 304 305 304 302 303 303 303 301 302 302 303 302 305 304 304 304 305
301 302 304 304 304 305 305 304 303 301 300 308 308 305 306 305 308 308 307 306 305 305 304 306 307 306 306 306 306 305 305 305 306 306 306 306 302 306 306 306 307 306 305 306 305 305 305
303 303 303 304 303 303 301 301 302 301 300 307 307 307 308 308 308 307 305 305 305 306 301 306 306 307 307 307 306 306 306 306 306 306 307 306 305 306 306 307 306 306 305 306 307 308 309
302 304 302 302 302 302 300 303 304 300 303 306 308 307 307 308 307 308 305 305 306 306 303 305 307 307 307 308 307 307 307 307 307 307 306 304 307 308 308 308 306 306 307 309 311 312 313
302 303 304 304 301 301 300 305 305 304 304 306 306 306 306 308 308 307 306 306 305 299 299 302 307 307 308 308 308 307 308 308 308 309 308 308 307 308 308 308 307 307 309 311 312 312 310
302 302 305 303 302 301 301 304 306 306 306 306 306 308 307 308 307 307 306 304 300 301 301 305 307 308 308 310 311 310 310 311 312 310 304 310 309 307 308 310 312 311 311 310 308 305 311
302 302 303 304 302 301 301 302 306 306 306 306 306 305 307 306 304 305 306 300 301 305 304 306 307 308 308 309 311 312 313 313 309 312 312 310 308 309 310 312 313 312 312 316 317 317 313
302 302 301 302 302 301 300 302 302 306 306 306 306 304 305 304 305 307 305 299 301 305 306 308 308 309 308 308 309 313 311 309 309 308 309 310 310 309 310 313 313 315 317 314 316 317 311
302 302 302 301 302 301 299 301 303 303 302 305 305 305 305 305 306 306 301 304 303 303 307 307 309 307 309 309 309 309 310 309 310 309 308 310 313 311 313 312 313 315 314 316 312 318 316
301 301 301 301 301 300 302 305 306 306 306 306 306 306 305 306 307 305 301 302 306 307 308 309 309 309 308 309 309 310 310 310 310 310 308 309 311 310 311 312 312 311 312 313 312 315 315
303 301 300 299 299 299 304 307 308 307 306 306 306 301 305 306 305 300 303 306 308 308 309 309 308 308 309 309 309 309 310 309 310 310 310 309 308 308 310 310 309 309 311 309 309 313 310
305 304 301 300 298 302 306 307 308 308 307 306 305 305 306 306 301 301 305 306 307 309 309 309 309 308 308 309 310 310 309 310 311 309 309 308 306 304 305 305 306 309 308 308 307 308 310
307 306 303 301 301 303 306 308 308 308 307 306 305 299 305 306 304 303 304 305 306 308 309 308 308 308 308 308 307 309 308 309 309 309 310 308 305 306 303 307 307 308 306 307 306 303 309
307 307 307 304 302 304 306 307 306 307 307 307 305 302 303 299 303 303 304 305 307 307 308 308 308 307 308 309 308 308 308 307 308 308 308 306 307 304 305 306 307 307 306 306 304 306 307
304 308 308 308 305 303 304 305 305 306 307 306 306 305 304 303 303 303 303 306 307 307 308 308 309 307 307 308 308 308 308 307 308 306 306 304 306 306 308 306 304 306 305 307 308 308 307
298 304 307 308 307 306 306 307 306 307 305 306 306 306 305 302 301 302 303 306 308 308 308 308 308 307 307 307 307 308 307 306 306 306 306 305 305 305 307 303 303 304 305 306 307 307 306
297 298 304 307 308 307 308 306 305 304 304 303 304 305 305 302 300 302 304 305 307 307 308 308 308 307 308 307 308 307 306 306 305 304 305 306 304 303 303 301 299 302 304 305 305 305 305
299 296 298 303 307 308 308 306 305 305 303 304 304 305 305 301 301 302 302 304 307 307 307 308 308 308 308 308 305 304 302 304 305 305 304 303 302 304 302 301 300 303 304 305 306 304 304
304 298 296 299 302 306 307 307 306 306 305 303 303 304 303 303 300 303 303 304 304 304 303 307 308 307 307 304 304 307 304 305 304 302 303 302 301 302 302 304 302 300 304 305 303 302 301
309 299 297 296 299 303 305 306 306 306 307 306 303 302 303 304 305 304 303 303 306 305 303 305 308 307 308 303 307 305 305 303 305 305 305 304 303 304 303 303 302 300 304 304 302 300 303
309 304 298 296 295 299 303 304 306 306 306 306 305 304 302 303 304 304 305 304 306 306 304 306 305 305 304 305 306 304 303 302 303 302 304 303 302 302 302 304 303 303 304 304 301 305 305
310 308 298 296 296 299 302 304 305 306 305 306 306 305 304 303 302 303 305 304 304 306 307 308 305 306 306 303 301 301 304 300 300 304 300 303 302 302 302 302 302 305 305 306 306 307 306